GFSNW_850_thetae_012.txt.gz
Theta_e
301 301 302 302 302 303 303 303 302 302 306 304 305 310 309 312 312 313 313 314 315 315 316 316 317 318 317 319 319 318 319 319 321 323 321 323 324 323 318 322 320 320 323 325
301 301 302 302 302 303 303 303 304 304 306 303 305 307 310 310 311 310 311 312 312 313 315 316 316 317 318 316 318 320 320 322 323 321 320 320 322 323 322 315 316 321 323 323
302 302 301 302 302 303 303 303 302 305 305 306 304 306 309 309 309 310 310 309 312 312 312 313 314 317 316 315 317 318 314 318 319 324 323 322 322 323 322 321 323 322 322 323
301 302 301 301 302 302 303 303 302 304 302 304 304 305 306 308 309 308 308 309 310 312 311 313 315 315 314 314 316 313 313 315 319 321 323 324 324 324 324 322 322 322 323 319
303 303 301 301 302 303 304 303 304 303 303 303 302 304 305 307 308 308 307 308 310 309 311 312 313 312 313 312 312 312 311 315 317 322 324 325 326 326 326 325 324 323 320 320
303 303 302 302 302 303 303 303 303 303 303 301 301 303 304 305 306 307 307 308 308 309 310 309 311 312 312 311 312 312 312 313 316 319 322 325 326 327 326 325 324 324 322 321
303 302 302 302 303 303 303 303 303 303 304 302 303 303 303 305 306 307 306 306 308 309 310 311 312 310 310 311 312 313 314 315 314 319 321 327 327 327 326 325 326 325 323 322
302 302 302 302 303 303 303 303 304 304 304 303 303 304 304 304 304 304 306 307 307 308 307 308 310 311 313 314 313 315 315 316 318 321 323 324 330 329 326 324 326 334 326 329
302 301 302 302 302 302 302 302 303 303 301 303 303 303 303 302 303 305 307 306 307 308 308 310 310 313 316 319 319 317 319 317 319 322 325 328 326 332 332 329 343 339 339 337
302 301 301 301 301 302 302 302 303 303 302 302 302 302 303 304 304 304 305 307 307 308 309 310 312 312 314 318 320 321 323 322 322 324 329 326 334 334 333 334 332 338 338 338
302 302 302 302 302 302 302 302 302 303 303 303 303 303 303 303 304 305 305 307 307 305 310 311 311 311 312 315 317 322 324 327 330 327 333 338 325 333 333 332 344 346 347 344
301 301 301 301 301 302 302 302 302 303 303 304 303 303 303 303 304 304 305 307 306 306 309 310 311 312 314 314 320 321 325 324 327 324 330 323 326 335 341 342 342 344 345 345
301 301 301 301 301 302 302 302 302 302 304 303 303 304 304 305 305 305 304 305 307 306 306 307 309 315 316 318 319 323 323 324 324 327 326 328 337 340 336 340 341 342 342 343
303 303 302 302 301 301 301 301 302 302 304 303 304 304 304 305 305 305 306 307 307 307 307 307 306 312 314 317 320 320 324 324 328 326 326 327 330 334 334 333 335 336 339 341
304 304 304 304 302 301 301 301 303 304 303 304 305 304 306 307 310 308 306 306 307 307 307 309 312 313 314 317 318 321 322 326 330 332 326 327 326 332 330 330 331 328 328 331
305 304 304 302 302 301 301 304 305 304 304 304 304 304 306 309 311 311 311 310 307 307 307 309 311 312 314 315 320 320 319 320 324 327 325 325 325 325 327 328 329 329 327 326
306 305 305 304 303 303 302 302 305 305 305 304 306 303 306 309 311 311 310 310 308 308 308 312 312 313 309 315 320 319 320 322 327 325 325 325 325 324 325 326 329 330 332 332
307 306 306 307 307 306 306 307 307 305 303 305 306 306 308 309 311 311 311 309 309 312 312 311 312 311 311 318 317 318 319 321 325 325 325 324 323 323 323 326 327 330 331 332
307 308 309 309 308 308 308 309 308 306 305 306 306 308 310 308 311 312 311 312 312 310 312 312 311 316 316 317 317 318 321 325 324 323 324 323 324 326 325 322 324 327 328 328
308 310 310 310 310 308 309 308 307 306 305 305 305 306 309 308 311 311 311 312 312 311 311 312 313 315 313 315 319 320 322 324 322 322 322 323 324 325 324 324 323 323 325 328
308 309 308 309 310 311 310 308 307 307 308 306 306 307 308 310 314 313 314 314 313 312 315 316 315 314 316 318 320 320 319 319 320 321 321 321 322 320 320 320 319 325 325 320
310 310 310 311 311 310 309 304 305 306 309 309 311 314 313 313 313 312 315 316 315 319 317 315 314 315 317 318 319 320 320 320 321 321 321 320 321 322 323 324 324 324 325 325
311 311 312 312 311 312 309 310 310 312 311 313 315 315 313 314 315 315 314 316 319 318 315 312 313 315 316 317 319 319 320 320 321 323 323 323 323 323 324 324 325 324 324 324
314 313 309 311 312 314 314 317 317 316 314 316 317 317 315 315 317 316 320 319 316 318 316 314 315 314 315 317 318 319 320 321 321 322 322 322 323 324 323 323 324 322 321 321
315 313 311 314 314 315 316 317 317 316 316 318 318 317 316 316 316 314 316 317 315 314 318 317 318 319 320 319 320 320 320 321 320 319 321 321 321 322 322 322 321 321 319 319
313 314 315 314 315 316 317 317 317 316 315 317 316 316 316 315 313 315 315 315 316 317 318 317 317 318 319 319 319 319 319 318 317 317 317 318 318 318 319 320 319 317 317 318
314 314 316 316 316 316 316 314 315 316 316 316 315 318 317 313 313 314 315 317 317 317 318 318 318 317 318 318 318 318 318 314 311 311 311 311 315 316 313 317 317 317 315 314

GFSNW_850_thetae_015.txt.gz
Theta_e
301 301 301 301 301 302 302 303 300 303 304 303 301 304 305 310 310 310 311 312 312 313 314 314 315 316 316 316 317 319 317 311 319 319 318 320 320 320 316 319 318 316 320 321
301 301 302 301 301 302 302 303 303 304 305 303 302 303 306 308 308 309 309 310 310 311 313 314 315 315 316 315 316 318 317 315 316 316 318 318 318 319 319 318 315 322 320 320
302 302 303 302 301 302 302 303 301 304 304 303 303 303 304 307 308 309 307 308 310 311 311 311 313 314 316 313 314 318 313 312 316 318 317 319 319 321 321 319 320 322 322 320
303 303 303 302 301 302 303 302 300 302 301 302 301 302 303 307 307 308 307 307 308 310 311 312 313 313 312 313 314 311 310 313 315 317 317 319 320 320 322 320 321 322 323 318
303 303 303 302 302 302 302 302 303 303 302 302 301 301 304 306 305 306 308 307 307 308 309 310 311 310 312 312 311 310 308 314 313 316 318 321 322 321 322 322 322 321 321 317
302 302 301 302 302 303 302 302 302 303 304 303 303 301 303 303 304 306 307 306 305 306 307 308 308 308 309 310 311 309 311 311 313 316 317 318 322 322 323 323 321 321 322 320
302 302 302 301 302 303 303 303 303 303 304 303 304 303 303 303 303 305 305 304 305 307 306 306 308 308 308 309 309 309 311 311 312 315 317 324 322 322 323 323 322 320 320 320
301 301 302 301 302 302 302 303 303 303 303 303 303 303 303 303 303 302 303 304 306 306 307 306 308 308 309 309 310 310 310 312 314 316 319 321 324 326 325 323 323 325 321 321
301 302 302 302 302 301 302 302 302 303 303 303 303 303 302 302 303 303 305 305 304 307 305 307 309 310 313 313 315 311 311 312 316 316 321 325 323 327 329 327 325 336 328 323
301 301 301 302 302 302 302 302 302 303 303 303 302 302 301 302 302 302 302 305 306 307 306 306 308 310 311 312 317 315 314 319 319 318 319 322 326 334 331 331 326 336 336 334
302 301 301 302 301 301 302 302 302 302 302 302 302 302 302 302 303 303 303 303 305 303 307 308 308 309 310 311 312 316 319 322 323 319 325 328 331 335 340 336 336 343 340 340
303 303 303 302 302 302 302 302 302 303 303 302 302 302 302 303 303 303 303 304 304 306 306 305 306 308 310 310 315 314 318 320 324 323 325 324 327 329 335 334 338 340 344 345
303 304 303 304 303 302 302 301 301 301 302 302 303 304 304 304 304 304 303 304 304 305 306 307 307 310 311 312 313 315 317 318 323 324 325 328 330 329 332 332 334 337 340 344
304 304 304 304 304 304 303 302 302 301 301 303 304 304 304 304 304 304 304 304 305 306 306 306 307 309 309 312 313 312 313 319 322 325 325 327 328 330 329 330 332 335 338 340
305 305 305 305 305 304 304 303 301 301 301 304 304 304 305 305 306 307 305 304 304 304 307 308 309 309 310 313 310 314 317 322 322 323 326 327 327 330 325 326 327 332 334 334
307 307 306 305 305 304 304 301 304 305 304 303 304 304 306 307 308 309 310 307 304 305 306 305 307 308 309 314 310 318 319 319 320 326 326 326 328 326 325 328 331 329 330 331
309 308 307 306 305 305 304 304 304 304 304 304 305 304 305 306 309 309 310 307 306 306 306 307 308 309 310 311 314 317 317 318 320 321 324 325 327 326 327 330 330 331 331 332
311 308 308 309 308 306 306 308 307 306 304 302 306 306 306 309 310 311 312 307 307 310 310 311 312 310 310 311 313 316 316 318 319 325 325 324 326 326 329 329 329 330 329 328
312 308 309 309 308 308 309 309 308 307 305 303 304 307 309 307 309 311 310 311 311 310 312 311 310 310 312 314 314 314 318 321 325 324 324 323 325 325 328 328 327 326 326 326
312 309 309 310 309 309 309 308 307 305 304 303 304 303 306 307 309 311 311 310 311 310 309 310 309 308 310 313 315 315 322 323 324 323 323 323 324 324 323 324 323 326 326 325
312 311 309 310 311 311 310 306 306 305 305 303 304 304 305 307 312 313 311 308 310 311 312 313 309 310 316 316 318 320 321 322 322 322 322 322 321 321 321 324 324 320 322 325
312 311 311 311 311 310 308 308 306 305 307 307 309 311 309 311 312 312 312 312 311 317 315 313 312 311 316 318 320 321 321 321 322 322 322 322 323 323 322 322 324 325 325 325
313 312 312 310 311 315 311 310 315 316 312 311 313 316 314 314 314 314 313 318 319 316 312 311 310 312 317 318 319 321 322 323 322 321 322 323 323 323 325 325 325 324 324 325
314 311 311 312 313 315 315 316 317 316 315 315 315 317 315 315 315 316 318 316 314 316 315 315 316 319 320 320 319 318 319 320 322 322 323 323 322 321 321 320 320 322 323 322
313 313 309 314 314 314 314 313 315 315 315 316 317 316 314 312 314 314 314 316 314 314 318 318 318 318 317 317 316 314 315 320 319 318 320 321 316 317 318 317 318 320 321 323
314 315 315 314 313 313 313 312 312 314 315 316 316 314 314 315 313 315 315 314 315 317 318 318 317 317 316 313 315 312 312 314 314 314 316 317 317 315 314 315 316 316 318 320
315 314 314 313 313 312 312 311 310 313 314 315 315 316 317 313 315 316 316 318 318 317 316 317 316 315 314 310 308 309 310 310 310 309 310 310 311 313 312 312 315 315 315 314

GFSNW_850_thetae_021.txt.gz
Theta_e
301 302 303 302 302 302 301 302 304 303 302 303 303 304 304 304 307 309 309 310 312 313 314 315 317 319 317 313 318 321 319 320 325 324 324 325 325 325 325 325 326 324 325 325
302 302 302 301 301 301 302 302 301 302 302 304 304 303 304 304 307 308 310 309 309 311 313 314 315 316 314 313 318 319 318 321 327 325 324 322 325 326 325 325 326 327 324 325
301 303 302 302 301 301 302 302 303 302 302 301 302 303 304 305 305 307 308 309 308 310 312 313 313 314 313 312 316 317 316 318 324 328 325 322 324 322 325 325 327 326 327 326
300 302 302 302 302 302 302 302 302 301 304 303 303 304 303 305 305 304 306 307 308 307 310 312 313 312 312 313 312 314 316 319 318 318 318 319 320 320 321 323 325 328 326 326
301 301 302 303 302 301 302 302 302 302 301 302 304 302 303 304 304 304 304 309 306 306 308 308 310 309 312 312 312 312 313 317 318 318 317 318 319 320 320 321 322 322 323 324
303 302 301 302 302 302 302 301 302 302 303 303 304 304 303 303 303 304 305 305 304 305 306 305 306 306 307 308 309 311 313 316 317 318 318 319 320 320 321 321 322 322 324 324
303 303 303 302 302 302 302 302 301 302 303 303 302 303 302 303 303 304 303 303 304 304 304 304 305 306 306 307 308 308 313 315 315 315 317 320 321 321 324 325 324 323 323 324
301 301 302 303 303 302 303 302 302 302 303 302 302 302 302 302 301 303 302 303 304 304 305 306 307 309 310 309 308 310 310 313 312 313 317 318 318 320 330 333 327 332 335 327
300 300 302 304 304 304 302 302 301 302 302 303 302 302 302 302 302 302 303 303 303 304 308 308 308 306 308 309 312 310 310 312 313 313 312 316 320 322 328 333 329 337 339 341
300 300 302 303 304 305 304 303 302 302 302 303 302 303 303 301 301 302 302 303 303 306 306 306 308 308 308 307 308 314 313 312 313 313 314 315 317 324 335 337 330 337 338 339
300 301 303 305 305 305 305 305 303 302 302 302 302 303 302 303 302 303 302 303 304 306 307 307 307 309 309 311 308 308 313 315 315 312 313 313 315 321 325 336 335 337 338 337
301 302 305 306 306 306 306 305 305 304 303 302 303 302 302 303 302 302 302 303 304 305 307 306 306 309 309 310 311 310 311 311 317 313 312 313 315 320 327 333 334 335 336 336
302 304 307 306 307 307 307 306 305 305 302 303 302 303 302 303 303 302 302 303 303 303 304 306 308 308 309 311 311 311 312 312 315 314 312 314 315 318 323 329 331 333 335 334
303 307 307 307 307 308 307 307 306 304 304 302 303 302 303 303 303 303 302 302 303 303 303 304 306 309 308 309 310 311 311 310 312 315 315 315 314 316 322 328 330 334 334 333
304 307 307 309 308 308 307 307 306 305 304 303 303 303 304 304 304 304 303 303 303 303 305 306 307 306 307 308 309 310 309 311 314 314 315 316 317 320 324 326 331 332 333 334
306 308 310 310 308 307 306 306 304 304 304 304 305 304 304 305 305 304 304 303 303 303 304 304 304 305 307 311 311 310 310 311 311 315 313 314 317 318 321 326 332 331 332 335
309 310 311 309 308 308 307 306 307 305 303 302 304 304 305 306 307 306 303 303 303 303 303 304 305 306 307 310 310 310 310 310 311 312 312 312 316 318 324 328 331 332 332 331
311 311 310 309 309 309 307 308 307 305 303 302 305 306 306 308 309 309 305 304 303 303 305 306 309 309 307 310 310 310 310 309 310 311 311 312 316 319 323 325 328 329 328 327
313 311 309 309 309 308 308 307 306 305 304 300 301 306 310 306 307 309 309 305 306 306 306 309 309 311 312 311 310 310 310 310 312 314 317 317 318 322 319 326 327 325 326 326
312 311 309 310 310 310 308 307 305 304 303 301 301 300 304 304 307 309 310 309 310 310 308 305 309 308 308 309 309 310 311 312 314 313 316 319 321 322 324 325 326 325 327 328
312 312 311 311 310 310 309 307 306 305 303 301 301 301 304 305 307 310 309 307 305 310 310 307 308 309 310 315 321 321 321 319 319 320 321 319 322 321 325 324 322 325 327 326
313 312 312 312 313 313 313 312 310 309 310 309 307 310 307 307 308 311 310 308 306 313 311 310 311 308 311 315 315 315 316 318 321 319 317 317 323 324 325 325 326 325 323 324
313 313 313 313 311 310 312 311 311 314 315 315 314 316 315 315 315 315 315 316 316 314 312 310 307 310 310 312 313 314 316 315 314 316 318 322 321 322 321 319 319 317 316 316
314 313 311 313 312 311 310 310 311 311 312 312 313 316 314 312 315 315 316 316 314 316 314 311 310 308 308 310 313 314 314 316 314 318 316 317 318 316 316 319 317 318 319 319
313 312 312 313 311 311 309 309 309 310 310 314 315 315 315 315 316 314 313 317 315 311 311 309 308 305 307 309 311 312 313 313 314 315 313 314 316 316 314 314 315 316 317 318
312 311 312 311 310 310 309 309 309 309 313 315 315 316 317 317 316 315 314 313 315 314 312 308 307 306 305 305 307 308 311 312 313 312 312 313 313 313 312 314 316 316 317 317
312 312 310 310 310 309 309 308 308 310 312 315 315 313 315 314 315 313 314 312 310 308 305 304 304 304 304 305 306 307 308 310 311 311 310 309 308 309 311 311 311 312 313 314

GFSNW_850_thetae_024.txt.gz
Theta_e
300 302 303 302 302 302 304 304 306 304 304 306 306 307 306 305 307 307 310 311 311 315 316 319 321 323 321 316 321 325 326 328 330 328 327 327 327 327 328 328 330 328 329 329
300 301 302 302 302 302 304 305 305 304 304 306 306 306 306 306 307 308 309 311 311 312 315 318 318 320 316 315 321 325 326 326 330 329 329 328 328 327 328 328 329 331 329 327
302 301 301 302 303 302 304 305 306 305 305 305 306 306 306 306 306 306 306 309 310 312 312 315 317 318 316 314 316 316 319 327 329 331 330 328 329 328 328 328 330 329 330 330
304 303 301 302 303 302 305 305 305 304 305 305 305 305 306 305 305 305 306 307 308 309 313 313 314 315 315 315 315 317 320 326 326 329 325 325 328 328 328 329 329 330 330 330
302 303 303 303 302 302 305 304 304 304 303 304 305 305 306 305 305 305 306 306 306 306 310 309 312 312 314 315 315 317 317 324 323 326 324 323 325 326 326 328 329 329 329 330
300 300 301 303 304 302 305 305 304 304 304 305 306 305 304 304 304 305 305 305 306 306 307 307 308 308 309 312 313 315 316 320 322 326 324 324 326 325 325 326 327 327 329 329
300 300 300 300 303 303 303 304 304 304 306 305 304 304 303 303 303 304 304 304 305 306 306 306 307 308 308 310 311 312 315 317 319 324 324 326 326 326 326 326 326 326 327 327
300 300 300 300 302 304 303 303 303 304 306 304 305 304 303 303 303 303 304 305 305 305 306 309 309 310 310 310 310 311 313 316 317 320 322 324 324 323 324 326 327 327 328 329
300 300 300 301 302 304 303 305 302 303 303 306 304 304 304 305 305 304 304 304 305 305 308 309 310 309 310 311 310 310 313 314 316 317 319 323 323 323 326 326 330 329 333 334
300 301 302 303 304 306 304 304 305 302 303 303 304 305 305 304 304 305 304 304 305 306 308 309 308 309 309 309 311 313 311 314 316 316 317 319 320 324 330 330 340 337 336 338
301 302 303 304 306 307 306 306 305 304 302 304 305 304 304 304 304 306 304 305 306 307 309 308 307 309 310 311 310 311 312 313 313 314 315 316 316 318 324 331 333 333 334 337
304 304 304 306 307 307 307 307 306 305 303 303 304 305 305 305 304 304 304 304 306 306 309 310 310 310 310 311 312 311 311 312 314 315 315 315 315 317 318 319 322 329 328 330
305 305 305 307 307 308 308 308 308 306 303 303 304 307 306 305 305 305 304 304 303 304 305 306 309 310 310 312 311 312 312 311 313 313 313 315 314 314 316 318 320 322 326 327
306 305 307 308 308 309 308 308 308 307 304 304 306 305 305 306 305 305 305 304 304 305 305 307 307 309 309 312 311 312 312 312 313 315 315 313 313 314 315 317 321 325 326 330
305 307 309 310 309 308 308 308 308 307 306 305 306 306 307 306 306 305 305 305 304 304 305 306 308 307 308 310 310 311 310 313 314 315 313 313 314 314 318 319 321 323 326 329
309 311 311 310 309 308 307 308 305 306 305 304 307 306 307 307 306 306 306 306 305 305 305 305 305 305 308 313 312 312 311 311 311 314 313 314 315 315 315 317 318 320 325 332
312 312 311 309 310 309 308 307 307 306 304 303 305 307 308 306 307 306 306 305 305 304 304 303 305 307 307 310 311 311 310 311 312 312 312 313 314 315 315 318 320 322 328 332
313 311 309 310 310 309 308 308 307 306 304 302 305 307 307 307 309 309 305 303 302 302 302 303 306 307 306 310 309 309 309 311 311 310 311 311 312 314 315 319 324 327 329 331
312 311 309 310 310 309 308 307 306 305 304 301 301 306 310 306 306 307 305 303 305 303 305 306 308 308 308 308 308 307 308 310 310 310 310 311 314 315 316 319 323 321 328 329
312 311 312 315 310 309 308 307 305 304 304 302 301 300 304 304 306 309 309 308 308 310 307 303 304 306 304 308 314 320 313 308 310 311 312 314 317 319 320 322 319 321 327 328
313 314 314 311 311 311 310 312 308 307 307 303 303 303 305 306 308 310 308 309 306 311 311 308 308 309 308 310 313 314 317 314 312 313 315 317 320 320 319 319 325 328 327 327
313 313 313 314 314 314 314 313 312 313 316 315 312 314 309 309 308 311 311 311 311 317 315 312 311 306 308 309 311 312 314 319 319 317 318 321 320 321 321 322 323 321 321 321
313 313 312 314 312 312 312 311 313 314 315 316 315 317 317 317 315 318 319 318 318 316 315 310 307 308 308 309 309 311 311 313 315 316 313 316 318 316 317 317 317 318 319 318
315 314 313 315 315 313 311 313 313 313 313 314 317 318 317 317 317 317 318 318 315 315 315 311 310 308 307 307 308 311 311 313 315 315 316 316 317 317 317 318 317 317 317 317
314 313 316 314 312 313 313 313 312 313 313 317 319 319 317 318 318 317 316 317 316 312 312 311 309 308 306 306 307 308 309 310 313 316 316 315 316 316 316 317 317 316 316 316
313 312 313 312 312 312 312 312 313 313 316 319 317 318 318 318 317 314 315 315 313 311 310 308 307 307 307 307 307 308 308 309 309 309 311 311 312 313 313 315 315 312 312 312
313 313 312 312 312 312 311 311 311 312 314 317 316 315 314 314 313 313 310 311 309 308 306 304 305 306 307 307 307 307 308 308 309 309 309 308 308 308 309 308 307 307 307 307

GFSNW_850_thetae_027.txt.gz
Theta_e
304 304 303 301 303 303 305 308 310 307 306 308 307 307 307 307 308 308 309 311 312 313 315 318 322 326 325 319 323 328 329 331 333 331 329 329 330 330 331 330 333 330 332 333
304 304 304 303 303 303 304 308 308 307 306 308 308 307 307 307 309 308 309 309 311 313 314 317 319 322 320 318 323 327 329 331 334 335 331 330 329 329 330 331 331 333 331 332
302 302 302 303 304 304 304 308 310 307 306 306 307 307 307 307 306 307 307 310 309 311 313 314 317 319 319 317 319 318 322 330 332 336 334 331 330 330 329 331 333 332 332 332
301 300 300 301 302 304 306 308 309 307 308 308 307 307 307 308 307 306 306 310 309 309 312 314 315 317 318 319 318 322 324 330 331 332 333 332 330 329 330 330 331 332 332 333
301 300 300 300 301 303 307 307 306 306 306 306 307 308 307 306 307 307 307 307 308 307 310 311 312 314 315 318 318 320 323 327 330 332 331 330 330 332 330 330 330 331 331 332
301 301 300 300 301 302 304 306 306 307 307 307 307 307 307 306 305 306 307 306 306 307 308 308 309 310 311 313 314 317 320 324 329 332 331 331 331 331 331 331 331 331 332 332
301 301 300 300 301 303 304 303 303 305 309 307 307 306 306 306 306 306 305 305 307 307 307 307 308 309 310 311 313 315 318 322 326 329 331 333 331 330 330 330 331 331 331 332
301 300 300 301 302 304 304 304 303 304 309 307 308 307 306 305 305 306 306 306 306 306 307 309 312 312 312 312 312 314 315 318 323 327 330 330 329 329 330 329 330 329 330 330
300 301 302 303 304 306 306 304 302 303 304 308 307 307 306 307 307 308 307 306 306 306 309 310 312 313 314 314 313 313 314 316 319 324 327 332 329 327 326 328 331 330 329 330
304 304 304 304 305 306 307 307 304 303 303 304 306 308 308 307 307 307 306 306 307 307 309 311 311 310 313 313 315 314 314 316 317 320 323 325 327 329 327 330 343 339 332 333
306 306 305 305 305 307 308 307 307 304 303 304 306 307 307 307 306 307 307 308 308 308 310 311 311 309 313 314 313 315 315 316 318 318 320 323 322 323 329 330 329 330 334 333
308 307 307 306 306 308 308 308 307 307 305 305 307 307 307 307 307 306 306 307 307 308 310 312 313 311 311 312 313 313 314 316 316 317 319 320 319 319 320 320 322 325 327 329
308 308 306 307 308 309 309 309 308 307 304 304 305 309 309 308 307 307 306 306 306 306 306 308 310 311 312 314 312 313 314 314 315 315 316 317 316 317 317 317 318 320 321 323
307 307 308 311 309 309 309 309 309 308 305 304 308 308 308 307 308 307 306 306 306 306 306 308 310 311 310 312 312 314 314 314 314 314 315 315 314 315 315 316 317 318 322 326
309 311 312 311 310 308 308 309 308 308 307 307 307 308 309 308 308 308 307 306 306 306 306 308 310 308 309 310 311 312 312 313 314 315 315 315 315 314 314 314 316 320 322 322
312 313 311 310 310 309 310 310 308 307 306 305 308 308 308 308 308 307 307 307 307 306 307 306 306 306 308 312 314 313 311 312 312 313 312 313 314 314 315 314 317 318 319 319
313 312 310 311 310 310 311 310 308 307 305 304 306 308 309 308 308 307 306 307 306 305 304 304 305 306 306 308 312 310 310 310 311 312 313 314 314 316 316 315 316 316 316 317
313 311 310 311 310 310 309 308 307 306 304 303 306 308 308 307 308 309 305 304 303 301 301 301 304 304 304 308 308 308 308 308 310 312 312 313 314 314 315 315 316 318 321 322
312 310 312 312 312 311 309 307 306 305 305 303 302 306 309 305 306 307 305 303 305 302 304 303 303 306 308 307 304 303 307 307 306 311 312 314 314 314 314 314 316 317 319 325
313 315 314 315 314 311 309 309 307 306 305 304 303 302 305 305 307 309 309 306 309 311 308 303 305 305 304 305 312 317 312 307 307 310 311 310 312 314 314 315 317 318 324 323
317 317 317 314 314 314 314 317 316 315 316 309 309 306 309 307 309 311 309 311 309 314 315 313 309 309 308 308 312 314 315 311 310 310 311 312 313 315 318 319 321 322 322 324
314 313 314 317 315 316 318 317 317 318 323 318 318 319 314 312 309 311 315 318 316 318 314 313 312 308 309 310 311 312 312 313 313 314 314 316 319 320 318 320 320 320 321 322
317 315 315 316 315 319 315 315 316 315 315 316 317 322 319 319 315 319 320 316 317 314 315 311 311 311 310 310 312 312 312 311 313 314 311 312 314 315 316 315 315 316 317 317
315 315 319 317 318 317 316 317 317 317 317 317 318 320 320 319 320 319 319 317 315 315 314 312 313 310 310 310 311 312 311 312 313 313 314 314 314 316 314 313 315 315 314 313
315 315 321 316 314 314 315 315 316 316 317 319 320 319 318 318 318 316 317 317 317 314 312 312 309 310 310 310 310 310 311 311 311 312 312 312 310 310 309 311 313 312 312 313
315 314 315 314 314 313 313 313 314 315 317 320 318 319 319 317 316 314 314 315 313 312 311 308 310 310 310 310 309 308 309 309 310 310 310 311 310 310 309 308 308 308 308 308
315 315 314 313 312 312 312 312 312 314 315 318 317 316 316 314 314 314 312 312 310 311 308 307 309 310 310 308 308 307 307 308 309 309 310 309 309 309 308 308 307 306 305 305

GFSNW_850_thetae_030.txt.gz
Theta_e
302 301 301 301 301 304 306 310 313 310 308 310 309 309 308 308 309 309 309 309 309 312 313 315 317 323 324 321 322 327 327 326 331 333 331 330 329 331 332 332 335 332 334 334
302 302 301 301 300 302 305 310 312 310 308 310 309 308 308 307 309 309 308 308 310 310 310 313 316 317 318 319 321 324 326 330 332 333 333 332 331 330 331 331 331 336 333 332
302 302 301 301 300 301 305 310 312 310 308 308 309 308 307 308 308 309 308 308 309 310 310 310 314 315 317 317 319 321 322 328 333 335 335 334 333 330 331 331 333 332 332 334
303 302 301 301 300 300 307 310 310 309 310 309 309 308 309 309 309 308 307 308 309 309 309 310 311 313 313 316 319 321 326 331 331 331 333 333 331 330 331 332 334 334 333 333
302 302 301 301 300 301 307 307 309 308 308 309 309 309 309 309 308 306 306 308 309 308 307 309 311 311 312 315 315 317 322 328 331 333 333 333 333 331 330 330 330 332 332 333
301 301 301 300 300 303 306 306 304 305 307 309 310 310 309 307 308 307 306 308 307 307 308 308 308 308 309 311 313 316 320 325 329 333 333 333 335 333 332 331 331 331 334 335
300 300 300 301 302 304 305 305 304 303 307 308 309 309 309 309 308 307 306 307 308 308 307 307 307 308 310 311 313 314 317 321 326 330 332 336 333 333 332 332 331 332 333 335
303 303 303 304 304 306 305 306 305 302 307 308 309 309 309 309 308 308 308 308 308 307 307 309 310 311 312 312 313 313 316 318 323 330 332 333 333 333 332 332 333 333 333 334
306 306 306 306 305 306 306 306 307 303 303 307 307 309 308 310 310 309 308 308 307 307 308 309 312 313 317 312 312 314 315 317 320 326 330 333 332 331 331 331 332 340 334 332
308 308 307 307 306 307 307 307 308 306 303 304 306 307 310 309 309 310 308 308 308 308 310 311 311 313 314 316 314 314 315 317 319 322 326 330 329 329 329 333 340 336 337 335
308 309 308 307 307 307 307 308 308 307 304 304 306 307 308 308 308 310 308 309 310 311 313 314 315 315 315 315 315 317 316 317 318 320 324 327 323 326 332 333 327 328 331 332
310 309 308 308 307 308 309 308 309 308 307 307 307 308 307 308 308 309 308 308 308 308 310 312 312 312 312 314 315 316 317 318 318 319 321 326 320 321 321 322 323 323 325 325
307 307 308 309 309 309 309 309 309 308 306 306 306 308 310 310 309 308 307 308 308 308 308 308 309 312 312 314 314 314 314 315 316 317 319 319 318 318 318 319 319 319 320 322
310 311 312 312 310 310 310 310 309 309 306 305 308 310 310 309 309 308 308 307 307 308 307 308 311 311 310 312 312 312 313 314 316 316 316 316 315 316 316 316 317 317 318 320
312 313 312 310 310 309 310 311 309 308 307 308 308 309 310 309 309 309 309 308 307 307 307 308 309 309 310 311 311 312 312 312 313 315 315 317 318 316 316 316 316 317 317 319
313 312 310 311 310 311 311 311 309 307 307 306 308 308 310 308 308 309 309 308 308 308 307 308 307 307 307 311 313 312 311 312 312 313 313 314 315 314 315 316 317 317 317 318
313 310 311 311 311 311 311 311 309 308 306 305 306 306 309 308 308 308 307 307 307 305 303 303 305 306 306 307 309 308 308 308 309 309 311 313 314 315 315 316 317 319 318 319
312 310 311 312 312 312 312 309 308 307 305 304 306 308 308 307 308 309 306 304 303 302 301 301 303 304 303 307 306 306 306 306 306 307 308 310 313 314 316 316 317 317 317 318
313 312 314 314 314 313 311 310 309 307 306 306 305 308 314 308 308 308 306 304 307 303 303 302 302 304 307 303 303 312 313 310 310 308 307 309 311 314 315 316 316 316 316 317
316 316 316 317 315 313 312 311 310 308 307 306 309 307 314 308 309 310 310 306 310 311 311 302 304 304 309 311 312 312 313 311 310 310 311 311 314 314 315 315 315 315 315 316
319 320 319 317 315 314 315 320 319 319 321 317 317 312 317 311 313 313 311 313 311 317 316 314 310 309 311 311 311 311 313 312 312 312 313 313 313 314 315 315 316 316 317 319
313 315 318 319 318 318 319 319 318 319 321 318 319 318 318 318 311 312 315 320 318 316 312 313 311 311 311 310 311 311 309 311 311 311 314 315 315 316 316 317 318 318 320 321
320 317 318 318 318 319 319 317 320 320 319 319 319 323 321 321 318 321 322 316 315 314 315 311 311 311 312 311 310 311 311 308 308 311 311 311 312 312 313 313 313 314 314 314
318 317 315 318 318 317 317 318 318 317 318 319 319 321 320 318 319 318 319 316 314 314 314 314 313 312 311 311 309 310 311 310 309 310 310 311 311 311 311 311 312 313 311 310
317 317 318 317 315 315 314 314 315 315 317 319 320 320 318 318 317 316 316 316 315 314 314 313 311 311 310 310 308 309 309 310 310 310 309 309 308 308 309 310 311 310 309 309
316 316 317 315 314 314 314 314 314 315 316 318 317 317 318 316 316 315 315 315 315 313 312 310 310 311 309 309 308 307 307 307 310 310 310 308 308 307 306 305 307 307 307 306
317 317 316 314 313 314 313 313 313 314 315 317 317 316 316 315 314 314 314 313 314 312 312 310 311 308 308 307 307 306 306 306 306 309 308 309 309 307 306 306 305 305 305 304

GFSNW_850_thetae_033.txt.gz
Theta_e
304 304 303 302 302 300 302 309 312 312 310 309 310 308 308 308 307 309 309 309 307 308 309 310 310 314 315 314 315 316 320 321 323 324 328 329 327 326 325 325 324 324 324 327
303 303 303 302 301 300 302 309 311 312 310 309 309 309 308 308 309 309 308 308 307 308 310 312 312 313 313 312 313 313 318 321 325 323 323 325 327 326 326 324 325 326 325 327
302 302 302 301 301 300 304 310 311 310 309 309 309 309 308 309 308 309 308 307 307 309 310 309 311 311 311 311 312 314 316 320 323 326 325 326 328 328 326 326 327 327 327 328
301 301 301 301 300 300 306 308 310 309 309 309 308 310 309 309 309 309 308 307 308 307 308 307 310 310 310 309 310 312 312 319 324 328 328 329 330 328 328 327 326 328 326 331
300 300 300 300 301 301 306 308 306 305 305 307 308 310 310 310 310 308 307 307 307 307 307 308 308 309 309 310 310 310 310 317 323 331 330 329 331 329 329 328 328 328 327 327
303 304 303 303 303 305 305 307 306 304 306 307 308 309 310 310 309 309 308 307 306 308 308 308 308 307 307 308 309 309 311 315 320 330 331 333 334 332 329 329 328 328 329 328
306 306 305 305 305 306 305 306 306 303 306 306 307 307 308 310 310 310 309 308 308 308 308 308 308 308 308 308 309 310 311 313 319 327 330 335 331 331 333 329 330 328 327 334
307 306 306 305 306 306 306 306 307 304 304 305 306 307 308 309 309 310 309 308 307 308 308 308 307 309 310 310 310 311 311 313 318 327 330 332 332 330 329 331 335 335 339 335
309 308 307 307 307 307 307 307 307 305 302 305 306 306 307 308 310 309 309 309 308 308 308 309 309 312 312 316 312 312 312 313 318 322 331 336 324 325 328 330 338 332 336 338
309 309 309 308 308 308 307 307 308 307 303 304 306 308 308 308 308 309 309 309 309 308 309 311 312 313 314 315 317 314 314 315 318 320 325 329 323 325 329 337 335 328 327 332
309 309 308 308 308 308 307 308 308 308 306 306 306 306 307 307 307 310 309 309 309 310 311 312 312 314 313 313 315 313 316 318 318 320 325 329 320 322 329 328 322 323 323 326
307 308 309 310 309 308 308 309 309 309 308 307 308 308 308 308 307 308 309 308 308 308 310 310 310 310 313 312 317 313 317 315 317 318 322 318 319 319 319 319 320 319 320 321
310 311 312 312 309 309 309 309 309 309 307 307 307 309 309 309 309 309 308 308 308 308 308 308 309 312 310 312 313 312 312 312 313 316 316 316 316 318 317 317 316 317 317 319
312 313 312 310 310 309 309 310 310 309 308 306 307 309 310 310 309 309 309 308 308 308 307 308 310 311 310 310 310 311 310 311 313 312 316 315 315 316 316 316 318 317 317 317
313 312 311 311 310 311 311 310 310 308 308 308 307 309 309 309 309 309 309 310 308 308 308 308 308 308 308 308 309 311 311 310 311 311 310 313 313 313 314 316 316 317 319 318
312 311 312 311 312 312 312 312 310 309 307 306 308 307 309 309 309 308 308 308 307 307 307 308 307 308 307 309 309 309 309 307 307 308 309 309 310 310 313 316 316 316 318 318
311 312 312 311 311 311 312 311 310 308 306 305 307 310 309 309 308 307 307 306 306 305 303 302 303 304 305 306 308 307 307 307 307 311 308 308 309 310 313 314 316 317 318 318
311 312 314 314 313 313 313 310 310 308 306 306 311 312 311 309 309 309 306 305 304 303 303 302 302 303 301 305 306 307 310 313 313 312 310 309 308 309 311 314 315 316 317 318
315 314 315 316 315 315 313 312 311 309 308 309 310 313 316 310 309 308 307 306 308 304 304 302 302 303 306 307 308 309 310 312 312 310 312 309 308 308 310 312 314 316 316 316
317 317 317 318 317 315 314 314 312 311 310 309 311 311 315 312 310 311 309 307 311 311 311 303 304 304 309 309 309 308 309 311 312 313 309 308 309 309 311 313 315 316 316 316
318 320 320 318 318 316 317 320 319 319 320 315 314 314 319 314 314 314 311 313 312 313 314 313 310 308 311 310 311 308 307 308 309 311 312 313 314 314 315 315 315 315 316 316
313 315 319 320 319 319 320 321 319 321 322 319 320 319 317 316 313 313 314 317 314 317 312 310 310 311 311 309 310 309 308 307 307 308 309 309 310 315 314 314 315 316 317 318
318 319 318 319 318 318 320 312 317 322 319 318 320 322 320 319 316 317 320 317 315 313 314 311 311 311 310 308 309 309 309 308 307 306 307 307 308 310 310 311 311 312 312 312
322 319 314 319 321 320 318 317 317 316 316 317 320 321 321 320 320 318 319 316 314 313 311 312 312 310 309 309 307 307 307 310 308 307 306 306 306 306 307 307 308 308 308 308
318 318 315 319 315 315 315 314 315 315 315 317 319 319 318 318 318 317 314 314 314 314 314 312 310 308 307 307 308 306 306 307 310 308 307 306 306 305 304 304 305 305 306 306
317 317 317 315 315 315 314 314 314 314 316 316 316 317 317 315 316 315 313 312 312 313 312 311 311 309 308 306 305 306 306 305 307 309 308 307 306 306 306 305 304 304 304 304
319 318 316 315 314 315 314 314 314 314 316 316 317 315 315 316 314 313 314 314 314 312 311 311 310 308 309 305 304 304 305 304 304 307 308 308 307 306 305 304 304 304 304 304

GFSNW_850_thetae_036.txt.gz
Theta_e
302 302 302 302 301 301 301 305 306 312 312 307 304 303 306 308 308 308 307 308 307 306 309 309 309 310 311 310 311 312 313 316 321 321 321 324 328 323 321 322 320 318 320 325
301 301 301 301 301 300 301 307 310 311 309 305 304 305 309 308 308 308 308 307 306 306 309 310 310 310 310 310 311 312 313 317 318 321 318 320 321 327 322 317 317 320 323 324
300 300 300 300 300 301 302 308 305 309 308 307 306 306 308 308 309 308 307 306 305 306 307 308 310 310 309 308 308 310 312 309 314 320 321 321 322 323 323 323 323 321 323 324
304 304 304 304 303 303 304 308 305 306 305 306 305 305 307 310 310 308 307 305 307 305 305 306 309 308 308 307 309 310 309 309 310 314 317 321 323 326 327 323 323 324 324 325
306 306 305 305 305 305 304 307 306 305 305 305 305 305 308 310 310 309 307 307 307 304 304 306 307 307 307 308 308 308 308 308 310 314 324 326 327 328 328 324 325 323 321 323
306 306 306 305 306 305 305 305 306 305 305 305 305 307 307 307 308 309 309 309 307 306 306 307 307 308 308 307 308 308 308 307 309 317 323 329 331 327 328 325 324 325 324 323
307 307 307 306 306 306 305 306 305 304 306 306 307 307 306 308 308 309 309 308 307 308 307 308 308 307 307 307 307 308 309 308 308 317 322 332 325 323 326 333 330 328 334 333
309 309 309 308 307 307 307 306 306 305 304 305 306 307 308 306 307 309 309 308 308 307 308 305 306 307 308 309 308 308 309 308 309 319 324 328 325 322 323 326 329 324 328 339
310 309 309 308 308 307 307 307 307 307 303 305 305 306 306 307 309 309 308 309 307 308 304 305 308 312 314 317 316 309 311 310 309 314 326 331 323 321 326 327 329 323 328 337
308 307 307 307 307 307 307 307 307 308 304 305 306 306 306 305 306 307 308 307 308 308 309 310 313 314 314 316 318 314 313 313 315 319 327 324 320 319 323 329 328 321 323 326
307 309 310 311 309 308 308 308 308 308 307 307 307 307 306 307 307 308 308 309 307 306 309 310 310 312 312 313 313 315 317 318 317 321 324 327 319 319 319 318 317 317 321 325
311 312 312 310 309 308 308 309 309 309 308 308 308 309 309 309 308 307 308 307 306 308 305 307 308 310 311 311 315 312 315 314 316 316 319 316 317 317 316 316 317 317 317 322
312 312 312 309 309 308 309 309 309 309 307 307 308 308 309 309 309 309 308 307 308 307 307 306 308 310 309 311 312 310 310 310 313 313 314 312 316 316 316 313 315 318 319 317
312 312 311 310 310 309 310 310 310 308 308 307 308 309 309 309 309 309 309 309 308 308 307 305 305 305 306 307 308 308 308 309 309 309 309 311 313 311 312 312 314 317 318 320
312 312 311 312 312 311 311 311 309 307 308 307 308 309 308 308 309 308 309 309 308 307 307 307 307 306 307 304 304 307 309 309 309 309 307 306 308 309 309 310 312 316 317 318
311 312 311 312 312 312 312 312 310 309 307 306 307 308 309 309 308 307 307 307 307 307 307 306 305 306 306 306 304 306 307 307 307 308 308 308 310 311 310 309 311 315 317 318
313 313 313 313 313 312 311 310 310 308 307 306 308 310 311 310 309 308 307 305 304 304 303 302 303 303 304 306 308 306 308 309 311 312 312 310 310 309 311 310 312 314 316 317
312 314 315 315 315 314 314 312 311 308 308 307 309 310 312 311 310 309 308 307 306 304 303 303 303 303 301 305 307 307 308 309 310 313 313 311 309 310 310 309 311 313 315 316
315 315 315 316 316 315 314 313 312 310 309 309 310 311 314 311 309 309 308 307 308 305 305 303 303 303 307 309 308 308 308 308 310 311 311 309 310 311 309 309 310 310 314 316
318 317 318 319 317 316 315 314 313 312 311 310 311 313 312 312 310 311 309 308 310 310 309 304 304 304 309 310 309 308 307 307 307 309 309 310 311 308 308 309 310 312 316 315
314 315 320 318 318 316 317 316 315 316 312 314 315 315 313 314 313 313 311 310 310 311 306 307 307 308 309 308 309 309 307 307 307 307 307 308 312 314 313 314 315 315 315 315
317 316 317 320 319 319 316 312 314 315 316 318 318 318 316 314 314 313 312 313 310 310 308 308 310 309 309 308 308 308 308 307 306 306 307 307 307 309 310 310 311 313 313 313
317 319 319 319 317 311 315 311 310 314 316 316 316 317 319 315 314 314 314 315 311 310 307 309 309 309 308 308 306 307 309 307 306 306 306 307 306 306 306 306 307 307 308 308
319 322 309 313 314 313 312 311 311 314 314 314 315 319 319 319 315 312 314 311 309 310 310 311 309 308 306 305 306 306 307 309 307 306 305 305 305 305 305 304 305 305 305 305
320 317 312 313 314 314 314 313 313 314 315 316 317 316 314 311 312 310 309 310 307 306 308 308 310 309 307 305 304 305 305 307 308 306 305 305 305 304 304 303 302 302 303 303
318 317 314 314 313 313 314 313 313 314 313 314 314 312 311 312 310 311 311 309 309 312 310 310 309 308 308 305 303 303 305 305 308 308 306 305 305 304 304 303 303 302 301 300
318 318 315 314 314 314 314 313 313 313 312 310 311 310 313 310 310 311 309 308 306 307 309 311 309 308 308 304 303 303 304 304 306 306 307 306 305 304 303 303 303 302 302 300

GFSNW_850_thetae_039.txt.gz
Theta_e
300 300 300 300 301 301 301 302 301 310 309 306 302 302 303 307 307 308 307 307 306 306 308 308 307 310 310 310 311 311 311 315 319 321 318 317 324 324 319 331 326 316 318 324
303 305 306 305 305 303 302 304 307 309 309 305 303 304 307 308 307 307 308 307 305 305 307 307 309 309 309 310 309 310 310 317 314 319 318 319 320 326 321 321 316 320 329 328
306 306 306 306 306 305 303 306 303 308 307 307 304 304 307 308 309 308 307 306 305 305 306 305 307 308 309 309 308 310 311 313 311 316 317 314 317 319 323 320 319 322 322 326
307 306 306 306 306 306 304 307 303 306 301 303 303 304 305 308 310 309 308 305 306 305 303 304 304 307 308 308 309 309 309 311 308 310 310 311 313 315 318 319 321 322 321 319
307 307 307 307 306 306 305 306 306 305 304 305 304 305 306 308 308 308 309 309 309 308 302 303 304 305 306 308 308 308 308 311 308 310 312 312 315 320 324 324 321 320 320 320
308 308 308 307 307 305 305 305 305 305 306 306 306 307 308 308 307 309 309 308 308 307 306 306 306 306 306 307 309 308 308 309 308 311 316 322 325 323 326 326 325 325 321 325
309 309 309 308 307 306 306 306 306 305 307 307 307 307 307 308 308 308 308 308 307 308 307 308 307 306 306 307 307 307 309 308 306 309 316 331 321 320 322 327 325 325 328 332
309 309 308 308 308 307 306 306 307 306 305 305 306 307 308 306 306 307 308 308 308 308 307 303 304 308 310 307 307 307 307 308 308 312 320 325 323 321 321 322 325 322 326 332
307 306 306 307 307 307 306 307 307 307 305 306 305 306 306 307 307 307 307 308 307 308 307 305 309 311 314 312 312 308 309 308 313 309 327 330 322 320 318 322 325 319 324 324
309 310 311 310 308 308 308 307 308 308 305 306 306 307 306 305 305 304 306 308 307 307 307 309 311 312 310 317 315 313 314 314 314 314 327 324 319 318 318 322 321 318 320 322
311 311 311 309 308 308 308 308 309 308 307 308 308 307 307 307 306 307 307 304 307 305 308 309 309 310 311 313 311 313 314 316 319 323 325 327 317 318 318 315 316 316 318 321
312 312 311 309 308 308 308 309 309 309 308 308 308 309 308 308 309 307 307 307 306 307 307 307 307 311 311 310 312 311 314 311 315 316 318 315 317 317 313 312 312 313 318 319
312 311 311 310 309 309 309 310 308 309 308 308 308 309 309 309 309 309 308 306 308 308 307 306 307 309 306 310 310 310 310 310 310 311 310 310 314 315 314 312 312 312 315 317
311 312 312 311 311 310 310 309 309 308 307 307 309 308 308 309 308 308 309 309 309 307 307 304 305 308 306 308 307 309 309 309 309 310 308 311 312 310 310 315 313 314 315 316
312 312 313 313 312 311 311 309 308 307 308 308 309 309 308 308 307 307 308 308 308 307 306 306 307 307 306 304 305 309 307 308 309 310 308 308 308 309 310 312 312 313 313 315
313 312 312 312 312 312 312 312 310 309 308 307 305 310 310 309 307 306 307 307 306 306 305 305 305 304 305 307 309 307 308 309 309 309 310 310 311 311 310 311 311 312 314 314
314 315 314 313 313 313 311 311 311 309 308 308 308 309 311 311 310 308 307 306 305 304 303 303 303 303 304 305 308 308 308 308 309 310 312 312 311 311 311 310 310 310 312 314
315 314 315 315 315 314 314 313 313 309 309 311 312 312 312 311 310 309 308 307 306 304 304 304 303 304 301 306 309 308 307 307 307 308 309 310 311 310 310 310 310 310 312 312
317 317 316 316 316 315 315 313 312 312 311 311 311 314 313 313 310 309 308 308 307 307 306 305 305 304 308 308 309 308 307 307 307 307 307 308 310 311 309 311 310 309 310 312
316 318 318 319 317 315 314 314 313 312 311 310 308 313 313 313 311 311 310 308 308 309 307 306 305 306 308 309 309 308 307 306 306 307 306 306 310 313 308 308 308 309 310 311
315 315 319 317 317 315 315 314 312 312 310 312 313 313 312 313 313 313 311 310 309 307 307 308 308 302 306 307 308 309 307 306 306 306 306 306 307 308 309 310 312 314 314 314
316 316 316 317 318 317 313 308 311 312 314 315 316 316 315 314 313 312 311 312 309 309 306 303 306 304 307 306 306 307 307 306 306 305 306 306 306 305 305 306 306 308 310 312
316 318 319 318 315 308 313 307 308 310 313 314 315 317 317 314 313 313 313 312 309 307 307 307 306 309 305 305 305 306 307 307 306 305 304 304 305 306 304 304 304 304 305 305
318 321 308 311 310 311 309 309 308 312 313 313 313 316 318 315 313 310 312 310 307 308 308 308 305 309 308 306 304 304 306 308 306 305 304 304 303 303 303 304 303 303 303 303
319 318 309 311 312 313 313 312 312 313 313 312 315 313 312 308 309 306 306 308 306 308 305 309 309 309 308 307 304 303 304 305 308 306 305 304 304 303 303 302 302 301 303 303
319 318 313 313 311 312 313 313 312 312 312 313 312 309 309 309 308 309 310 305 303 305 307 310 310 308 308 306 303 303 305 304 307 307 306 305 303 303 303 303 302 302 300 300
317 317 315 315 313 313 313 313 313 312 312 308 308 309 311 307 308 309 306 305 304 307 306 310 310 308 308 305 303 303 304 304 305 305 306 306 304 303 303 302 302 301 301 299

GFSNW_850_thetae_042.txt.gz
Theta_e
306 307 306 306 307 309 308 303 297 306 309 306 301 302 303 306 306 307 306 305 304 305 306 307 306 308 309 310 310 311 311 313 315 315 316 317 316 321 324 330 326 318 320 328
307 307 307 307 307 307 306 304 305 306 307 304 302 303 305 307 307 306 307 307 305 304 305 306 307 308 309 310 310 310 309 311 315 315 315 313 317 320 321 318 326 328 332 328
307 307 307 307 307 307 306 305 302 305 305 304 303 304 305 307 308 309 309 306 305 304 305 305 305 307 310 310 308 309 310 311 312 314 315 312 312 313 319 319 326 329 329 328
307 307 307 308 307 307 305 305 302 304 302 302 304 305 304 307 309 308 308 307 308 308 305 303 304 305 306 308 308 309 307 312 311 310 311 311 311 312 313 315 318 326 324 324
307 308 308 307 307 305 305 306 306 305 304 305 305 305 307 307 308 308 309 309 309 308 309 307 305 304 303 305 307 308 308 310 312 310 309 310 311 313 314 315 318 318 319 319
308 309 308 307 306 306 305 305 305 304 306 306 306 307 307 307 307 307 307 309 309 310 308 307 305 304 304 304 307 308 308 310 310 309 311 313 315 317 323 325 325 324 321 325
309 308 307 307 307 306 306 306 306 306 307 306 307 307 307 308 308 308 306 307 307 307 308 307 307 305 304 304 305 306 308 309 309 310 310 325 322 320 324 323 321 323 325 326
306 306 307 307 307 307 306 307 307 306 305 306 307 308 307 307 306 307 307 307 308 308 307 306 301 303 305 304 306 307 307 308 310 310 313 324 323 320 320 322 322 318 321 324
311 311 311 309 308 307 307 307 307 307 306 307 307 307 307 307 306 307 307 306 307 307 306 307 309 308 311 310 308 308 308 307 310 312 317 333 321 318 318 319 324 318 318 322
311 311 310 308 307 308 307 308 308 307 306 307 307 307 307 306 305 305 304 306 306 306 307 308 309 310 307 312 313 311 311 310 309 314 318 324 317 318 316 325 321 315 318 319
311 311 310 308 308 308 308 308 309 308 308 308 308 308 307 307 306 306 307 305 306 306 308 309 308 310 310 312 309 312 313 314 319 319 327 329 317 315 318 314 313 313 314 317
311 311 311 309 308 308 308 309 308 308 308 307 308 308 308 308 308 308 305 306 307 306 307 307 307 310 309 310 313 310 313 311 312 313 317 311 315 312 312 312 312 312 312 316
312 313 311 310 309 310 309 308 307 308 306 307 308 308 308 308 308 308 308 307 308 308 305 305 307 309 307 310 311 311 309 308 311 312 310 311 313 311 310 311 312 313 314 316
312 313 312 311 310 310 309 309 308 307 307 306 310 309 308 307 307 308 308 308 308 307 306 305 307 309 305 309 308 310 309 308 308 310 309 310 313 310 310 311 312 315 315 315
312 312 313 312 311 311 310 310 310 308 308 307 310 309 308 307 307 308 308 307 307 307 306 304 307 306 305 305 307 308 308 309 310 311 309 309 309 311 312 311 311 313 315 315
315 314 313 313 312 312 312 313 311 310 309 308 305 310 311 309 308 307 307 307 306 305 304 304 304 303 305 308 309 308 308 308 308 309 309 311 312 312 311 311 312 312 313 315
314 315 315 315 314 313 312 312 312 310 309 309 311 309 311 310 310 309 308 307 306 304 303 303 303 304 303 305 308 308 308 307 307 308 308 309 310 310 311 310 310 311 311 313
316 315 314 314 316 315 314 314 312 311 309 310 311 314 312 311 310 308 308 307 306 305 304 305 304 305 303 307 308 307 307 307 307 307 307 308 311 311 311 309 310 310 310 310
316 317 316 316 317 316 315 313 311 311 310 310 309 309 316 312 310 309 307 307 306 306 306 305 305 305 307 307 308 308 307 307 306 306 307 309 309 310 309 309 310 310 309 309
315 316 317 318 317 316 314 313 311 312 310 310 307 311 311 313 312 311 309 308 307 308 306 306 302 303 306 307 308 307 306 305 305 306 305 306 307 306 308 309 311 310 309 310
316 315 316 316 315 315 313 313 311 312 310 311 311 311 311 313 313 312 310 309 308 307 307 307 303 302 304 305 306 308 306 305 305 305 305 305 305 305 305 305 307 309 310 312
315 315 316 316 318 315 312 307 309 309 312 313 314 314 313 313 313 312 311 311 304 306 305 301 306 307 307 306 305 308 306 305 304 304 304 304 304 304 304 304 305 306 307 308
316 318 319 316 313 306 311 305 306 308 311 312 313 315 315 313 312 312 312 309 308 305 306 305 305 308 309 307 306 305 307 305 304 304 303 302 302 302 302 303 304 303 304 304
317 320 309 309 309 310 308 308 307 311 311 312 310 314 315 314 310 307 310 306 305 306 298 301 304 309 308 307 306 303 305 307 306 305 303 303 303 301 301 300 300 300 303 303
317 318 309 310 312 312 312 312 311 312 311 311 313 310 309 307 308 304 304 307 305 307 302 303 309 309 306 306 305 303 304 305 307 306 305 303 302 303 303 302 301 299 300 301
318 319 313 312 311 311 312 313 312 312 311 311 310 308 308 308 306 308 309 306 302 304 304 308 307 310 307 306 305 302 304 304 306 306 306 305 304 302 302 302 303 302 299 299
317 316 316 314 314 314 313 313 313 312 311 307 306 308 310 305 307 309 305 305 304 306 306 306 309 309 308 307 305 302 304 304 304 304 304 304 306 305 304 302 300 300 301 299

GFSNW_850_thetae_045.txt.gz
Theta_e
307 307 308 309 308 308 308 305 304 305 308 310 305 309 307 306 307 307 308 307 307 307 307 308 308 308 307 310 311 311 311 312 311 308 309 312 314 319 324 330 332 330 330 328
308 308 308 308 308 308 307 304 304 305 308 310 309 306 307 307 308 309 309 308 307 307 307 307 308 308 309 310 310 311 312 311 309 306 310 313 315 317 319 324 328 333 332 329
308 307 308 308 308 308 306 305 308 306 305 304 305 304 307 308 307 309 309 309 307 306 306 307 307 308 311 310 309 310 310 311 309 307 309 314 315 317 317 321 328 331 332 329
308 308 308 308 307 307 306 305 305 304 308 307 305 305 305 308 309 309 309 310 308 309 309 307 307 307 307 310 309 310 310 310 309 310 309 310 311 313 314 316 322 330 331 333
308 308 308 307 306 305 306 306 306 304 305 304 305 305 307 307 307 307 308 309 309 309 311 309 309 307 308 308 309 310 309 310 309 309 307 309 312 313 314 315 317 322 326 330
306 306 306 307 306 306 306 305 305 305 306 306 306 308 307 308 308 307 307 308 304 307 308 307 308 308 307 307 308 309 310 309 309 309 308 312 316 314 315 317 320 322 325 328
310 310 309 308 307 306 307 306 306 306 307 306 307 307 307 308 308 308 307 308 307 306 307 307 308 308 308 307 308 308 309 309 309 309 309 317 317 322 317 325 325 326 328 330
311 311 310 308 307 307 307 307 307 306 307 307 307 307 307 308 307 306 306 307 307 307 307 309 308 307 308 308 309 309 308 309 310 311 315 316 325 323 323 328 324 321 325 329
311 310 309 308 308 308 307 307 307 307 306 308 307 307 307 307 306 306 306 306 306 307 308 310 310 310 310 310 309 308 309 309 310 310 315 323 323 319 319 322 330 318 321 324
311 311 309 308 308 308 308 308 308 307 306 307 307 308 308 307 306 305 306 306 307 306 308 310 310 311 307 313 310 309 311 310 310 310 312 312 317 318 318 331 325 315 317 320
312 311 310 309 309 308 308 308 309 308 308 307 307 308 307 307 307 307 306 307 307 307 309 311 310 311 311 312 309 311 310 311 311 311 313 315 312 317 322 317 314 315 316 317
313 312 311 309 309 309 309 308 308 307 308 308 308 308 308 308 308 308 307 307 307 307 307 308 308 310 310 312 313 309 313 309 312 311 312 307 312 313 313 313 314 314 314 315
313 313 311 310 309 309 309 308 308 308 307 308 308 308 307 306 307 308 307 308 308 308 305 306 307 309 308 311 311 310 309 308 309 310 310 311 312 312 312 312 312 313 314 314
313 313 312 311 310 310 310 309 309 308 308 310 310 308 308 306 307 308 307 308 307 307 306 306 308 309 305 309 307 309 308 308 308 311 310 310 311 311 312 313 312 313 315 314
313 313 313 312 312 312 311 312 310 309 308 312 311 309 308 307 307 307 306 306 306 307 307 307 307 305 305 307 308 308 308 309 309 311 309 310 311 312 312 312 312 312 312 315
315 315 314 313 312 312 311 312 312 311 309 309 313 310 310 310 309 308 307 307 306 305 306 305 306 305 305 309 310 307 308 308 306 308 307 309 310 310 311 310 311 310 311 311
315 314 315 314 315 314 313 312 312 311 309 309 314 315 312 311 309 309 308 307 307 305 306 307 306 306 304 307 308 308 308 308 307 307 307 308 311 311 309 309 310 310 311 312
315 315 314 314 314 315 314 314 313 311 309 309 315 317 313 311 311 309 309 308 307 306 307 307 306 307 306 309 308 309 307 307 306 306 306 307 309 310 309 310 310 311 310 310
315 314 316 315 316 316 315 313 311 310 310 311 309 315 319 312 310 309 308 307 309 306 310 308 307 307 309 309 308 308 307 306 306 305 305 305 305 306 307 309 310 310 310 311
316 315 316 318 317 314 312 312 311 311 310 310 308 310 317 313 311 310 309 308 308 309 309 307 305 311 306 306 307 308 307 306 305 304 304 304 304 304 304 305 306 307 309 311
315 315 315 315 315 314 313 313 312 313 314 310 310 310 314 313 316 314 310 310 310 308 308 310 308 312 309 306 304 307 306 305 304 304 304 304 303 303 303 303 303 305 306 306
315 315 315 316 317 314 314 312 311 314 317 313 316 316 312 313 312 313 312 312 310 311 307 309 314 312 309 307 304 306 306 305 303 303 303 302 302 302 302 302 302 303 304 304
316 317 319 314 313 313 314 314 317 314 313 312 313 314 315 312 312 313 313 313 313 308 309 312 312 310 308 307 306 303 306 306 305 303 303 302 302 302 301 301 301 301 303 303
316 319 316 314 315 314 315 315 314 313 311 311 310 314 316 314 314 313 314 310 310 310 311 314 311 309 306 307 305 303 303 306 306 305 303 302 302 302 303 303 301 301 301 301
317 318 316 315 314 311 312 311 311 312 311 310 313 312 311 312 312 310 310 310 310 311 311 311 310 308 306 306 306 303 303 304 306 306 305 305 303 303 302 302 302 302 300 301
317 318 317 314 313 316 313 313 313 312 311 310 309 312 313 312 311 311 311 311 311 311 311 309 307 309 307 307 307 303 304 304 305 305 305 306 305 304 303 302 300 299 301 300
318 318 316 316 314 315 315 314 313 312 311 313 310 312 312 310 311 311 311 312 312 308 308 306 308 308 306 304 304 303 303 304 304 303 303 303 303 301 302 301 300 300 299 299

GFSNW_850_thetae_048.txt.gz
Theta_e
309 309 309 309 308 308 310 309 311 308 310 314 313 315 312 308 311 310 311 310 311 311 311 311 312 312 311 311 311 311 312 313 314 312 312 313 314 322 325 328 330 330 332 333
308 309 309 308 307 308 308 311 309 309 312 316 315 312 311 310 311 312 312 311 311 311 311 311 310 310 309 310 310 311 312 312 313 311 311 312 313 315 320 324 327 331 333 333
308 307 307 306 307 308 308 311 315 312 310 308 309 309 310 311 309 311 311 312 311 311 311 310 310 309 310 310 309 310 309 310 311 311 312 311 314 316 318 322 326 328 329 330
306 306 306 307 307 308 309 310 311 308 310 309 309 309 309 309 310 310 309 311 311 312 312 312 310 309 309 309 309 311 311 314 311 311 310 310 310 310 314 319 322 325 326 328
310 310 309 309 309 308 309 311 310 307 307 306 309 309 310 310 309 309 309 310 310 310 312 312 311 310 310 310 311 311 311 313 311 311 310 310 310 309 310 313 316 320 322 325
311 311 310 309 308 308 309 306 306 307 306 308 309 309 309 309 308 308 308 309 309 308 309 309 309 310 310 311 311 312 312 313 312 311 309 309 309 310 311 312 315 318 322 325
310 311 310 308 307 308 308 307 306 308 310 309 309 309 309 308 309 309 308 308 309 309 308 309 309 309 310 310 310 309 312 312 313 311 309 311 310 311 312 313 314 318 321 323
311 311 309 308 308 308 308 307 307 307 310 308 309 309 309 308 308 308 308 308 308 308 308 310 312 311 310 311 311 310 310 311 311 312 311 310 311 313 317 315 316 318 323 324
312 311 309 308 308 308 308 308 307 307 309 310 309 308 309 309 309 310 309 308 308 308 309 311 312 314 312 311 311 310 310 312 313 312 311 312 314 310 308 319 323 326 327 330
313 312 311 309 308 308 308 308 308 308 309 310 310 309 309 308 308 308 309 309 309 308 310 312 313 313 311 312 313 311 313 314 313 311 312 311 310 309 308 322 328 323 324 327
313 311 311 310 309 308 309 309 308 308 309 310 310 309 310 308 309 309 308 311 310 308 311 312 313 312 312 311 311 311 311 311 312 311 311 312 310 308 316 321 317 316 318 324
313 311 310 310 309 309 309 310 308 308 308 311 310 310 309 309 309 308 309 309 310 308 308 309 309 311 312 312 315 307 312 310 313 311 313 310 305 306 313 314 316 315 316 320
314 312 310 310 310 309 309 309 309 308 311 313 312 311 310 309 309 309 310 311 310 310 306 307 308 310 308 313 313 310 307 304 309 308 309 305 309 310 312 314 314 314 315 316
313 313 311 310 310 310 311 310 309 309 311 314 312 309 310 309 309 308 309 310 309 309 307 308 310 310 307 310 309 308 306 307 308 307 305 307 310 309 312 313 313 313 314 315
315 313 313 313 313 312 312 311 311 311 310 315 313 311 310 310 310 310 309 309 310 310 311 310 309 306 306 308 309 309 308 308 309 310 306 307 307 310 312 313 312 312 313 314
314 315 314 314 314 314 311 315 312 312 309 313 316 312 312 311 311 311 311 309 309 310 310 309 309 307 307 311 311 310 308 307 306 307 307 309 310 310 310 312 312 312 313 314
315 314 314 314 314 314 314 315 313 313 311 313 318 318 313 312 312 311 312 311 310 309 309 309 309 309 309 310 311 309 308 306 306 305 306 307 307 307 309 312 312 312 311 312
315 315 314 314 313 314 315 314 313 312 311 312 318 319 318 313 314 312 310 314 312 309 310 310 309 309 309 311 308 309 308 306 306 306 305 306 306 306 306 307 309 311 312 313
314 315 313 314 314 313 314 313 311 311 311 316 315 320 321 313 314 311 313 313 315 311 312 311 310 310 310 310 308 309 308 306 305 306 305 306 306 305 304 305 305 306 306 308
315 315 314 318 316 314 313 312 312 311 312 312 314 314 319 316 315 315 313 311 312 313 312 311 311 311 309 307 307 308 308 306 305 305 304 304 304 305 305 304 304 304 304 306
315 317 319 316 315 315 313 317 317 317 319 317 316 315 318 316 317 315 312 312 312 312 313 313 313 312 311 308 307 308 308 307 305 305 304 304 304 304 304 304 304 303 304 304
316 315 314 315 315 318 318 317 316 317 317 315 316 317 316 316 315 315 314 314 313 314 311 312 314 314 310 309 307 307 309 308 306 305 305 304 304 304 304 303 303 303 302 302
315 317 320 319 318 320 317 322 318 316 314 314 314 316 317 315 314 314 315 316 315 312 313 313 314 311 309 309 307 306 307 309 308 307 306 305 305 305 304 304 303 303 303 302
320 322 320 319 318 318 318 318 317 314 314 314 314 317 317 316 317 316 316 315 313 313 314 313 311 311 309 308 307 306 305 307 308 308 307 306 305 305 305 304 304 303 303 302
321 321 321 319 318 317 317 317 315 315 314 314 315 316 316 315 315 313 312 313 313 313 314 312 310 310 310 309 308 306 305 305 307 308 307 307 306 306 305 304 304 303 303 303
320 321 321 319 319 319 318 318 318 316 314 314 313 313 314 314 314 313 313 312 313 313 312 310 309 310 310 309 308 307 305 305 306 306 306 305 305 304 304 303 302 303 303 303
322 320 319 320 319 319 319 318 317 315 315 316 314 315 314 312 313 313 310 313 312 310 309 308 309 309 308 307 307 307 305 305 306 306 305 304 304 303 302 302 302 302 303 304

GFSNW_850_thetae_051.txt.gz
Theta_e
307 306 306 307 309 311 313 315 317 313 314 317 317 320 317 312 315 314 314 314 315 315 316 316 316 316 316 314 314 314 314 315 316 317 317 316 317 320 321 327 332 331 331 333
307 308 308 308 309 310 312 316 315 314 315 319 319 316 315 314 315 315 315 315 315 315 314 315 315 315 314 312 313 313 314 315 315 317 317 316 315 317 321 324 325 331 332 331
310 311 310 310 310 311 313 315 319 316 313 313 315 316 315 315 312 313 313 314 313 314 314 314 314 314 313 311 312 311 311 314 316 317 318 315 317 315 317 321 325 327 329 332
310 311 311 311 311 311 314 314 315 313 316 314 314 314 314 314 313 312 312 313 313 313 315 314 314 314 313 312 311 312 312 313 314 314 314 314 314 315 316 317 320 322 326 329
310 311 311 311 311 312 313 314 313 312 312 312 313 312 312 311 311 310 312 312 312 312 313 313 314 313 315 314 312 312 312 314 314 316 314 313 313 313 314 314 314 319 323 325
311 311 311 310 310 312 311 310 310 312 309 312 312 311 311 311 311 311 310 310 311 311 312 311 311 312 311 313 315 315 314 314 315 316 315 313 313 313 313 313 314 313 315 320
312 311 309 309 309 310 310 310 311 313 315 313 312 311 310 311 311 311 310 310 310 311 309 309 310 310 311 311 312 312 314 316 317 317 314 315 313 313 312 312 313 314 315 315
312 311 309 309 308 309 311 310 312 312 314 311 311 310 311 310 311 311 311 310 309 309 310 313 314 314 312 313 313 313 313 316 318 317 315 313 312 312 312 316 315 317 318 319
312 311 310 309 308 309 312 312 308 310 314 314 311 312 311 311 312 313 311 311 311 311 312 312 314 315 316 314 314 313 313 314 316 315 315 315 313 313 313 312 317 315 317 319
312 311 310 309 308 309 311 310 310 311 314 313 312 312 312 310 311 310 312 311 312 310 311 313 316 315 314 314 314 314 314 317 316 317 315 314 312 312 311 313 315 316 320 320
312 311 311 310 309 309 311 312 310 312 315 314 313 312 311 312 311 313 312 313 312 310 312 314 314 314 314 311 312 315 314 315 316 314 315 316 312 312 313 313 310 310 317 320
313 311 311 311 310 309 312 312 309 309 310 314 314 313 312 312 312 312 311 313 311 309 310 310 309 312 312 312 314 310 315 314 314 314 314 313 311 309 309 307 308 309 319 327
313 312 310 311 311 310 310 313 311 311 314 316 315 313 312 312 311 311 313 313 311 311 310 309 308 310 309 313 312 311 309 307 308 308 311 310 309 306 307 307 309 312 316 321
315 313 312 310 311 311 311 314 314 314 315 316 316 313 314 312 312 312 311 311 311 311 311 311 310 310 307 310 310 308 307 306 308 308 307 304 308 309 308 310 312 313 315 317
315 315 313 314 314 313 313 314 314 315 315 318 317 315 315 313 313 313 313 311 311 312 312 312 312 308 307 307 308 308 307 307 307 309 304 307 307 306 308 311 311 313 317 315
315 315 315 315 315 315 313 315 316 315 315 316 320 318 316 315 315 313 314 311 311 312 311 311 311 310 310 312 311 310 309 307 307 304 304 304 305 303 309 311 312 313 313 316
315 315 314 314 314 314 315 317 315 314 314 315 318 320 319 316 316 316 313 313 313 312 312 311 311 310 311 312 313 310 308 307 308 307 306 305 304 304 306 310 310 312 313 314
314 315 315 314 314 314 315 315 315 314 314 316 319 320 320 318 318 317 313 315 314 313 313 312 311 310 309 312 309 309 308 307 307 306 307 305 304 303 304 305 305 307 308 309
314 314 315 314 314 316 316 315 313 311 314 317 318 323 321 318 318 317 316 315 317 314 315 313 311 312 313 312 309 309 308 307 307 306 306 306 306 306 306 304 304 303 305 307
315 315 317 320 317 316 314 313 313 313 314 316 320 319 321 318 318 317 316 315 316 317 315 313 314 312 311 309 309 309 309 307 307 307 306 306 306 306 306 305 304 304 304 304
317 320 321 318 317 315 316 320 320 319 320 320 319 318 321 318 320 318 316 316 315 315 317 315 317 315 313 310 309 309 309 308 307 307 307 306 306 305 305 305 305 304 304 304
317 317 318 318 317 320 321 320 318 319 320 317 317 317 318 319 318 317 316 316 316 317 313 315 315 315 312 311 309 308 309 309 308 307 307 306 306 306 306 305 305 304 304 303
318 320 322 322 320 323 320 323 322 319 317 316 316 317 320 318 317 316 318 317 318 314 314 317 315 314 312 310 309 308 308 308 309 309 308 307 307 306 306 305 305 305 305 303
322 323 324 322 322 321 320 320 319 317 316 316 316 317 319 319 319 318 319 317 314 315 318 314 315 314 311 311 310 309 308 308 309 309 309 308 307 306 306 305 305 304 304 305
322 322 324 321 320 319 320 319 320 319 318 318 317 317 318 319 318 316 314 316 316 315 316 315 313 312 312 311 310 309 308 307 308 308 307 308 306 305 305 305 305 305 304 304
322 322 321 320 320 321 320 320 320 320 319 318 317 318 317 315 313 313 311 313 314 315 314 312 312 312 311 310 309 309 308 307 307 307 307 307 306 305 304 304 305 305 305 304
322 322 321 320 321 321 320 320 321 319 319 319 318 318 314 314 314 313 312 314 315 312 311 311 311 310 310 308 308 307 308 307 307 307 306 305 306 305 304 304 304 304 305 305

GFSNW_850_thetae_054.txt.gz
Theta_e
310 311 311 311 311 312 315 319 319 316 316 319 320 321 319 316 318 316 317 317 317 317 318 318 318 319 318 316 316 316 317 315 317 318 320 320 319 320 320 322 331 331 331 331
310 311 311 311 311 312 314 319 318 317 318 321 321 319 318 316 316 317 316 317 317 317 317 317 317 317 316 315 315 316 316 316 316 317 318 318 318 317 318 319 321 327 332 332
311 311 312 312 312 313 315 319 321 318 316 316 317 318 317 317 314 315 314 315 315 315 316 316 317 317 316 315 313 313 313 315 317 318 318 318 318 318 317 317 322 323 324 329
312 312 312 312 312 313 316 317 317 315 318 316 316 317 316 315 315 313 313 315 315 315 315 316 315 315 316 315 314 312 313 314 315 315 315 316 316 316 317 317 318 322 324 325
313 312 312 312 313 315 314 315 317 314 314 315 316 314 314 313 313 313 314 314 312 312 313 314 314 314 314 315 316 315 314 314 314 315 315 316 317 316 316 317 317 317 319 322
313 312 311 310 312 314 314 314 314 315 313 314 315 314 313 313 313 313 312 312 312 312 313 311 311 311 312 314 314 316 316 315 315 316 314 315 317 317 316 316 316 317 317 320
312 310 310 309 312 314 313 313 315 317 315 314 314 313 312 313 312 313 312 312 311 311 311 311 311 311 311 311 313 313 314 317 318 318 316 319 317 317 317 315 316 316 316 317
311 310 309 309 311 313 314 313 314 314 316 314 314 313 313 313 313 313 312 312 312 312 312 314 314 314 314 314 313 313 313 315 317 318 317 315 314 315 315 317 316 315 316 317
311 310 309 310 310 312 314 311 313 315 317 316 313 314 313 313 314 314 313 313 312 312 312 313 315 317 315 315 314 314 314 315 319 318 317 316 314 314 313 314 315 315 314 314
311 311 310 309 310 311 314 314 313 316 318 315 314 314 315 313 313 314 313 313 313 312 312 314 316 315 313 315 314 314 316 317 319 318 318 314 313 313 313 314 314 315 316 316
312 311 311 310 310 310 314 315 311 316 318 315 314 314 315 314 314 315 313 315 314 313 313 312 313 312 313 313 312 314 314 319 317 318 318 317 314 314 315 315 314 313 312 312
313 311 311 311 311 310 313 316 314 311 315 316 316 315 313 314 313 314 314 314 313 312 312 312 311 313 312 312 315 311 315 311 312 312 316 312 310 311 311 311 311 310 310 311
314 313 310 311 311 311 311 315 316 315 317 318 317 316 315 314 313 313 313 313 313 312 312 311 310 312 310 312 312 311 309 306 309 309 311 309 308 307 307 308 308 308 309 310
315 315 313 311 311 312 313 314 316 316 317 318 318 316 316 315 314 313 313 312 313 313 311 312 311 311 309 310 310 308 308 308 307 308 307 305 307 306 306 306 307 307 309 313
315 315 315 314 314 314 315 313 316 316 316 319 318 317 316 316 315 315 315 314 313 313 315 315 315 311 310 309 309 307 307 308 308 308 305 303 304 304 303 306 310 310 313 314
315 315 315 315 315 315 316 317 317 316 316 316 319 318 318 317 317 317 316 315 313 313 314 314 313 312 312 314 313 310 309 308 306 306 305 305 303 303 302 306 309 312 313 313
314 314 315 314 314 314 316 319 317 316 315 317 318 320 321 319 318 317 317 316 315 315 314 314 312 312 311 313 314 310 309 309 308 307 305 305 303 303 302 303 305 308 309 310
314 314 315 314 313 314 316 318 316 315 315 317 320 320 321 321 319 319 317 316 316 316 314 314 312 312 312 314 311 311 309 308 308 307 306 306 305 305 303 302 302 303 305 308
314 314 315 314 314 318 318 317 315 313 315 319 320 322 320 320 319 318 317 316 318 317 315 315 313 316 311 313 311 311 309 308 308 307 307 307 306 306 304 303 302 302 303 303
314 317 317 321 320 319 317 316 315 315 316 316 320 320 322 320 320 319 318 316 317 319 317 315 318 311 312 312 311 311 310 309 308 308 307 307 307 306 306 305 303 302 302 301
320 322 323 322 319 318 319 321 322 323 322 321 321 321 323 319 321 321 318 318 317 317 318 319 319 317 314 311 310 310 310 309 308 307 307 307 307 307 306 306 305 303 301 301
320 317 315 320 320 322 323 325 320 321 322 320 319 319 319 320 320 318 318 318 318 318 316 318 316 317 313 312 310 310 310 310 310 309 308 308 308 307 306 306 306 305 304 303
318 321 323 323 322 321 323 323 322 324 320 319 318 320 321 321 319 317 318 318 318 317 317 321 316 315 313 312 311 311 310 310 311 310 309 309 308 308 307 306 306 306 305 303
323 324 322 323 323 324 323 323 324 322 321 319 317 319 320 321 317 316 318 318 317 317 317 317 318 316 313 312 312 311 310 310 311 310 310 309 307 307 306 307 306 306 306 304
322 323 322 323 321 322 322 322 321 322 322 321 320 319 320 317 317 315 315 315 315 317 318 317 314 313 313 312 311 310 310 309 310 309 308 308 307 306 306 307 307 306 306 305
321 321 322 322 323 323 322 322 322 320 320 320 319 320 319 317 316 315 315 315 315 317 316 314 314 313 312 310 309 309 309 309 309 309 309 307 307 306 306 305 306 307 307 306
323 323 322 322 323 323 323 322 321 319 319 320 318 319 319 317 316 315 314 315 316 314 312 313 314 313 312 310 309 309 308 309 309 307 307 308 307 307 306 306 306 306 307 307

GFSNW_850_thetae_057.txt.gz
Theta_e
311 312 312 312 312 314 316 318 321 317 317 319 321 320 318 316 317 317 317 317 317 317 317 316 317 317 317 316 316 315 314 313 312 313 315 316 316 319 318 318 321 324 328 329
313 313 312 312 313 315 316 318 320 317 318 319 319 318 316 315 315 315 315 316 315 315 316 316 317 317 316 315 315 315 312 313 314 313 313 316 316 316 314 313 312 315 318 325
313 313 312 312 313 315 316 318 320 318 316 316 316 317 316 316 313 313 314 315 315 314 313 314 316 316 316 316 315 314 313 312 313 314 314 314 315 315 315 314 311 313 316 319
312 311 311 312 314 314 316 318 316 315 316 315 315 315 313 313 313 313 313 315 313 312 312 313 314 314 315 315 316 315 312 312 312 312 313 313 314 314 315 314 314 314 314 317
311 310 310 311 314 315 314 315 316 314 314 315 315 314 314 313 313 314 313 313 312 312 312 312 312 311 311 313 313 313 313 313 312 312 313 313 314 315 316 316 315 315 315 315
310 309 309 312 314 315 315 316 316 316 314 314 313 313 314 314 313 313 312 313 313 313 312 312 311 311 311 310 310 313 314 314 315 314 314 314 315 314 315 315 316 314 314 314
310 309 309 312 314 315 315 315 316 316 315 313 314 313 313 313 312 313 312 312 313 312 312 312 312 312 312 311 311 310 312 314 316 314 314 316 315 314 315 316 316 315 315 314
311 310 310 310 313 311 312 314 315 316 317 315 315 314 314 314 313 313 313 313 313 312 312 312 313 315 315 315 313 313 312 312 314 312 314 313 313 313 313 314 314 315 315 315
311 310 310 310 310 313 313 313 316 317 318 315 315 315 314 314 313 314 314 313 313 312 311 314 315 316 314 313 313 312 312 313 316 315 314 314 311 312 312 313 312 313 315 315
311 311 311 310 311 314 314 312 313 317 319 315 315 314 315 314 314 315 314 314 313 312 311 312 311 314 311 311 312 312 311 313 315 316 318 316 312 312 314 315 314 313 313 314
314 311 311 311 311 311 315 316 314 315 318 316 315 314 315 315 314 315 314 315 314 312 311 310 310 310 310 310 309 310 311 312 315 314 317 315 310 311 314 311 309 309 310 311
314 313 311 312 312 312 314 318 317 315 315 317 317 317 316 314 314 314 314 314 313 312 312 311 310 310 310 311 311 310 310 311 310 309 311 309 309 308 307 307 307 307 308 309
315 315 313 310 311 311 313 314 316 317 317 318 318 318 317 315 314 313 314 314 313 312 312 311 310 309 310 311 312 311 310 307 308 306 309 308 307 306 306 304 305 305 307 307
314 315 315 313 312 313 314 314 316 317 317 318 319 317 316 316 314 314 314 313 313 313 311 312 310 309 309 310 310 309 308 307 308 307 307 306 306 305 304 303 304 305 307 309
314 315 315 315 315 315 316 317 314 316 316 317 317 318 317 317 316 315 315 314 315 314 314 313 314 311 309 308 309 308 306 308 308 307 306 306 305 304 303 302 303 304 307 311
313 314 315 315 315 315 315 318 317 316 316 317 318 318 319 318 317 317 317 316 316 315 314 315 314 313 312 313 312 311 310 309 308 307 307 306 305 304 304 303 302 303 304 307
314 314 314 314 314 314 315 319 318 317 316 316 319 319 319 317 316 318 318 317 316 316 315 315 314 313 312 313 311 312 309 309 309 308 307 306 305 305 304 303 302 301 303 305
314 314 314 314 314 314 315 317 317 316 315 316 319 320 321 319 320 320 319 317 316 316 316 314 313 314 312 313 312 311 309 308 308 308 307 307 306 306 305 304 302 302 302 301
313 314 314 314 314 316 319 319 318 316 315 317 320 323 322 321 320 319 318 317 318 317 317 316 314 313 306 308 311 312 310 309 308 308 307 307 307 307 306 305 304 303 301 301
313 316 319 319 321 320 320 317 314 313 314 315 318 320 321 320 320 319 319 318 318 320 318 315 314 309 310 312 312 311 311 310 308 308 308 307 307 307 306 306 305 303 302 301
321 322 322 322 321 319 319 320 320 320 321 319 318 319 321 318 319 321 318 318 317 319 318 317 314 313 315 312 312 311 311 310 309 308 308 308 308 307 306 306 305 305 303 302
320 319 317 316 322 322 323 324 321 322 322 319 319 320 319 317 320 316 313 318 317 318 316 317 315 314 313 312 312 311 311 311 310 309 309 309 308 308 307 306 306 305 304 304
312 320 322 323 323 323 324 322 320 322 322 321 321 320 319 320 317 314 317 318 316 313 313 312 315 314 313 312 311 311 310 310 311 310 309 308 308 308 307 307 306 306 304 305
320 325 315 325 326 324 324 324 324 320 320 322 321 321 321 319 318 317 316 315 316 318 317 315 316 313 313 312 312 311 310 310 311 310 309 309 307 307 306 307 306 306 306 305
324 324 318 324 323 322 322 322 322 322 322 321 318 321 319 318 317 316 315 316 316 317 317 316 314 313 312 312 310 310 311 310 309 309 308 307 308 307 307 306 307 307 306 306
323 321 323 322 323 323 323 321 320 321 319 320 320 320 319 317 316 316 316 315 316 316 315 314 314 313 312 311 310 309 308 309 309 309 308 308 307 307 307 307 306 307 307 306
322 323 323 323 324 322 319 322 322 320 318 321 319 320 319 317 317 316 315 316 316 314 314 313 312 313 312 310 310 309 308 308 309 307 308 307 307 306 305 306 306 307 307 306

GFSNW_850_thetae_060.txt.gz
Theta_e
313 312 312 311 316 316 318 320 314 317 318 316 314 310 312 314 313 314 312 313 313 313 313 314 314 315 314 314 314 313 310 308 311 312 312 313 312 311 309 315 318 317 322 323
311 310 311 311 315 317 318 319 319 315 317 311 310 312 313 312 312 312 312 312 311 310 311 313 314 315 315 314 313 313 310 308 311 311 310 310 312 312 311 308 307 311 313 314
310 310 311 314 313 315 317 317 311 315 315 314 311 311 311 312 312 312 312 310 310 309 309 308 311 312 313 313 316 316 311 307 309 311 312 311 312 312 312 309 308 309 311 313
309 309 310 312 314 313 316 315 312 313 311 311 310 311 311 312 312 312 312 311 311 309 309 309 310 309 309 311 313 312 308 309 310 310 311 312 312 312 313 312 312 312 311 312
310 309 310 311 313 315 315 315 315 314 312 312 311 309 310 312 312 311 311 312 311 309 310 311 311 308 308 309 308 309 308 312 311 311 312 312 313 313 314 313 313 314 313 311
310 310 310 311 312 313 315 316 317 315 311 310 309 310 311 312 311 311 312 312 311 310 311 312 311 311 310 309 308 307 310 310 310 313 311 312 312 312 313 313 313 313 313 312
310 310 310 310 311 312 316 315 315 314 310 310 311 313 313 313 311 312 312 312 311 312 312 312 311 312 311 310 309 307 308 309 309 311 312 312 310 310 311 312 313 313 313 314
311 310 310 311 311 313 315 316 317 316 309 313 313 313 313 312 312 312 313 313 312 312 311 307 308 309 309 311 309 307 307 307 308 312 309 310 312 311 312 313 312 314 314 314
311 311 311 311 312 311 315 315 316 317 316 311 314 313 313 309 309 310 313 313 312 311 308 307 310 311 310 310 310 307 307 308 309 312 313 312 311 309 310 312 310 309 310 310
313 311 311 311 311 313 312 312 314 318 319 314 314 313 312 313 312 309 313 313 312 311 304 310 309 311 309 305 309 309 307 308 309 313 314 314 308 309 310 313 311 308 307 307
314 313 311 312 312 312 316 316 316 314 316 316 316 314 315 314 314 309 313 310 310 307 305 308 308 308 308 307 307 309 309 307 310 308 312 313 307 308 309 308 306 306 305 305
314 315 313 311 311 311 312 316 316 316 316 316 317 317 317 316 313 314 313 311 312 310 306 307 303 308 308 308 308 309 308 306 305 309 306 307 307 306 306 306 305 304 304 304
314 314 315 313 311 311 313 314 316 316 317 316 318 318 319 317 314 313 314 313 312 311 311 308 306 306 305 307 309 308 308 306 306 306 305 305 305 306 305 304 304 303 303 304
312 315 315 315 314 314 315 316 315 316 316 316 318 318 317 317 314 313 313 313 313 312 311 309 307 307 307 301 305 308 305 306 307 307 306 306 306 305 305 304 304 304 303 304
312 313 315 315 315 315 315 317 315 316 316 315 316 315 317 316 316 314 314 313 314 313 313 309 309 309 306 307 307 307 307 306 307 305 306 306 305 305 305 304 303 303 303 303
313 314 314 314 315 315 315 318 316 316 315 316 313 316 317 318 317 314 315 315 314 314 314 312 313 312 310 306 309 308 308 308 307 307 308 307 307 305 305 304 303 303 303 303
314 314 314 314 314 314 314 317 318 317 316 315 316 316 319 318 318 316 315 316 316 315 315 313 313 313 311 305 303 310 310 309 308 308 308 308 307 306 306 305 304 303 303 302
313 312 313 314 314 315 315 317 316 317 315 315 316 315 319 318 317 316 318 318 317 317 315 314 312 311 310 304 309 311 310 309 308 308 308 307 307 307 307 306 305 303 302 302
313 314 315 318 316 317 319 318 318 316 316 316 317 316 318 319 318 319 317 317 315 316 315 312 312 305 304 306 310 311 311 309 308 308 308 307 307 307 307 306 306 305 303 302
312 319 320 322 321 320 319 316 315 313 314 314 314 318 316 317 318 316 318 315 317 316 316 314 308 306 308 309 311 311 311 310 309 308 308 307 307 307 307 306 306 305 303 302
318 322 322 319 317 318 318 319 317 316 316 316 317 319 315 318 314 313 315 315 313 314 315 316 311 309 312 311 311 311 312 311 310 309 309 308 308 308 308 307 306 305 304 304
317 317 316 315 318 320 320 320 319 320 318 319 317 318 319 318 318 314 311 315 315 313 311 310 310 308 313 312 311 312 311 311 311 310 310 308 308 308 308 307 306 306 305 305
312 317 320 320 321 318 323 320 318 317 319 320 321 320 319 319 315 313 312 315 314 310 311 309 307 312 312 312 312 311 310 310 310 310 309 308 309 308 307 306 306 306 306 305
314 322 313 320 321 323 323 322 321 321 320 320 320 319 318 318 314 314 315 312 314 315 311 312 311 313 313 312 312 311 311 310 310 310 310 309 309 308 307 306 307 306 306 305
320 323 315 320 322 323 323 320 320 322 322 322 319 318 317 313 313 311 310 314 313 310 309 310 313 312 312 312 310 310 310 309 309 309 308 308 307 307 307 307 307 307 306 304
320 321 320 321 323 321 321 321 321 319 321 322 319 316 314 314 312 314 314 313 309 310 310 313 313 312 312 311 310 310 309 309 309 308 308 308 307 307 306 306 306 307 306 305
324 322 322 322 323 323 322 321 321 321 319 315 315 316 317 313 314 314 311 312 310 313 313 313 312 312 312 310 310 309 308 309 309 308 308 308 307 305 305 306 307 307 306 305

GFSNW_850_thetae_063.txt.gz
Theta_e
310 310 312 312 316 318 318 317 311 315 316 312 309 308 310 313 311 312 311 311 311 312 310 311 313 315 313 314 311 312 309 306 311 311 309 311 311 310 307 311 316 313 318 321
309 310 312 313 312 317 318 317 315 314 316 311 308 310 311 311 310 309 310 309 309 308 309 311 311 313 312 315 314 316 311 307 309 310 308 308 310 310 309 305 303 308 312 314
309 310 311 312 313 316 316 315 310 314 313 311 309 310 310 311 312 311 311 310 308 307 307 306 310 310 310 311 314 316 310 304 307 309 311 309 311 311 310 307 309 309 309 311
310 310 310 311 313 315 315 314 311 311 308 309 309 309 311 312 311 311 311 311 309 308 309 309 309 308 308 309 310 311 306 308 310 309 309 311 311 312 312 312 312 312 311 311
310 310 310 311 312 314 314 315 313 312 310 310 308 307 310 311 311 310 311 311 310 308 309 310 310 309 308 308 307 306 306 311 310 311 311 311 312 312 312 312 311 312 312 313
310 310 311 312 313 315 316 315 315 312 309 308 308 309 311 311 310 311 312 311 309 310 311 311 311 311 310 309 308 306 307 308 308 311 310 310 310 311 312 312 313 312 313 311
310 311 311 311 314 316 314 315 315 313 309 309 309 312 312 312 311 311 311 312 311 312 311 311 310 309 309 308 305 305 307 307 306 309 309 308 308 309 311 311 315 313 314 313
311 311 312 311 312 315 316 317 316 314 308 311 312 312 311 311 311 312 312 312 311 312 311 306 307 306 307 308 306 305 304 305 307 308 305 308 311 310 309 310 312 309 310 309
311 311 311 312 312 311 314 316 317 317 313 310 314 312 311 308 308 309 313 312 312 310 305 303 309 307 307 309 308 305 305 304 306 309 309 312 310 308 308 309 312 307 307 307
314 311 311 311 312 313 312 312 316 318 316 314 313 312 311 312 310 307 310 312 311 309 301 301 300 307 308 302 306 307 303 303 304 312 315 312 308 307 308 312 309 305 306 305
314 314 312 312 312 312 314 316 314 315 314 315 315 314 314 314 313 308 311 309 308 304 303 300 306 307 307 305 307 308 306 304 299 307 308 307 307 307 307 306 305 305 304 304
313 314 314 313 311 311 311 314 315 315 315 315 316 316 317 317 314 313 312 309 310 308 302 302 304 307 307 305 299 309 308 302 301 303 303 305 306 305 305 305 304 304 303 303
311 314 314 315 313 312 314 315 316 315 316 315 316 316 316 317 316 312 313 312 312 311 310 306 301 299 303 307 307 308 307 305 301 303 303 305 306 306 304 305 304 304 303 303
311 313 315 315 315 315 315 316 316 315 315 314 316 317 317 317 317 315 313 313 312 312 310 308 302 301 305 299 301 300 303 306 307 306 305 306 306 305 305 305 305 303 303 303
312 314 314 314 314 315 315 316 315 315 315 314 315 314 315 317 316 315 313 313 313 312 311 309 307 307 305 304 305 307 306 304 304 303 305 305 306 306 306 305 305 304 303 303
313 314 314 314 314 314 314 317 315 316 316 316 312 315 314 317 316 315 314 313 313 313 313 311 312 312 309 307 306 306 307 307 307 307 307 307 307 307 307 306 306 306 304 302
312 312 313 313 314 314 314 316 318 317 316 315 314 313 317 319 317 317 313 313 314 314 313 312 314 312 310 308 302 309 310 308 308 308 308 307 307 307 307 307 307 306 305 303
312 312 314 315 316 314 315 317 315 317 316 314 313 312 316 317 317 317 317 317 316 316 315 312 311 310 309 309 308 310 310 310 309 308 308 308 307 307 307 307 306 306 305 303
311 313 319 317 319 318 319 318 318 316 315 315 314 311 314 318 318 317 318 318 316 315 314 314 312 308 309 309 311 310 310 310 309 308 308 308 308 307 307 307 307 306 304 304
311 316 320 320 320 319 318 316 315 315 315 315 312 314 313 316 317 315 316 314 315 316 313 311 309 308 309 309 307 310 310 311 310 308 308 308 307 307 308 307 307 306 305 304
312 319 321 318 318 317 318 317 316 315 314 314 315 316 314 317 314 314 315 313 314 311 309 312 308 308 311 311 310 311 311 311 311 311 310 309 308 307 308 308 307 306 306 305
314 314 315 315 316 318 318 319 318 317 317 319 317 317 317 317 316 316 312 315 313 314 310 309 303 304 311 311 312 311 311 311 311 311 310 310 309 307 307 307 307 306 306 306
312 314 317 318 318 318 321 319 316 318 317 319 318 317 318 317 314 312 311 316 312 309 308 304 303 309 312 311 312 311 311 311 310 310 310 310 308 308 308 307 307 306 306 306
311 319 314 318 318 319 320 319 318 320 320 320 320 319 317 316 312 311 314 310 311 313 311 305 307 312 312 312 311 311 310 311 310 310 310 310 309 308 307 306 306 307 306 305
314 320 315 319 321 322 322 322 321 320 320 321 319 317 316 311 312 309 309 312 313 308 307 307 312 312 312 312 311 312 310 310 310 309 309 308 308 308 307 306 307 306 306 303
313 317 319 319 321 321 321 321 320 320 320 320 318 313 313 313 310 312 312 312 308 308 307 312 313 312 312 312 311 310 310 310 309 309 308 308 308 307 307 306 306 306 306 304
322 323 322 322 321 322 322 322 320 321 320 312 313 315 316 311 312 313 309 309 308 311 312 312 312 312 312 311 311 310 309 309 309 309 309 307 307 307 305 305 306 307 306 304

GFSNW_850_thetae_066.txt.gz
Theta_e
310 310 311 311 312 318 316 315 310 315 317 311 306 307 309 311 310 310 309 310 310 310 309 309 312 312 310 312 312 312 308 307 310 310 308 309 309 310 306 315 317 309 317 320
310 310 310 310 312 316 317 315 313 313 315 309 306 309 309 311 309 309 309 309 307 306 307 310 310 311 311 310 315 315 310 305 307 311 308 308 309 309 307 303 303 309 315 313
310 311 311 311 314 315 316 314 309 312 312 309 308 309 309 310 311 310 310 308 307 306 307 306 309 309 309 309 313 315 309 304 307 308 310 308 311 311 310 306 309 309 310 312
310 311 311 312 314 313 314 313 309 309 307 308 307 307 309 311 310 310 310 309 307 308 308 308 309 308 307 308 309 309 305 310 309 308 310 311 311 312 311 311 309 311 309 312
311 312 312 314 314 313 313 315 312 311 309 309 308 306 309 310 310 309 310 310 309 308 309 309 310 309 308 307 307 305 304 310 309 310 310 311 311 311 311 311 311 311 310 312
311 312 312 315 315 314 314 313 312 312 308 307 307 308 310 311 310 311 311 310 308 310 311 310 310 310 308 307 307 305 306 305 305 308 309 309 310 310 310 311 311 312 312 312
311 312 313 312 314 314 313 313 313 313 309 308 309 311 311 310 310 311 311 311 310 311 310 309 308 308 307 307 305 303 305 305 304 307 306 305 306 308 309 312 313 310 311 310
311 312 312 313 312 313 315 315 313 313 308 309 311 311 310 310 311 311 312 311 311 310 310 305 306 304 307 306 304 303 303 304 305 305 302 307 310 308 307 309 311 308 308 307
313 311 312 312 313 312 312 315 316 315 311 309 313 311 311 307 308 308 312 311 311 309 302 302 307 303 306 308 306 304 303 302 305 303 309 310 309 307 307 308 312 305 306 305
313 313 311 312 312 312 314 313 314 316 314 314 313 311 310 311 309 306 309 311 310 307 299 299 299 300 307 301 304 306 301 302 304 308 310 310 306 306 307 310 308 305 305 304
312 313 314 313 312 311 311 314 315 314 315 315 314 314 314 312 311 307 310 307 307 302 300 299 305 306 307 304 302 305 301 298 298 307 308 305 306 305 306 305 305 305 304 303
311 314 314 314 313 312 311 314 315 315 316 314 315 315 316 316 315 313 311 308 308 307 301 300 302 306 306 303 298 305 305 300 299 300 301 304 305 305 305 305 304 304 304 303
310 313 314 314 315 314 314 315 316 315 315 314 315 314 315 316 317 313 312 310 311 310 308 304 299 298 303 303 301 304 306 304 299 301 302 303 305 305 305 304 304 304 303 303
311 313 314 314 314 315 315 315 315 315 315 313 313 317 317 317 317 314 312 313 311 311 310 306 300 301 303 300 300 300 302 305 307 306 304 305 305 305 305 305 305 305 304 303
312 313 314 314 314 314 314 315 315 315 315 314 315 314 314 315 316 315 313 313 312 311 310 307 305 305 303 302 302 300 305 303 304 302 305 305 305 306 306 307 307 306 306 306
313 313 313 313 313 314 314 316 315 315 315 315 311 314 314 316 316 315 313 313 312 312 312 311 310 310 308 305 307 305 306 306 307 306 307 307 307 307 306 306 306 306 307 306
312 312 312 312 313 314 314 316 317 316 315 315 312 311 315 317 317 315 314 313 313 313 313 312 312 311 309 308 305 308 309 309 307 307 307 307 307 307 307 307 306 306 305 304
310 310 315 316 316 315 317 317 316 316 316 314 311 310 315 317 316 316 313 313 313 313 314 312 309 309 309 310 310 311 310 310 308 308 308 307 307 307 307 307 307 307 306 305
310 311 317 317 318 318 318 318 317 315 316 315 312 310 313 317 317 317 317 317 316 315 314 313 311 309 310 309 311 311 310 309 309 308 308 308 308 307 307 307 307 307 307 306
309 312 319 320 320 318 317 315 315 315 315 314 312 313 311 315 315 315 315 315 313 316 313 309 306 306 309 311 310 308 309 310 309 309 308 307 308 308 307 307 307 307 306 306
310 319 320 318 318 316 317 317 315 314 313 313 313 313 312 316 313 315 315 310 310 313 307 312 308 307 309 311 311 309 310 310 311 310 310 310 308 309 307 306 306 307 307 306
316 315 314 314 315 317 317 318 318 317 316 316 316 316 316 316 316 315 312 314 313 313 308 310 305 304 310 311 312 312 311 311 311 310 310 310 310 309 308 307 306 307 307 306
311 313 315 317 316 316 320 316 317 318 317 318 317 316 317 316 315 312 312 315 313 308 309 307 302 310 311 311 311 311 311 311 310 310 310 309 310 309 309 308 307 307 307 306
309 316 317 320 316 317 316 318 316 319 319 318 319 318 317 315 313 310 313 309 310 314 311 303 305 312 312 312 312 312 311 311 311 311 310 310 309 308 308 308 307 306 306 306
311 317 312 316 321 321 321 321 321 321 320 320 318 316 315 312 313 309 309 312 313 309 307 305 311 312 312 312 312 311 311 310 310 310 310 310 309 308 307 307 306 306 306 306
310 313 317 319 317 319 320 321 321 320 319 319 317 312 313 313 310 312 312 311 309 308 306 311 312 312 312 312 311 311 310 310 310 309 309 309 308 308 307 307 306 306 306 304
316 319 319 318 318 319 319 321 322 320 318 313 312 314 315 310 312 312 308 309 307 310 312 312 312 312 311 310 310 310 310 309 308 308 308 308 307 307 307 306 305 306 306 304

GFSNW_850_thetae_069.txt.gz
Theta_e
311 312 311 312 315 316 316 315 317 314 316 314 309 313 311 311 311 311 312 312 311 312 313 315 316 316 314 312 315 314 311 314 316 315 312 312 314 314 315 326 326 322 328 323
311 312 312 313 314 315 317 314 313 313 315 315 313 311 311 311 312 311 312 311 310 310 311 316 314 314 311 311 317 315 313 313 316 316 315 313 315 314 313 312 316 322 326 319
312 312 313 312 313 313 316 313 315 312 311 309 312 312 312 312 310 311 311 311 310 312 313 312 313 313 311 310 314 314 312 312 315 316 316 314 316 314 314 315 319 318 318 318
312 312 314 314 312 313 314 312 311 309 313 312 311 311 312 312 312 311 311 312 311 311 313 313 313 312 312 311 310 312 314 316 314 314 313 314 314 314 314 315 315 318 317 317
312 312 313 313 313 312 313 313 312 310 309 309 312 311 312 312 312 312 312 312 312 312 313 312 313 312 312 311 312 311 311 316 314 315 313 313 314 313 313 313 313 314 315 317
311 313 312 313 313 312 312 312 311 312 309 311 312 313 312 312 311 312 312 311 312 313 312 311 310 309 309 309 311 312 313 314 314 315 313 312 312 313 313 314 316 315 316 317
311 312 312 313 313 314 312 313 313 313 314 313 313 312 312 312 312 313 312 312 312 310 308 308 308 309 309 310 308 307 312 314 314 314 312 313 313 311 311 315 315 315 316 313
313 311 311 312 313 313 315 315 312 313 315 312 312 312 311 311 312 313 313 311 310 309 309 312 313 312 312 311 309 310 309 313 315 316 313 312 312 311 311 313 313 310 311 310
312 313 311 311 312 312 313 314 315 313 313 313 313 312 311 313 313 313 312 310 309 309 309 313 314 316 312 313 310 308 310 311 315 315 315 315 313 309 308 310 314 308 308 308
311 312 313 311 311 311 312 314 314 316 313 313 313 313 313 310 310 313 311 311 310 307 309 313 313 312 309 313 311 311 312 314 316 316 316 315 311 308 309 315 314 307 307 306
310 312 313 313 312 311 311 312 314 315 314 314 313 314 313 311 311 314 311 312 310 308 311 310 310 311 309 308 308 310 312 314 315 313 314 315 309 308 312 309 307 306 306 305
310 311 314 314 314 312 312 314 315 315 315 314 314 314 314 314 315 313 311 310 310 308 310 307 308 310 308 309 314 308 312 311 313 312 314 308 308 308 307 306 306 306 305 304
309 311 313 314 314 315 315 315 315 315 314 314 314 315 315 315 316 315 313 310 310 309 308 307 308 311 310 312 311 310 309 306 311 309 310 307 308 307 307 306 306 305 305 304
310 312 313 313 314 314 314 315 315 315 314 315 314 316 315 316 316 316 312 312 311 310 309 310 311 312 307 311 310 311 310 308 310 310 309 307 306 307 307 306 306 306 306 306
311 312 313 313 313 313 314 315 314 315 315 316 316 315 314 314 315 317 314 312 312 310 311 312 313 307 308 307 307 311 307 311 312 315 309 310 308 306 306 307 307 307 308 307
312 312 311 311 312 313 314 316 315 316 315 315 316 314 315 317 315 315 315 312 312 311 312 312 309 308 310 311 311 311 308 308 309 309 307 307 306 306 306 306 306 307 307 306
311 311 311 314 312 314 314 316 315 316 315 315 315 314 315 317 316 314 312 311 312 312 313 313 314 311 309 310 312 311 309 308 307 306 307 307 307 308 307 306 306 306 306 306
309 310 311 317 315 314 316 317 316 315 316 314 315 316 316 317 316 317 312 312 312 313 314 312 312 309 308 308 309 311 311 310 307 307 307 309 307 307 307 307 307 307 307 307
309 309 312 316 317 317 317 316 316 315 315 316 314 316 319 316 317 317 317 316 318 315 316 314 311 311 310 310 312 312 310 310 310 309 308 307 307 308 307 307 307 307 306 307
309 309 318 319 319 317 315 315 315 315 315 314 314 312 317 315 315 317 317 316 318 318 314 310 311 312 311 311 311 312 309 307 308 308 308 308 308 308 308 307 306 306 307 307
310 316 319 318 317 316 316 317 316 315 315 313 313 312 317 315 319 319 316 316 316 317 315 313 311 311 313 312 312 310 310 310 310 309 310 310 309 309 308 308 306 306 307 307
314 316 314 314 315 316 317 320 318 317 320 316 317 316 314 315 316 317 314 317 315 315 312 313 309 314 310 310 312 312 312 311 310 310 310 310 310 310 309 309 308 307 307 307
311 312 314 315 316 317 320 321 320 321 320 319 317 319 317 315 315 314 315 317 316 312 314 310 312 313 312 311 311 311 310 311 311 311 311 310 310 309 309 309 309 308 307 307
309 316 314 319 319 319 322 322 323 319 318 318 318 318 318 315 315 314 317 315 314 314 314 314 315 312 311 311 311 311 311 311 311 311 311 310 310 309 309 309 308 307 306 306
310 315 315 320 321 320 321 320 320 320 320 318 318 317 316 316 315 313 313 315 315 316 316 315 312 311 312 311 311 311 311 310 310 310 310 309 310 309 309 309 308 307 306 306
309 311 318 320 320 321 320 321 322 320 319 318 318 318 317 316 314 314 316 315 315 314 314 313 310 311 311 310 310 310 310 309 309 308 308 308 309 308 308 308 307 306 306 306
313 316 314 314 315 317 317 318 320 321 319 321 317 319 318 313 314 315 313 316 315 313 313 311 311 311 311 310 309 308 307 306 306 306 306 306 306 307 307 307 307 306 306 305

GFSNW_850_thetae_072.txt.gz
Theta_e
313 312 313 312 314 316 316 318 321 316 316 318 317 318 316 313 316 315 315 315 317 318 318 319 319 318 317 315 318 317 317 320 321 322 317 318 321 324 326 328 331 330 331 327
313 313 313 313 312 314 317 318 316 315 317 320 318 315 315 314 316 316 316 316 316 316 318 319 318 317 313 315 319 319 316 319 321 320 319 318 321 321 322 324 326 330 329 326
313 312 313 313 312 314 315 316 318 315 315 315 317 316 315 315 313 314 314 315 316 318 318 318 318 317 315 314 317 315 316 318 319 320 321 321 321 319 320 323 327 329 328 326
313 313 313 313 311 312 315 315 314 313 315 315 314 315 314 314 315 313 313 314 315 317 319 319 319 317 317 316 315 317 320 322 320 318 317 318 318 318 318 321 324 326 326 326
312 313 313 313 312 311 315 316 315 313 314 314 315 313 315 315 315 315 314 315 314 315 317 317 318 317 318 318 316 317 317 321 321 320 317 318 318 317 317 317 319 322 323 323
312 312 313 313 313 313 314 312 312 315 313 315 316 315 314 314 315 314 313 314 315 315 314 314 314 314 314 314 316 317 318 319 320 320 317 316 317 318 317 317 318 320 321 323
312 312 312 313 313 314 315 312 315 316 315 315 315 314 313 315 315 315 314 314 315 313 312 312 312 313 313 313 313 313 317 319 318 318 317 316 318 316 316 318 319 319 320 318
311 312 312 312 312 313 314 314 316 316 316 314 314 314 314 314 314 315 314 313 312 312 313 316 316 316 316 315 314 314 315 316 317 318 317 316 315 315 315 318 318 316 317 315
311 311 313 312 312 312 314 314 314 316 316 315 313 314 314 315 315 315 314 313 311 312 315 317 319 320 319 317 315 314 314 316 318 317 320 318 319 314 313 314 318 314 314 314
310 311 312 313 312 312 312 314 314 318 317 315 315 316 316 314 314 315 314 314 313 312 315 318 319 319 315 319 317 317 318 318 320 319 320 318 315 312 313 316 319 313 312 312
309 310 313 313 314 312 312 313 314 317 317 316 315 315 316 315 315 316 315 315 313 312 315 316 317 318 315 315 315 315 317 319 320 319 320 322 313 313 317 315 311 311 310 310
309 310 313 314 314 314 313 317 315 315 318 318 315 316 316 316 317 315 314 314 313 312 314 314 315 317 315 316 319 313 318 316 320 318 319 314 313 313 312 310 311 310 309 308
309 310 313 314 314 314 315 315 315 316 318 318 316 317 316 315 316 316 316 314 313 313 313 312 314 316 315 319 318 316 314 312 316 315 313 312 313 311 310 310 309 309 308 308
309 311 313 313 313 314 314 315 315 316 317 317 317 316 317 316 316 317 316 315 313 314 313 315 316 317 313 316 316 316 315 313 315 315 313 311 311 311 311 310 309 309 308 308
311 312 313 313 313 313 314 314 314 316 318 318 317 317 316 317 317 316 316 314 313 312 314 315 316 315 314 314 314 317 313 315 317 319 314 313 312 311 310 310 309 309 309 309
312 312 311 311 312 312 314 319 315 316 316 319 319 317 318 317 316 317 317 316 315 315 314 316 313 313 312 317 316 315 314 313 313 314 312 312 311 310 310 310 310 309 309 309
311 310 310 311 315 314 316 319 317 315 314 318 317 319 318 317 316 316 316 315 315 315 316 315 315 314 311 312 315 314 315 314 313 313 311 311 310 310 310 310 310 309 309 309
309 309 310 312 316 314 316 317 317 315 317 317 319 319 319 319 320 320 317 318 316 316 317 316 316 310 310 312 313 314 313 313 313 312 311 311 311 310 310 310 310 310 310 309
308 309 310 316 315 318 318 316 316 315 318 320 320 323 323 318 321 320 319 318 320 318 318 317 315 314 314 315 315 314 314 313 314 313 311 310 311 310 311 311 310 310 309 308
309 309 315 320 319 318 316 316 318 318 318 318 320 319 323 320 320 321 320 319 319 319 318 313 315 316 314 315 316 314 313 313 312 313 313 311 310 310 310 311 310 310 309 308
310 316 320 319 318 316 318 319 319 318 320 319 318 318 322 319 322 322 319 319 319 319 317 316 315 315 315 315 315 314 313 312 311 312 311 311 310 311 311 311 311 310 309 309
313 317 316 315 317 319 320 320 320 319 325 322 322 322 318 320 319 320 318 319 318 317 315 316 316 316 314 315 315 315 314 314 313 312 312 312 312 312 311 311 311 311 309 309
311 313 316 318 319 320 322 325 326 326 324 323 321 322 320 317 319 319 319 318 317 314 317 317 315 315 315 315 315 314 314 314 314 314 313 313 313 312 312 311 311 311 310 310
313 316 318 320 322 322 325 326 325 324 324 324 323 322 322 320 320 319 320 318 316 315 314 319 316 314 314 314 314 314 313 313 314 314 313 313 312 312 312 312 311 311 311 310
314 315 317 319 320 323 324 325 324 324 324 323 322 322 321 321 320 318 316 316 317 317 317 315 315 315 314 314 313 313 313 312 312 312 311 311 311 311 311 311 311 311 310 310
313 314 317 317 320 319 323 324 324 323 323 322 322 323 322 321 319 315 315 316 316 314 314 315 315 314 314 314 313 312 311 311 310 309 309 309 309 310 308 308 308 311 310 309
315 315 315 314 314 315 316 320 323 324 322 324 321 321 321 317 316 315 315 316 316 314 315 315 315 315 314 312 311 310 308 308 308 307 307 307 306 306 307 309 308 307 308 307

GFSNW_850_thetae_075.txt.gz
Theta_e
313 313 312 311 312 316 319 320 323 318 317 321 320 321 320 316 320 318 319 320 319 320 321 321 322 322 321 319 321 320 321 324 326 325 325 324 326 328 330 332 333 332 333 332
313 313 312 312 312 315 319 320 317 317 318 323 320 318 317 317 319 320 319 319 319 320 318 321 319 320 317 319 321 322 321 322 325 325 324 324 325 326 327 329 330 332 332 335
313 313 313 313 311 313 318 318 321 317 318 318 319 318 317 316 315 317 318 320 320 320 319 320 320 319 318 318 320 314 319 321 324 324 324 324 325 325 325 327 329 331 332 336
312 313 314 313 311 312 319 317 317 317 320 317 318 318 317 316 316 315 316 318 320 321 322 321 320 320 319 318 316 320 322 320 322 321 320 323 324 324 323 325 327 329 333 335
312 313 313 313 312 316 317 319 319 315 317 317 317 314 317 317 317 318 317 317 316 318 322 322 322 321 321 321 320 321 321 323 321 320 320 320 321 321 320 322 325 327 330 332
312 312 313 313 313 318 317 317 317 317 315 318 318 317 316 316 317 316 316 317 318 318 317 317 318 318 319 320 321 322 322 321 323 322 320 319 319 320 320 321 322 325 329 329
310 312 312 313 314 314 319 317 319 319 317 318 317 316 316 317 318 318 316 317 319 315 314 314 315 315 316 316 317 318 322 323 323 323 323 323 320 320 319 320 321 325 326 325
310 310 312 312 312 314 319 319 320 319 318 316 316 316 316 316 317 317 317 315 315 315 317 319 319 318 318 318 316 316 317 321 323 322 323 321 320 318 318 321 321 321 323 321
309 310 311 313 312 312 320 318 319 319 319 319 316 316 317 318 318 318 316 315 314 316 318 320 323 323 323 321 318 316 317 320 321 321 322 322 321 318 317 318 323 318 319 318
310 310 312 312 313 313 315 319 314 321 320 316 317 319 319 316 316 318 317 316 315 315 319 321 323 323 319 323 320 320 319 319 322 323 323 322 320 316 316 318 322 317 316 316
309 309 312 314 314 314 315 319 314 321 319 318 316 317 318 317 318 319 317 317 316 316 318 319 322 322 321 319 321 320 321 323 324 322 323 328 317 316 318 320 317 315 315 314
309 309 312 314 314 315 314 320 317 315 320 321 317 317 318 318 319 317 315 317 315 316 318 316 319 320 319 320 322 317 321 319 325 322 324 320 317 317 317 317 316 314 314 312
309 310 313 314 314 314 315 318 319 319 320 320 317 317 317 317 317 318 319 317 317 314 316 316 318 319 318 321 321 319 316 316 319 318 317 316 316 314 313 312 313 312 311 311
310 310 313 313 313 313 314 319 319 320 319 320 321 318 318 318 317 318 318 318 316 317 316 317 318 320 317 319 319 320 318 317 317 317 316 315 315 314 313 312 312 311 311 311
310 311 312 312 312 312 314 318 319 320 322 322 320 319 318 318 318 318 318 318 318 317 317 318 319 318 319 318 318 320 318 319 322 321 317 317 315 314 313 313 312 311 311 311
312 312 311 311 312 312 318 321 319 319 320 321 322 320 318 319 318 319 319 318 318 317 317 318 318 317 317 319 321 318 317 317 317 317 316 315 315 314 313 313 312 312 312 312
311 310 310 310 312 315 319 321 321 317 319 321 320 320 320 320 319 319 319 319 318 319 317 318 318 318 315 315 318 316 316 316 316 317 316 315 314 313 312 312 312 312 312 311
310 309 309 310 316 315 316 318 318 316 320 319 322 323 321 320 321 321 320 319 318 319 319 319 319 316 316 317 316 316 315 316 316 315 315 314 313 312 312 312 312 312 311 311
308 309 309 316 316 320 321 318 316 316 321 323 322 325 327 322 321 322 321 320 322 320 320 320 318 319 320 317 316 316 316 317 316 315 315 314 313 313 312 313 312 312 312 311
309 310 317 321 321 319 317 319 319 319 320 320 323 323 325 322 323 323 323 321 322 323 321 318 320 320 317 316 316 316 317 316 315 314 315 315 313 312 312 313 312 312 311 311
310 316 320 321 319 318 319 320 320 320 323 322 323 323 325 322 324 325 322 323 321 322 321 319 319 318 317 316 316 317 317 315 314 314 314 314 313 312 312 312 312 311 311 311
316 320 318 318 318 319 321 322 322 322 326 324 323 323 323 323 323 323 321 321 321 319 317 318 320 318 316 316 315 315 316 315 315 315 314 314 313 313 312 312 312 312 311 311
314 316 318 318 320 323 322 326 326 327 325 325 325 325 324 323 322 322 322 321 319 317 318 321 319 317 316 315 315 314 315 315 315 315 315 314 314 313 313 312 312 312 312 312
317 317 322 321 322 324 325 326 327 326 324 326 327 326 324 323 323 322 321 320 318 317 317 319 317 317 316 316 315 315 314 314 314 314 314 314 314 314 314 314 314 314 313 312
317 316 318 319 318 321 324 325 325 325 325 326 326 325 324 324 323 321 319 318 317 317 318 317 316 317 317 316 314 314 314 313 313 312 311 311 311 311 311 312 312 313 313 312
316 316 318 316 318 318 320 324 324 323 324 326 325 324 325 324 321 319 317 317 317 316 316 317 317 317 316 315 314 313 312 311 310 309 309 309 308 309 309 309 309 310 311 311
317 317 316 315 316 315 315 316 319 325 325 327 324 324 324 320 319 317 316 317 316 316 316 317 317 316 315 313 311 310 309 308 308 308 308 308 308 308 307 307 307 308 310 310

GFSNW_850_thetae_078.txt.gz
Theta_e
313 313 313 312 311 313 319 323 325 320 317 322 321 322 320 318 320 318 319 320 322 323 323 323 323 324 322 320 321 322 323 324 330 327 326 327 329 331 331 335 338 335 339 341
313 313 313 312 311 314 317 323 319 318 320 324 323 319 319 319 321 320 320 321 319 321 321 324 323 322 319 320 322 324 324 323 327 327 326 326 325 327 328 330 332 338 337 340
312 313 314 313 311 312 317 322 321 319 318 319 320 319 318 318 316 319 320 321 320 319 320 319 322 320 319 319 320 316 321 321 326 328 326 325 326 326 327 328 329 331 336 342
311 313 313 313 313 314 318 319 318 319 320 318 319 319 318 318 318 316 317 320 321 322 324 319 320 321 319 319 318 319 321 321 323 324 323 322 325 325 326 326 328 333 338 341
310 312 313 313 313 317 319 320 321 317 318 319 320 315 318 318 318 320 318 318 317 319 325 324 325 323 321 319 320 320 321 322 325 324 323 322 323 325 325 325 325 328 334 335
310 310 313 313 312 320 320 319 319 320 317 320 319 317 317 317 318 317 317 318 319 319 320 319 321 321 322 322 323 322 321 322 325 325 322 322 322 322 322 322 323 333 336 332
310 310 311 313 313 319 321 319 322 322 318 319 318 317 317 319 319 319 318 319 320 318 315 316 316 317 317 318 320 321 322 326 324 325 323 324 322 322 321 321 323 329 331 330
309 310 309 312 313 314 320 320 322 322 321 317 317 317 317 317 318 318 317 316 316 316 318 320 319 318 318 318 317 318 318 321 323 325 324 324 323 321 321 321 323 326 328 327
310 309 310 310 313 313 322 322 319 323 322 320 317 317 318 321 320 320 317 315 316 317 320 321 323 328 325 323 320 317 318 319 324 323 324 324 323 319 318 320 324 323 324 324
310 309 310 312 311 313 317 322 314 325 323 319 318 321 321 317 318 320 319 317 317 317 321 321 327 327 322 326 323 322 319 320 322 323 324 325 322 318 318 321 322 321 321 321
310 309 310 313 313 313 319 323 315 323 324 321 318 318 319 318 319 321 319 318 318 318 319 321 327 323 323 321 322 324 322 325 326 321 325 328 319 318 319 322 319 318 318 317
310 309 310 313 313 314 315 323 321 316 322 323 319 317 318 319 320 320 317 319 318 318 319 319 321 322 320 321 324 318 323 321 328 323 327 322 319 320 321 320 318 317 317 316
310 309 312 313 314 314 315 320 320 320 320 321 319 317 318 317 318 319 320 321 319 318 317 319 319 322 319 321 321 320 319 317 321 322 321 320 319 318 318 317 318 316 315 313
311 310 312 313 313 313 313 321 321 321 322 321 322 321 318 318 317 318 320 320 318 319 317 317 320 321 319 321 320 323 321 319 318 319 317 317 316 317 315 314 314 314 313 312
311 311 312 312 311 311 314 316 321 321 324 326 323 320 320 319 318 318 319 319 319 319 319 319 320 319 320 319 319 322 319 320 324 324 318 319 317 316 316 315 313 313 312 312
312 312 311 311 311 314 317 322 320 320 320 322 323 323 321 319 320 319 320 320 319 319 319 319 319 319 319 320 322 319 319 318 318 319 318 318 317 317 316 315 315 313 313 313
311 311 310 310 310 315 320 323 323 319 318 323 324 322 321 321 319 320 320 320 320 319 319 319 319 319 318 319 321 317 317 317 317 318 318 318 318 316 316 315 315 313 313 313
310 310 309 310 314 315 317 317 317 317 321 322 324 325 324 321 321 321 320 320 320 320 319 320 321 319 318 321 318 317 316 316 317 317 317 316 316 315 314 314 314 314 313 313
309 309 309 314 316 321 322 321 319 316 322 325 323 326 326 322 322 321 322 321 324 321 322 322 321 322 319 319 317 317 316 316 317 317 317 316 316 315 314 314 313 313 313 313
309 309 316 322 322 320 319 321 321 321 322 322 325 323 327 323 323 323 324 324 324 325 323 321 322 323 319 318 318 318 317 316 317 317 316 316 316 315 314 314 314 313 313 313
310 317 321 322 319 319 321 321 321 322 324 323 323 323 325 324 325 327 324 324 324 325 324 322 323 322 318 318 318 316 317 316 316 317 316 316 314 313 312 312 313 313 313 313
318 319 321 320 320 319 322 323 322 324 326 325 324 324 323 324 324 325 323 323 323 323 319 320 321 319 318 317 316 315 316 315 315 316 315 315 314 315 314 314 314 313 313 313
317 317 319 319 320 322 323 324 326 327 325 325 324 326 326 324 325 325 324 323 322 319 320 325 319 317 318 317 316 315 314 315 315 316 315 315 316 314 315 314 315 314 314 313
319 319 316 320 322 323 324 327 328 326 326 325 326 326 327 324 323 324 322 322 320 320 320 320 319 318 318 317 316 314 315 314 315 314 315 314 313 313 313 314 314 313 313 312
318 317 317 320 318 319 322 325 323 324 324 324 328 326 325 325 325 323 320 319 319 319 318 318 318 317 317 318 316 314 314 313 312 312 311 311 310 310 309 309 310 310 312 313
317 317 318 318 318 319 319 325 324 323 325 327 327 327 327 326 322 319 316 317 318 317 318 318 317 318 317 316 314 313 311 310 310 310 310 310 309 309 309 308 308 308 309 310
318 318 317 316 317 317 317 317 317 320 325 328 326 327 326 318 316 317 316 317 318 317 317 318 319 317 315 313 311 310 310 309 309 309 307 307 308 309 308 308 307 308 308 308

GFSNW_850_thetae_081.txt.gz
Theta_e
312 313 313 313 311 311 316 320 324 324 317 322 323 323 319 318 320 320 319 320 321 322 323 324 325 324 323 319 320 320 322 320 328 328 326 327 326 331 331 329 331 335 342 343
311 313 313 313 312 313 315 320 323 318 321 323 323 319 318 318 318 319 321 320 319 319 321 324 324 323 319 319 321 321 320 321 323 328 326 324 324 325 324 324 325 333 340 342
310 311 313 313 312 314 316 320 322 320 318 318 319 320 318 318 315 317 318 321 320 319 320 319 321 322 319 319 319 317 320 319 321 327 327 324 321 322 323 324 324 337 337 339
310 310 312 313 312 315 318 322 317 317 317 318 317 319 319 318 318 317 317 320 321 322 322 323 320 322 320 319 319 319 318 320 321 324 325 323 321 322 324 323 326 336 340 339
309 310 311 313 312 318 319 319 319 320 318 319 321 316 318 318 317 318 319 319 319 323 323 323 324 323 322 321 321 319 318 321 323 323 323 322 321 322 324 324 333 336 337 337
309 310 309 313 313 318 321 320 321 323 322 320 317 316 316 316 319 316 317 318 320 321 320 320 321 320 320 323 322 321 320 322 323 323 324 324 322 322 320 330 332 332 337 330
309 309 309 311 313 318 321 321 321 324 325 318 317 317 318 319 319 319 317 318 321 317 316 315 316 318 317 318 318 319 319 323 322 323 323 325 322 321 321 321 329 330 330 328
309 309 310 309 313 313 320 322 319 325 326 318 317 317 317 318 318 318 316 316 316 317 318 318 318 316 318 317 317 317 316 319 321 323 323 323 323 322 320 321 328 329 328 326
309 310 310 311 311 313 321 323 315 323 326 320 318 318 318 320 320 319 316 315 316 317 319 322 324 326 325 325 320 318 316 317 319 324 327 324 322 319 319 321 326 329 328 324
309 310 309 312 311 313 315 321 319 320 326 319 318 322 322 319 320 321 319 317 317 316 320 323 326 326 323 324 325 325 318 318 320 322 324 325 321 318 318 321 325 324 324 324
309 310 309 313 313 312 317 322 323 317 324 324 319 318 319 319 321 322 319 319 320 318 319 325 327 325 325 322 321 321 323 323 323 321 322 324 320 319 323 322 318 318 319 319
309 310 309 312 313 314 314 324 323 320 318 324 321 318 318 319 320 320 318 318 319 318 320 321 323 324 320 321 323 319 319 322 321 322 323 321 319 321 320 319 318 317 317 316
309 310 311 313 313 314 317 320 322 320 322 322 321 318 317 318 318 319 320 321 319 318 317 319 320 322 320 321 322 321 319 317 319 319 322 321 319 319 319 319 317 317 316 315
310 310 311 313 313 313 313 315 321 321 323 324 321 320 319 318 317 318 320 320 319 319 316 316 319 321 320 321 320 321 321 320 318 319 318 317 318 318 318 316 316 316 315 314
311 310 311 313 311 310 311 314 320 321 322 325 325 322 319 319 318 318 319 320 319 320 320 320 319 319 320 320 319 320 319 321 320 320 320 321 318 316 316 314 313 315 313 312
311 312 312 311 311 314 315 324 321 320 321 322 326 321 320 319 318 319 319 320 320 320 319 319 320 320 319 319 322 320 319 319 318 319 318 318 318 318 318 316 314 313 313 312
311 311 310 310 310 312 320 324 323 320 318 322 325 324 322 320 320 320 320 320 320 320 320 320 319 320 318 319 319 319 317 316 318 318 317 318 318 318 318 317 315 313 313 313
311 310 310 309 310 315 317 317 320 318 316 323 325 327 323 321 320 321 321 321 321 320 320 320 321 320 320 320 319 318 317 317 316 317 317 317 318 316 317 316 316 314 313 313
310 310 309 310 315 321 322 322 321 318 321 325 325 328 327 322 321 322 321 321 323 322 322 322 321 322 317 318 319 319 317 317 316 316 316 317 317 316 315 315 315 314 313 313
309 309 312 321 322 321 318 321 322 321 321 322 325 326 327 324 323 324 324 323 324 325 323 322 322 320 320 318 318 317 318 317 316 315 316 316 316 315 316 315 314 315 314 313
309 315 320 323 320 316 321 320 321 322 323 323 322 321 325 324 325 326 323 325 324 325 325 323 323 321 320 318 319 318 317 317 316 316 316 317 316 316 315 314 314 314 314 314
318 318 321 320 320 321 321 323 323 323 325 326 325 324 325 325 324 324 323 324 323 324 321 321 319 319 317 319 317 315 316 316 315 316 316 315 315 315 314 314 313 312 313 314
314 315 319 320 319 317 321 323 324 326 325 325 325 329 325 324 324 322 323 323 324 319 320 320 317 318 318 318 317 316 315 316 316 315 315 315 315 315 315 314 314 314 314 314
319 320 310 320 321 322 323 323 327 323 325 323 325 324 325 324 324 324 322 320 319 319 320 321 320 317 315 315 315 316 315 315 314 314 314 314 313 313 313 313 313 312 313 313
320 318 314 320 318 319 321 323 323 321 324 319 322 320 323 324 324 319 318 318 319 319 321 321 317 317 316 317 316 314 313 312 312 312 312 311 311 310 310 310 309 309 309 309
317 317 319 319 319 319 320 322 325 323 324 323 322 325 325 325 322 318 318 318 318 319 321 318 317 317 317 316 314 312 311 310 310 309 308 307 308 308 308 309 309 309 308 308
318 318 317 316 317 318 318 317 318 324 326 330 325 325 325 319 319 319 317 317 320 318 318 318 317 316 314 313 311 310 309 309 309 307 306 307 308 308 308 308 307 307 307 308

GFSNW_850_thetae_084.txt.gz
Theta_e
310 310 312 313 312 312 316 318 319 323 319 318 317 318 319 318 316 318 316 317 318 321 321 321 323 322 319 319 320 319 320 314 318 327 323 323 326 327 325 329 331 335 338 347
309 310 310 313 313 312 315 317 320 320 319 316 316 316 316 315 313 315 316 318 317 318 321 322 322 321 318 319 318 316 317 315 319 322 322 320 319 319 319 320 322 334 332 340
309 310 309 312 313 312 316 318 319 319 317 315 313 315 314 314 315 315 316 318 318 317 317 318 319 320 318 318 317 319 318 313 318 321 325 322 320 319 319 318 320 334 335 336
309 309 309 311 312 314 319 320 318 317 311 312 313 313 314 316 316 316 316 316 319 318 318 320 322 321 319 318 318 317 315 318 320 321 320 320 320 320 321 320 322 333 335 334
311 309 310 310 314 318 322 320 321 322 319 317 312 311 312 314 314 315 316 319 320 319 319 320 321 320 318 321 319 317 312 320 320 320 324 322 320 320 325 331 335 336 333 330
312 309 310 309 313 319 321 320 321 323 321 313 311 312 315 317 316 317 317 318 317 316 317 319 320 320 319 316 319 316 318 316 316 321 322 322 320 319 320 330 335 334 335 329
312 309 309 308 312 317 321 319 321 323 321 311 312 315 317 317 317 316 315 316 316 316 316 316 316 318 315 315 315 314 313 316 315 318 319 323 320 319 319 327 330 328 326 325
312 309 309 309 312 314 322 322 317 324 322 319 314 314 315 317 317 315 315 315 315 317 317 313 312 312 314 317 314 313 311 312 314 318 318 319 322 319 319 319 327 328 326 325
314 309 309 309 310 313 321 321 316 321 325 316 317 316 317 315 314 314 315 315 316 318 314 315 320 317 322 322 321 313 311 309 313 317 322 321 319 318 318 321 324 325 325 322
315 309 309 310 311 312 315 321 320 317 325 322 320 319 318 318 317 313 316 316 317 315 313 318 314 317 321 318 324 321 316 311 313 318 320 322 319 318 318 321 320 324 322 320
314 309 309 310 311 312 315 322 322 319 319 322 319 318 319 321 320 314 317 315 318 313 314 317 313 312 315 313 319 319 318 314 311 314 316 318 320 319 319 317 318 322 322 321
313 309 309 311 312 313 315 323 321 320 315 322 320 318 318 319 320 318 317 319 318 316 314 315 314 314 315 314 314 315 313 316 315 316 316 318 320 320 318 317 318 319 320 318
313 310 309 312 313 313 318 320 319 318 322 320 320 320 317 317 318 319 320 319 319 317 316 316 314 317 312 315 314 317 316 316 312 314 319 319 320 320 319 317 316 316 317 318
310 310 310 313 312 312 313 315 320 322 322 323 320 319 319 317 317 317 320 320 319 319 316 314 311 315 316 314 314 314 316 316 313 313 315 317 319 319 319 318 316 316 315 315
310 311 310 312 311 310 311 312 320 321 321 322 324 323 319 318 317 318 318 319 319 319 319 314 314 317 315 315 313 313 317 314 314 314 318 317 317 318 318 318 318 317 315 314
310 311 312 311 310 312 316 320 320 320 320 318 319 323 319 319 318 319 319 320 319 319 319 317 319 320 317 313 310 317 318 318 319 319 318 318 318 318 318 317 316 316 315 313
310 311 311 310 309 310 320 323 322 320 319 318 322 322 320 319 318 319 319 319 320 319 319 319 318 319 318 311 310 317 318 316 318 318 318 317 318 318 318 318 316 314 314 313
310 311 310 309 309 311 313 316 321 320 316 322 320 320 320 320 319 319 320 320 320 319 319 319 319 319 318 313 316 317 317 317 317 317 317 316 317 317 317 317 317 317 314 312
311 310 309 309 313 320 322 320 319 319 316 324 323 320 323 321 320 320 320 321 317 322 317 318 319 313 313 314 317 318 317 317 317 316 316 315 316 317 317 316 316 316 313 313
310 310 310 321 321 321 319 320 320 320 318 319 321 325 323 322 321 321 321 322 318 319 319 321 315 315 319 319 318 316 317 317 316 316 315 316 316 316 316 315 315 315 315 313
312 313 320 321 321 318 320 319 320 320 320 321 322 320 320 324 320 321 323 321 319 316 317 318 311 317 318 318 319 318 318 318 317 315 315 315 315 315 315 315 315 315 315 314
317 318 319 320 318 319 319 317 320 320 320 323 322 322 320 325 324 322 322 322 321 322 320 320 316 316 318 319 319 319 317 316 315 315 315 316 315 315 315 314 314 313 314 312
314 315 317 321 319 314 318 319 320 321 323 324 326 324 325 323 321 319 318 322 323 318 319 317 314 317 317 316 316 316 316 316 316 316 315 315 315 315 315 314 312 313 312 312
317 320 311 315 317 318 317 318 320 322 324 324 320 322 324 323 320 318 320 319 317 320 319 317 315 317 315 315 315 315 315 315 315 314 313 313 313 313 312 312 312 312 312 313
318 319 312 316 317 319 320 320 321 322 322 321 322 320 323 321 320 318 318 319 319 316 314 314 317 316 316 316 315 313 312 311 311 311 311 310 310 310 310 309 309 309 309 309
316 317 317 318 317 317 317 318 322 321 320 320 318 319 322 322 320 318 319 317 315 313 315 317 316 316 317 314 312 311 310 309 309 308 307 306 307 308 308 308 308 309 309 308
317 317 316 316 316 316 316 318 321 322 320 321 321 322 321 317 317 318 316 314 312 317 317 317 316 316 314 312 311 310 308 307 307 307 307 307 307 307 306 306 305 304 304 304

GFSNW_850_thetae_087.txt.gz
Theta_e
309 309 310 310 312 311 316 318 316 322 320 319 314 315 317 316 314 316 315 316 317 320 320 322 320 318 317 318 319 318 316 311 317 324 319 318 317 320 323 326 330 330 334 340
309 309 310 309 312 311 315 318 318 319 321 314 314 314 315 313 313 313 316 317 314 316 318 321 320 320 317 316 316 316 317 314 319 323 320 319 317 318 317 317 323 332 334 336
312 308 309 309 312 313 319 319 312 316 317 314 311 313 313 313 316 315 315 316 316 317 316 317 320 321 319 317 318 320 316 312 317 323 323 320 320 318 318 316 319 326 328 337
318 309 309 309 312 320 319 320 315 318 310 312 311 311 313 315 315 315 317 319 318 317 318 320 321 320 317 318 319 314 314 318 318 320 319 319 318 319 322 320 321 329 332 334
321 310 309 309 314 321 320 320 320 322 318 313 310 309 313 314 314 315 316 318 317 317 318 319 320 319 317 320 317 316 312 319 318 320 325 320 320 320 319 331 332 331 329 328
320 309 309 309 313 320 320 318 320 322 319 309 310 309 313 316 315 316 318 318 315 314 316 318 317 318 317 314 316 313 315 314 316 322 318 326 326 320 319 327 331 330 333 327
318 309 309 309 312 318 320 317 322 322 319 310 312 316 316 316 316 315 315 317 316 316 317 316 315 315 313 315 309 311 311 314 312 317 318 325 323 320 322 328 328 326 325 323
319 310 309 309 310 315 321 315 319 323 319 317 312 314 315 315 315 314 314 315 316 316 317 312 311 314 313 318 311 308 309 309 314 315 317 318 320 318 319 324 327 324 324 323
321 312 309 309 309 312 321 317 316 321 318 317 317 315 315 313 313 312 315 314 316 317 311 314 317 315 321 320 319 313 309 307 312 315 320 318 316 317 317 319 324 325 324 322
322 311 309 309 310 311 317 321 317 319 324 321 319 317 315 316 314 311 313 315 315 315 312 316 311 316 319 317 322 319 312 309 311 316 317 318 318 318 318 322 318 324 324 322
322 310 309 309 311 311 319 322 317 319 319 321 318 318 319 319 317 312 315 314 316 310 314 314 309 311 313 311 316 318 316 311 308 311 314 317 319 318 318 315 318 321 323 322
321 310 309 310 312 312 318 322 321 318 317 320 319 318 318 319 319 317 317 317 317 315 312 313 311 312 312 310 312 313 314 314 314 314 313 315 319 318 318 318 320 320 321 320
321 310 310 311 312 312 318 320 318 317 317 317 320 319 318 318 318 319 319 318 318 316 316 315 311 314 310 314 313 315 314 314 311 314 317 317 319 317 317 317 317 320 321 320
320 309 310 311 312 312 313 319 319 321 321 321 320 319 320 317 317 317 319 320 319 317 316 312 310 313 313 311 312 312 314 312 311 311 313 315 318 319 318 317 316 316 319 320
319 310 310 311 312 310 310 312 319 320 321 321 323 320 319 317 317 317 319 319 318 319 317 312 312 314 313 311 310 311 315 312 313 313 315 315 316 318 317 317 316 316 316 317
318 310 310 312 310 310 315 316 319 320 320 317 319 323 320 317 317 318 319 319 319 319 318 316 317 319 315 311 308 314 316 318 318 318 318 318 318 318 318 317 316 315 316 315
313 311 311 310 309 310 318 322 321 320 320 317 322 321 318 318 318 318 318 319 319 319 318 317 317 318 317 309 307 315 317 317 318 318 318 317 317 317 317 318 318 317 315 316
311 311 310 309 309 309 312 320 322 320 318 319 319 318 319 318 318 319 319 319 319 318 318 317 317 317 315 311 314 317 316 316 316 317 318 317 316 316 316 316 317 316 316 313
310 310 309 309 313 320 321 317 317 318 316 322 320 318 318 319 319 319 320 320 316 319 316 316 317 310 312 315 317 318 317 317 317 317 316 315 315 314 313 316 316 316 316 316
309 309 314 321 319 322 319 319 318 318 317 315 318 322 321 320 319 320 320 320 319 317 315 319 313 313 318 319 319 318 316 317 317 316 315 315 313 315 316 316 315 315 315 315
311 313 320 321 321 318 319 319 319 319 318 320 320 321 319 321 318 321 322 319 316 319 315 317 311 314 316 318 318 319 317 317 318 317 315 314 313 314 314 315 314 313 314 315
313 318 319 319 318 318 318 316 316 317 318 320 320 321 319 324 322 321 320 319 317 321 319 320 317 313 317 318 317 318 318 317 317 316 315 315 315 315 315 315 314 314 314 313
315 316 316 321 318 315 317 317 316 318 321 322 324 322 323 322 320 318 317 320 318 318 319 318 313 315 317 316 316 317 316 316 315 315 315 316 316 314 314 315 314 313 312 313
316 319 309 314 316 315 315 315 316 320 323 324 323 322 322 321 319 316 319 316 316 321 320 317 312 317 317 315 315 315 315 315 315 314 314 313 313 312 313 313 313 313 311 310
317 318 312 315 316 318 319 318 318 321 323 321 321 320 321 318 316 315 316 319 320 318 316 311 316 317 315 314 315 314 313 312 311 311 311 310 310 310 310 309 309 309 308 308
312 316 316 317 315 315 315 316 317 319 322 320 317 316 319 320 315 318 318 319 317 312 311 317 317 316 315 316 312 311 310 309 309 308 307 306 306 307 307 307 307 307 307 307
315 316 316 316 316 315 316 316 319 321 320 317 318 320 319 314 315 317 315 314 310 313 316 317 316 315 316 313 311 310 307 306 306 306 306 306 307 307 307 305 304 304 304 304

GFSNW_850_thetae_090.txt.gz
Theta_e
315 309 308 309 309 311 316 318 315 321 320 317 312 314 315 313 313 315 316 315 316 319 320 321 318 317 316 316 318 318 315 311 318 321 318 317 318 319 320 324 329 329 332 335
318 313 308 309 310 312 319 318 318 319 320 313 311 313 313 314 312 313 313 316 316 317 318 321 320 317 317 317 315 316 315 314 319 319 318 316 317 316 315 316 323 333 332 330
322 317 308 309 311 317 319 319 311 314 318 312 311 312 313 314 316 316 315 316 315 317 318 319 321 321 319 319 321 319 316 313 318 319 319 317 318 317 319 314 320 325 326 333
322 317 308 308 312 320 319 318 312 315 310 311 309 311 312 314 314 314 317 318 317 316 318 318 320 318 318 318 317 314 314 318 318 319 318 318 319 319 321 328 318 327 326 332
322 316 309 309 313 320 320 319 319 320 317 312 311 308 312 314 313 314 317 317 315 316 318 318 318 317 316 318 315 315 313 319 318 320 320 323 324 320 324 331 332 331 330 332
322 314 309 308 314 320 319 318 320 321 315 308 309 309 313 314 315 315 316 316 314 313 314 316 315 315 314 311 313 312 314 314 317 321 317 325 326 322 327 329 329 329 332 326
321 314 309 309 312 319 317 316 321 320 314 310 313 315 315 315 314 314 314 316 315 315 316 314 314 314 315 312 307 308 312 312 312 318 317 326 321 319 325 328 327 326 323 322
321 317 309 309 309 317 319 315 319 322 314 314 312 314 314 315 313 313 313 314 315 316 317 311 310 311 313 316 309 307 307 310 313 315 316 316 319 316 317 320 326 323 322 321
320 320 309 309 310 312 320 317 317 322 316 313 315 313 314 312 312 311 314 314 316 317 311 313 316 313 320 319 318 313 308 306 313 314 317 317 314 317 318 318 320 323 322 321
318 321 310 309 310 311 318 318 316 321 321 320 316 314 314 315 312 310 312 314 315 314 311 314 309 314 317 315 321 319 309 309 312 315 315 316 315 317 318 321 319 323 323 322
317 321 310 309 310 311 317 319 316 319 319 320 318 318 317 317 315 312 314 313 314 309 314 313 308 310 311 311 315 317 312 310 307 310 313 315 317 317 318 315 318 322 324 323
317 321 310 309 311 312 317 321 320 318 318 319 318 318 319 320 319 317 315 315 315 313 311 311 308 310 310 307 309 311 313 313 313 311 312 312 318 318 317 317 318 320 324 324
319 320 310 309 312 312 317 321 320 316 316 317 319 318 317 318 318 318 317 317 316 315 316 314 309 313 308 313 311 313 312 312 313 314 315 317 318 317 317 317 318 319 321 324
320 317 310 310 312 312 315 319 319 319 317 318 320 320 320 317 317 317 318 319 318 316 316 312 309 312 311 310 311 311 312 311 310 311 312 316 318 319 318 317 317 318 320 321
321 312 310 310 312 311 311 314 318 318 320 319 322 320 319 317 317 317 317 319 319 317 316 311 312 312 311 309 309 310 313 311 311 312 315 316 316 318 318 317 317 317 317 319
321 310 310 311 311 310 311 312 314 319 320 318 318 321 318 317 317 317 318 318 318 318 318 315 315 317 314 311 307 313 316 316 316 316 318 316 317 317 317 317 316 316 316 316
320 310 311 310 309 309 315 320 319 319 319 318 319 320 318 317 318 318 318 319 319 319 317 316 316 316 315 307 307 314 316 316 317 317 318 317 318 317 316 317 317 317 316 316
317 310 310 309 309 309 313 321 322 319 318 317 318 318 318 317 317 317 318 318 319 318 317 316 316 315 313 310 313 316 316 316 316 318 317 317 316 316 315 316 315 316 316 316
312 310 310 309 312 319 317 316 316 319 317 319 319 316 317 317 317 319 319 319 315 317 314 314 315 309 311 314 316 317 317 316 316 316 317 317 316 315 314 313 314 316 316 315
309 309 311 318 319 322 321 319 318 319 318 317 318 320 320 318 318 317 319 319 316 316 313 317 311 310 316 318 318 318 317 316 316 316 315 315 315 313 313 315 315 315 314 313
310 314 320 321 321 318 317 319 318 317 317 318 318 320 319 320 317 317 321 319 316 317 315 317 311 314 314 317 317 317 318 317 317 316 316 315 314 313 313 314 314 313 313 314
314 318 319 318 320 317 318 315 315 316 317 318 319 319 319 322 321 321 320 319 316 320 317 320 315 313 317 317 317 317 318 317 317 317 316 314 314 315 314 314 314 314 312 312
313 317 318 320 317 314 317 316 316 316 318 320 321 320 322 320 320 317 318 320 319 317 319 319 311 315 316 316 317 318 318 317 317 316 315 315 315 315 314 313 314 313 312 312
316 316 309 314 315 315 314 313 314 318 321 322 323 321 320 320 317 315 319 316 315 321 321 316 313 316 316 315 315 315 315 315 315 315 315 314 313 312 312 311 312 312 310 309
315 318 313 314 316 316 317 317 316 320 323 321 321 319 320 315 316 313 314 319 321 319 318 313 315 316 316 314 314 314 314 314 313 312 311 310 309 309 309 308 308 308 307 307
309 314 316 316 314 314 314 314 315 316 320 321 317 315 317 319 313 316 316 316 316 313 311 315 316 316 314 314 313 312 311 310 309 308 307 306 305 306 306 306 306 305 304 304
312 315 314 315 314 314 315 315 316 319 320 316 316 318 318 312 315 316 312 314 311 314 314 316 316 315 315 315 312 311 310 307 306 306 306 306 307 307 306 304 304 304 303 304

GFSNW_850_thetae_093.txt.gz
Theta_e
321 318 312 308 308 311 317 318 322 320 320 320 315 321 318 314 314 314 317 317 320 322 322 323 320 320 319 316 319 321 319 323 325 323 320 320 322 327 329 328 334 338 338 340
322 322 314 308 309 315 319 318 318 318 319 319 318 317 314 315 317 316 318 318 319 319 321 324 322 320 317 318 318 320 319 322 326 324 323 323 326 323 323 328 335 339 333 336
321 322 313 308 310 318 318 318 318 314 317 312 316 316 315 317 315 317 317 320 318 320 322 322 323 322 320 319 322 319 318 320 326 327 325 323 328 328 321 326 329 336 334 339
320 321 311 308 311 320 319 317 316 313 317 315 313 314 315 316 317 316 318 321 319 319 322 321 322 320 320 321 318 318 321 323 323 323 324 325 326 332 333 325 325 331 332 334
321 320 309 309 313 320 319 319 320 318 317 311 314 313 315 315 315 317 320 319 317 320 322 320 321 319 320 319 319 321 320 325 322 324 323 326 325 328 335 334 334 334 335 335
321 319 309 309 312 319 318 319 321 319 313 312 315 315 316 317 316 315 316 317 317 318 316 316 317 314 312 312 317 320 321 321 325 326 323 327 328 326 327 330 333 333 334 334
320 320 310 309 310 318 316 317 321 319 316 315 316 316 317 316 316 315 314 316 317 315 314 313 314 315 317 316 313 312 321 321 321 325 327 327 324 323 326 328 330 330 330 329
318 321 313 309 309 315 318 315 319 321 317 314 315 316 316 314 314 315 314 315 315 316 316 317 319 318 318 320 317 314 317 321 322 326 325 322 322 320 321 324 326 329 329 327
319 319 318 309 309 311 318 316 317 322 318 317 314 315 315 317 317 316 314 313 315 316 319 321 320 322 321 321 319 318 317 319 322 323 322 323 321 320 319 321 325 328 327 328
320 318 320 309 309 310 315 317 316 320 321 320 315 317 318 315 314 318 315 315 315 315 321 323 325 325 322 325 321 321 319 320 321 323 322 320 320 319 319 326 325 324 326 327
320 317 320 309 309 310 313 318 316 320 319 319 316 317 316 316 315 319 315 317 317 317 323 322 323 326 322 322 321 323 320 322 322 320 322 323 319 320 322 321 320 321 326 326
315 316 319 309 310 311 313 319 318 317 318 319 318 318 319 319 319 317 314 318 317 316 321 320 317 322 319 317 322 317 325 321 328 321 322 318 318 320 317 317 320 321 322 326
315 317 318 309 311 312 314 320 319 317 316 316 318 317 318 318 318 317 318 316 316 315 316 318 317 321 318 320 320 319 318 315 323 323 322 320 320 318 317 317 318 318 321 323
315 319 314 309 311 312 314 319 319 317 316 319 319 319 318 317 317 318 318 319 317 315 315 316 319 320 314 319 319 320 318 316 320 321 317 318 319 318 318 317 317 317 318 321
316 320 310 309 311 311 311 316 319 317 318 318 321 320 320 317 317 317 316 318 317 316 317 317 318 315 317 314 316 320 316 320 322 324 319 321 320 319 318 318 318 317 317 318
318 317 309 309 311 310 310 311 313 316 318 319 321 319 317 316 317 317 318 318 318 318 318 318 315 315 317 321 323 319 317 316 316 319 317 317 317 316 317 317 317 317 317 317
319 312 310 310 310 309 314 317 317 316 318 318 319 323 317 316 318 318 318 318 318 318 317 318 319 318 316 319 324 319 316 316 316 316 317 317 317 319 317 317 317 317 316 316
318 310 310 309 308 309 312 320 320 318 318 317 323 323 318 317 317 319 318 318 318 317 317 316 320 316 316 323 320 317 316 315 316 317 317 318 317 316 315 315 315 315 315 316
316 309 309 308 310 314 313 317 319 319 317 318 321 325 323 316 316 318 318 318 322 317 319 319 319 320 321 322 320 318 317 316 317 317 317 315 316 316 315 313 312 314 316 315
309 309 309 315 318 320 316 317 318 318 318 317 321 319 325 317 318 319 322 320 322 325 321 317 321 323 319 318 317 317 317 317 316 316 317 317 316 314 312 313 315 315 314 313
309 313 320 319 320 318 317 319 319 317 318 317 318 321 323 318 323 324 322 324 321 326 323 324 323 319 320 317 317 317 318 318 316 316 317 315 315 313 313 313 314 314 313 313
314 318 319 319 319 317 320 320 317 319 319 317 319 319 321 321 320 324 321 324 321 325 320 324 321 321 318 316 317 317 317 317 316 315 315 315 314 313 314 314 314 313 313 313
316 318 317 319 317 318 320 319 319 320 318 319 320 321 322 320 319 321 323 324 325 320 323 323 320 318 316 316 317 317 316 317 317 316 315 314 314 315 315 313 311 312 312 312
315 316 317 318 319 318 320 318 319 318 320 321 322 321 323 320 322 321 324 321 321 323 323 323 320 318 316 315 316 317 317 316 315 315 315 315 314 313 312 311 310 310 309 308
314 317 316 318 317 316 317 316 316 319 321 322 321 321 321 321 321 317 320 321 323 322 323 321 318 315 316 315 315 315 315 314 314 313 311 310 310 309 307 307 306 306 306 305
309 314 318 317 316 317 315 316 317 317 322 320 319 322 323 322 321 322 322 322 322 321 319 318 315 316 316 315 314 314 312 311 310 309 307 306 305 306 306 306 304 304 303 304
311 314 313 315 315 315 315 314 315 315 320 324 321 322 322 318 322 322 320 322 321 318 316 315 316 316 315 314 313 311 310 309 306 306 306 307 307 307 304 304 303 304 304 304

GFSNW_850_thetae_096.txt.gz
Theta_e
322 322 321 311 308 311 318 320 324 321 320 323 321 322 320 316 317 318 320 321 323 325 325 323 324 324 324 320 323 325 326 326 329 325 326 326 326 326 328 329 335 334 336 343
321 321 321 311 308 315 319 322 323 320 320 323 322 321 318 318 318 318 319 321 322 324 325 326 323 323 321 321 322 325 325 326 329 328 327 326 326 327 329 329 329 335 335 337
320 320 320 309 309 318 318 322 323 320 320 319 320 320 319 319 318 318 319 322 322 323 325 325 324 323 321 321 322 318 320 326 329 328 326 327 329 328 328 329 329 330 333 338
319 321 316 309 310 319 318 320 322 318 320 319 319 319 318 318 318 318 318 323 322 323 324 324 323 323 323 322 322 323 325 328 328 328 327 328 328 328 327 328 328 330 331 333
319 321 314 309 311 319 321 324 323 320 320 319 319 316 319 318 317 319 318 321 321 322 324 324 322 322 322 322 322 324 326 326 327 328 328 327 331 332 330 329 329 329 332 333
318 321 315 309 310 318 321 321 322 324 317 319 320 320 319 317 317 318 320 320 321 321 320 319 320 319 319 319 323 325 325 327 327 328 327 329 329 329 330 332 332 333 331 339
319 321 317 309 309 317 316 318 323 324 320 320 319 318 317 317 318 317 314 320 320 318 317 317 318 319 320 320 320 322 325 329 328 327 328 330 328 327 328 330 331 332 334 335
319 319 320 310 309 313 317 315 322 324 320 319 319 318 317 318 318 317 315 318 318 318 318 321 322 322 322 322 321 321 325 326 327 328 329 327 326 326 326 327 330 330 334 334
320 318 320 311 309 310 316 316 317 324 322 320 318 318 319 320 320 319 316 317 317 319 321 322 324 324 324 324 322 321 322 324 325 324 327 328 327 323 322 324 329 328 332 333
321 319 319 314 309 309 312 318 315 323 323 319 318 319 320 319 319 320 319 319 319 319 320 322 324 326 325 324 323 324 323 324 325 324 324 323 324 322 322 327 329 328 331 332
321 320 318 316 309 310 310 320 316 321 323 322 319 318 320 319 319 321 320 320 320 320 321 322 325 325 325 325 325 324 323 324 324 324 324 325 322 323 325 326 324 325 329 331
320 317 317 315 309 310 310 320 317 317 322 323 319 320 319 320 321 320 319 322 320 320 321 322 323 322 323 324 325 323 327 323 326 323 325 323 323 323 322 323 323 324 326 328
316 316 317 314 309 311 311 316 319 317 321 321 320 320 319 319 319 319 320 320 321 320 321 321 321 322 320 320 320 320 324 321 325 323 322 322 323 322 322 322 321 321 324 327
313 315 319 312 309 311 311 317 319 319 320 321 321 319 319 317 317 319 319 320 318 320 320 320 321 321 320 322 323 321 320 321 322 323 322 323 323 322 321 320 320 319 322 325
313 316 319 310 310 311 311 315 319 318 322 320 321 321 320 317 319 319 318 319 319 319 320 320 321 320 320 320 321 321 321 321 322 322 320 319 320 320 321 320 320 320 320 322
314 318 314 309 310 311 310 316 315 318 317 321 320 321 320 318 319 319 320 319 319 319 319 320 319 320 320 322 324 322 321 320 320 321 321 320 322 321 321 320 321 320 320 321
314 318 310 309 310 310 316 318 319 315 316 322 320 323 319 319 320 320 320 320 320 321 321 320 321 321 319 322 326 321 320 320 321 320 320 321 321 321 320 320 320 318 319 319
318 314 309 310 309 309 311 320 318 317 320 321 324 325 320 319 320 321 321 321 321 321 322 321 322 322 321 326 324 323 321 320 320 320 320 321 321 321 321 320 318 318 317 318
317 309 309 308 308 314 317 316 320 318 320 320 322 327 325 319 321 322 321 321 324 322 322 323 322 325 329 325 324 323 322 321 321 320 320 319 320 320 319 318 317 316 316 316
311 309 309 314 317 316 314 316 320 321 320 319 322 324 325 320 321 322 323 323 325 326 325 322 325 328 324 324 324 323 322 321 321 321 320 319 319 318 318 317 316 315 316 316
308 311 319 319 319 318 320 320 319 318 319 320 319 322 325 321 324 324 324 325 325 326 327 326 328 326 325 323 323 323 322 321 320 320 319 319 319 318 317 316 316 316 316 316
313 319 319 319 319 320 320 319 319 319 319 319 320 321 324 322 324 324 324 326 326 325 324 325 328 325 324 322 321 321 321 321 320 319 319 318 317 316 316 316 316 316 316 316
317 318 318 318 318 319 319 320 319 320 319 320 320 322 325 323 325 324 326 324 325 324 325 327 325 324 322 321 321 321 320 320 319 318 318 318 318 318 318 318 317 316 316 316
315 316 315 319 320 320 320 318 318 320 322 322 320 323 322 324 325 324 324 324 325 326 327 326 324 324 322 320 320 320 320 320 319 319 319 319 318 316 314 313 312 312 311 311
315 316 318 319 318 319 319 318 320 322 324 324 323 323 323 324 325 325 325 326 325 324 325 324 323 323 321 320 320 320 320 319 319 318 316 315 314 313 311 310 309 309 309 309
311 316 319 319 319 319 319 320 321 323 323 323 323 324 324 324 326 326 326 325 325 324 323 322 323 322 321 320 319 319 318 317 316 314 313 312 310 309 309 309 308 308 308 308
312 313 313 317 319 319 316 317 319 321 323 326 324 325 325 324 326 326 325 325 322 321 322 322 321 322 321 319 318 317 315 314 313 311 310 310 309 309 308 308 307 307 307 308

GFSNW_850_thetae_099.txt.gz
Theta_e
324 322 322 321 309 310 317 322 324 323 321 325 324 324 321 316 319 319 320 322 323 325 327 325 324 327 326 323 326 327 327 328 329 327 327 326 327 327 330 333 338 335 336 350
323 320 320 319 308 314 318 324 325 322 321 326 324 323 320 319 320 319 319 322 322 325 325 327 326 325 324 323 324 327 327 327 329 330 327 326 326 327 327 328 330 333 334 345
322 319 321 315 308 316 319 325 325 322 321 323 322 322 321 321 319 318 318 322 322 323 325 325 326 325 324 323 323 320 323 327 328 331 330 328 327 327 327 328 329 329 334 348
322 319 321 311 309 318 319 324 325 323 323 322 321 321 321 319 320 319 318 322 322 323 325 325 326 325 324 324 324 325 326 328 329 329 330 330 327 326 327 328 330 331 331 337
323 319 321 310 309 319 320 326 324 321 322 321 321 317 322 319 318 319 320 320 322 322 325 327 326 324 325 326 324 326 328 331 331 330 329 329 328 329 328 328 328 329 330 338
323 319 321 310 309 318 324 324 324 325 321 321 322 323 321 319 317 318 320 321 322 322 323 322 323 322 323 325 324 326 328 331 333 333 329 330 331 331 330 329 329 329 332 339
322 319 321 313 309 315 320 324 326 324 325 322 321 320 318 318 319 319 316 320 321 321 320 320 321 321 321 322 322 324 327 330 330 334 333 331 330 330 331 332 333 332 335 338
322 319 319 319 309 310 316 322 325 326 326 321 321 319 319 319 319 319 316 318 321 319 319 323 323 324 325 324 323 324 325 327 332 332 332 331 331 330 330 330 332 332 335 336
320 320 318 320 311 309 313 321 322 326 326 322 319 320 319 322 323 320 318 318 319 319 322 322 325 328 328 327 324 324 324 326 329 330 332 333 330 327 326 326 333 331 332 335
315 321 319 319 315 309 310 321 316 324 324 322 320 320 321 320 322 323 320 319 318 319 323 323 324 328 327 327 325 325 325 326 326 327 326 330 328 325 324 327 331 331 331 333
314 322 320 318 317 309 309 322 320 325 323 323 321 321 320 319 321 323 322 321 321 322 324 323 325 326 326 325 326 327 327 328 327 327 330 329 324 324 326 330 327 329 331 333
314 321 321 318 318 309 310 319 321 317 325 325 322 321 321 321 322 321 321 323 322 323 323 323 325 324 325 323 325 325 327 325 328 326 331 327 325 327 326 326 327 327 328 330
314 317 319 316 317 310 310 318 322 320 323 321 321 320 320 319 319 318 321 321 323 320 322 323 323 324 322 325 325 325 323 325 325 326 325 323 323 323 323 324 324 324 325 328
314 314 316 317 315 310 311 315 319 321 323 322 321 322 321 320 319 318 319 323 321 322 319 321 323 323 322 323 325 323 322 325 324 325 325 324 323 323 322 322 321 321 323 325
314 313 315 318 312 310 311 313 317 321 324 323 322 322 321 319 320 320 320 320 320 320 320 321 323 322 323 321 323 323 322 323 323 323 323 323 322 322 322 321 321 321 321 323
313 313 317 317 310 311 311 317 316 319 321 324 324 323 322 319 320 320 320 321 321 321 322 322 322 322 320 323 325 325 323 322 322 323 322 322 322 322 322 321 321 321 321 322
313 315 318 311 309 311 316 320 321 318 321 321 320 324 323 321 321 321 321 320 321 322 323 322 323 323 319 323 327 325 323 322 322 323 324 322 323 322 322 321 322 321 320 321
313 317 312 309 310 310 312 315 319 314 319 319 321 324 323 321 321 321 322 322 322 323 324 324 323 325 324 326 326 325 324 323 323 323 322 322 323 322 322 322 321 320 320 320
317 313 309 309 309 314 316 316 320 316 322 320 320 325 325 321 321 321 323 323 325 325 325 324 325 326 331 327 326 326 325 324 323 323 322 322 323 322 322 321 320 319 319 318
311 309 311 314 315 317 315 316 322 319 317 321 324 321 327 320 321 323 324 323 324 327 326 326 327 328 326 327 326 327 325 324 324 323 323 322 322 322 322 320 319 318 317 318
308 312 318 320 315 315 319 317 319 320 320 318 317 321 325 322 324 324 323 326 325 326 327 327 330 333 327 328 327 327 325 324 323 323 323 322 321 321 320 319 318 317 317 317
314 318 320 320 320 320 320 320 319 320 319 319 318 320 325 323 325 325 326 326 326 326 326 326 330 328 328 326 325 325 325 325 323 322 322 321 321 320 319 318 318 318 317 317
317 318 318 321 319 321 320 321 321 320 319 320 318 318 324 325 324 325 326 326 325 325 326 328 329 328 327 325 324 323 323 322 322 321 321 320 319 319 318 318 319 317 317 316
316 317 315 319 320 321 321 321 321 319 319 320 320 321 323 322 325 323 324 324 325 326 327 328 328 328 326 324 323 323 322 321 321 320 320 320 321 321 320 318 317 315 315 314
315 316 320 320 321 320 320 320 320 321 321 320 320 322 323 324 324 323 324 326 325 325 326 326 329 327 325 324 323 322 321 321 320 320 321 320 319 318 317 315 313 312 311 310
311 316 320 319 320 320 320 320 320 323 325 325 324 324 323 323 322 323 323 324 326 325 325 326 328 326 325 323 322 321 321 321 320 320 319 318 317 315 314 311 310 310 310 310
314 315 315 317 320 320 320 320 322 324 326 328 325 325 324 323 324 326 324 324 324 323 323 324 326 326 325 323 322 321 320 319 318 318 317 315 313 312 311 310 310 310 310 309

GFSNW_850_thetae_102.txt.gz
Theta_e
325 323 321 321 320 309 319 323 324 325 322 323 325 327 325 319 319 319 320 321 321 323 327 327 328 329 328 325 327 329 329 329 330 330 328 328 327 328 329 333 337 337 338 347
324 322 319 320 314 309 318 324 325 326 322 325 328 325 322 319 320 319 319 320 323 323 326 326 327 328 326 325 325 328 328 329 330 330 330 328 327 327 328 328 331 336 336 351
324 322 319 320 311 309 318 324 329 325 322 323 326 326 322 321 321 320 319 320 322 323 325 326 326 328 325 324 324 322 325 327 329 329 332 331 327 326 327 327 328 329 331 346
322 323 319 321 310 310 318 323 327 325 323 323 323 322 323 321 320 320 319 321 322 323 326 327 328 326 327 324 323 324 326 328 329 328 329 330 331 327 327 329 328 330 333 343
317 323 319 321 310 311 319 324 328 327 324 323 322 318 321 321 320 320 321 321 321 322 323 327 327 326 325 328 327 326 327 329 331 333 330 331 331 331 327 327 328 329 335 347
313 323 319 321 310 314 325 326 327 327 324 323 322 322 323 321 320 319 318 321 322 323 325 323 324 322 324 327 327 327 329 332 334 337 334 332 331 332 331 328 328 329 345 344
313 322 319 321 311 309 317 325 326 328 327 324 322 322 320 319 320 321 318 319 321 323 322 321 321 321 322 323 324 324 328 332 331 337 333 335 333 331 331 335 330 339 339 340
314 317 320 319 317 308 313 320 324 327 331 327 322 322 320 319 320 318 318 318 320 321 319 322 324 324 325 324 323 325 326 331 334 336 334 333 332 332 331 334 336 334 337 338
317 313 321 318 320 310 309 317 324 325 328 327 322 321 320 321 323 323 319 318 319 319 321 323 327 329 330 329 326 324 327 331 333 333 336 335 333 329 328 330 337 332 333 337
317 315 320 319 319 314 309 317 323 323 327 326 322 321 322 320 323 324 322 320 319 319 324 324 329 329 326 326 330 326 329 330 329 329 333 332 329 328 326 329 335 331 333 335
317 317 317 320 319 317 309 318 323 323 327 326 323 321 322 321 322 325 323 322 322 322 324 324 327 327 328 328 328 329 330 329 330 332 334 334 327 327 327 332 329 331 333 334
317 317 319 321 319 318 310 311 324 322 324 328 326 322 321 321 323 323 324 325 326 323 325 325 325 325 325 326 326 326 328 329 331 330 335 329 327 329 328 329 329 329 330 331
317 316 318 321 318 318 311 313 322 323 319 319 322 323 322 321 320 320 320 323 322 324 322 325 324 326 324 325 325 326 325 326 327 328 330 326 325 325 325 326 326 325 327 329
315 314 315 319 316 316 311 310 318 320 323 323 320 319 321 320 320 320 319 322 324 323 322 321 324 324 323 323 327 324 325 326 324 325 326 325 324 323 324 323 322 322 324 327
315 313 314 316 317 313 310 310 316 319 323 326 325 322 322 321 320 320 319 320 322 321 321 322 324 323 325 324 323 324 322 323 324 324 325 327 324 324 323 323 322 321 322 324
315 314 313 316 316 310 311 317 311 316 321 324 327 324 323 321 320 321 320 321 322 321 322 323 324 324 324 323 325 325 323 323 323 324 324 324 323 324 324 322 322 323 322 323
315 313 314 317 311 310 315 319 321 317 321 323 325 325 324 322 320 321 321 321 322 322 323 323 324 325 321 321 326 326 325 324 323 323 325 325 324 324 323 322 322 322 322 323
314 313 317 310 309 310 311 316 318 317 320 319 319 324 324 323 321 322 322 322 322 323 324 324 325 327 326 326 325 326 326 324 323 324 324 324 324 323 324 323 323 322 321 322
313 317 310 309 309 314 314 315 316 315 321 321 318 321 326 323 321 321 322 323 325 324 325 324 324 326 335 329 327 327 327 326 326 325 324 323 324 324 324 323 322 321 321 320
315 309 312 315 313 318 316 315 323 318 318 323 324 320 328 324 321 322 325 323 325 328 328 325 328 330 327 326 328 328 328 326 325 325 324 323 324 324 323 322 321 321 319 320
308 313 318 319 315 317 318 317 320 319 316 315 320 322 326 322 324 325 325 325 325 327 329 328 329 330 330 328 327 328 327 327 325 325 324 323 323 322 322 321 320 319 319 319
313 316 319 319 316 319 320 321 318 321 320 319 318 318 324 321 325 325 325 328 326 327 325 327 336 328 329 330 327 328 328 326 325 324 323 323 322 322 321 319 319 319 319 319
314 317 319 319 319 321 322 322 321 320 319 319 319 320 326 326 325 326 327 328 326 323 328 328 330 329 330 328 326 326 326 326 325 324 323 322 321 320 319 319 320 319 318 318
316 317 316 320 321 322 321 322 322 321 320 321 319 319 326 324 324 324 324 323 324 326 327 327 326 331 329 327 326 325 325 324 324 323 321 320 321 321 321 321 320 318 317 317
315 316 319 320 320 321 322 322 321 320 321 321 320 318 320 327 325 324 324 323 325 325 325 326 331 330 328 326 325 324 323 322 322 322 322 322 321 320 319 318 317 315 314 312
313 315 319 320 321 322 322 321 321 322 321 321 321 324 324 324 325 323 323 323 324 324 328 331 331 329 327 326 325 323 322 322 321 321 321 320 320 319 317 316 313 312 311 312
313 316 317 317 319 321 320 321 322 324 325 327 325 324 325 324 325 323 322 323 323 324 327 329 329 328 327 326 324 324 322 322 322 320 319 319 318 317 316 313 311 312 311 311

GFSNW_850_thetae_105.txt.gz
Theta_e
314 324 323 320 320 316 312 322 324 324 322 322 323 323 325 325 321 320 319 319 319 321 327 326 329 329 328 326 325 327 325 325 326 328 328 326 326 325 324 326 332 336 336 353
313 322 323 320 320 311 311 322 324 326 325 322 321 327 326 322 319 320 318 318 318 322 326 328 329 327 326 326 325 325 324 326 326 327 327 328 325 324 324 322 322 327 335 349
313 318 324 319 320 309 310 323 327 327 326 325 322 325 326 325 321 321 320 320 319 320 325 325 329 327 325 325 325 323 324 323 325 327 328 327 330 326 324 324 322 324 326 347
314 313 322 319 320 309 310 322 326 327 327 323 322 324 323 323 320 320 319 320 321 323 324 326 326 324 324 326 326 324 323 324 325 327 329 328 329 329 326 323 324 328 344 347
315 313 321 319 321 309 311 321 325 328 329 327 323 319 320 321 321 320 319 321 321 323 325 327 326 326 326 327 325 326 323 326 332 332 333 333 333 330 332 329 325 341 348 346
315 314 319 319 321 309 323 326 326 327 329 328 323 321 323 322 320 319 319 320 321 323 325 324 323 324 324 327 327 325 327 330 331 335 331 333 335 331 332 335 335 335 343 342
314 316 315 320 320 313 309 316 322 327 330 330 330 325 322 321 320 321 319 317 320 322 322 319 321 321 323 323 324 323 327 330 329 333 332 336 332 329 330 334 334 333 337 336
314 316 314 321 319 319 308 311 322 326 329 330 331 327 321 320 319 318 317 320 320 319 318 320 325 326 326 326 326 323 325 328 330 332 332 333 333 332 330 330 333 333 335 341
314 315 317 317 319 319 312 309 320 324 326 330 329 327 320 320 322 323 319 319 318 319 319 321 329 328 326 328 327 326 330 331 330 328 332 336 333 330 328 328 336 330 335 338
315 316 317 315 320 319 316 310 325 323 324 324 327 328 323 320 322 325 322 320 319 319 322 324 330 330 326 327 328 330 328 327 329 331 334 332 330 329 327 335 336 330 334 328
316 316 317 315 320 318 318 311 316 322 325 325 325 326 325 321 321 326 323 323 322 322 324 325 330 326 325 324 327 332 331 329 331 325 327 332 328 328 327 330 330 331 337 335
315 317 317 315 320 319 317 310 318 323 323 320 324 325 324 321 322 323 324 326 326 325 325 327 328 327 323 324 329 325 329 329 332 329 328 323 328 329 329 329 327 327 329 335
317 317 317 316 321 319 318 311 321 323 323 319 314 322 323 321 321 320 320 322 324 323 322 326 327 326 325 328 326 328 328 327 329 330 328 329 328 325 325 325 324 324 326 328
315 316 316 315 321 318 318 313 316 319 321 325 320 318 320 322 321 319 320 321 324 323 322 323 322 326 323 325 327 325 327 326 324 330 329 325 324 324 324 323 321 321 324 327
316 315 314 314 319 316 317 315 312 320 319 324 324 323 322 320 320 320 320 320 322 323 322 322 323 327 326 325 321 323 324 325 323 327 327 326 324 324 323 322 321 322 322 325
315 316 313 314 316 316 312 312 313 315 317 322 327 326 322 321 321 320 320 320 321 321 322 323 325 324 324 322 327 324 324 323 323 327 325 324 323 324 323 322 322 322 323 323
316 315 313 313 316 313 311 319 320 313 317 322 326 327 324 322 320 321 321 321 322 322 323 324 325 324 322 321 324 325 325 324 323 325 325 324 324 324 324 323 323 322 323 323
315 314 313 316 316 313 311 317 318 318 321 322 323 325 324 323 322 321 321 322 321 323 323 324 327 325 326 326 325 325 326 324 324 324 324 325 324 324 323 322 323 322 321 321
314 314 316 312 310 310 313 313 315 316 319 323 320 323 329 323 323 321 322 323 326 323 325 324 326 327 331 329 327 326 327 326 325 325 325 324 324 324 324 323 323 322 321 321
314 313 310 314 313 318 315 315 319 317 317 322 325 322 329 324 324 323 325 323 326 328 327 326 328 331 328 327 327 327 328 327 325 325 324 324 324 325 323 322 321 320 320 319
310 312 317 319 314 317 318 318 322 320 318 316 320 322 326 322 326 326 325 328 327 330 330 330 331 330 328 326 327 327 327 327 325 325 325 324 324 324 322 321 320 319 319 319
312 315 318 317 318 317 319 322 319 323 320 317 316 320 323 322 322 327 325 329 329 329 327 330 331 331 329 329 328 329 328 327 326 325 324 323 323 322 321 320 319 319 319 319
313 317 317 317 318 318 321 322 323 322 321 319 316 319 321 320 323 325 327 327 328 323 330 330 327 332 331 330 328 328 328 326 325 324 323 323 322 321 320 319 319 319 319 318
316 317 316 319 320 320 322 322 322 320 321 320 320 322 327 320 324 326 327 327 325 329 330 329 329 333 329 327 326 326 326 326 325 324 323 322 320 319 319 320 319 319 318 317
316 316 317 319 319 320 321 322 321 321 320 322 321 321 326 326 328 326 324 324 325 327 327 326 331 330 328 327 326 326 325 324 324 322 320 320 320 320 320 319 317 317 316 313
313 315 318 319 320 322 322 322 322 322 322 322 321 326 326 325 325 325 326 323 325 325 333 333 331 329 327 326 325 325 324 323 322 321 321 321 321 320 319 318 315 314 312 312
313 315 315 317 319 319 320 322 322 322 323 325 326 326 325 324 325 325 324 324 324 331 333 332 329 327 326 326 324 324 323 322 322 321 321 320 319 318 317 316 313 312 311 311

GFSNW_850_thetae_108.txt.gz
Theta_e
314 313 319 323 321 320 309 317 320 323 324 320 318 316 319 324 323 318 316 316 315 319 323 324 327 328 327 325 325 322 322 319 324 325 323 322 321 322 321 323 327 334 339 347
315 313 314 323 320 320 309 315 321 324 325 317 315 316 320 322 322 318 317 317 316 322 324 325 327 326 326 324 324 322 320 319 324 325 324 324 324 324 321 317 318 329 336 345
314 314 313 321 320 320 310 317 318 326 326 324 318 317 318 322 321 319 318 318 318 320 322 322 326 325 325 324 325 325 322 317 324 325 324 324 326 326 325 318 319 320 325 340
314 314 313 318 320 320 310 316 319 326 324 323 323 319 319 321 319 318 318 318 320 319 324 324 325 324 323 324 325 325 321 321 322 324 331 331 331 331 332 329 323 323 326 341
314 314 314 316 320 320 309 311 323 328 326 327 323 318 319 319 317 317 316 318 323 322 323 322 321 324 324 324 321 324 320 325 328 332 329 330 333 332 335 336 335 347 346 347
314 314 315 314 320 320 316 324 323 325 326 326 325 318 318 319 316 318 318 318 318 321 324 323 322 322 323 323 324 321 326 325 327 332 328 331 334 331 333 335 334 335 344 341
314 314 315 314 320 319 311 309 316 323 326 327 329 328 325 319 318 318 317 317 318 320 319 319 318 322 321 323 321 320 325 323 323 327 326 334 330 329 329 332 332 336 340 338
314 314 314 316 314 319 319 309 312 323 324 327 328 328 325 317 318 317 316 319 319 318 318 314 320 322 320 319 323 322 321 321 325 326 328 330 331 329 330 329 331 334 339 339
313 314 314 315 315 319 318 315 309 319 324 323 325 326 324 316 317 319 318 319 318 319 313 316 323 323 324 324 325 321 320 321 323 324 329 331 329 329 328 328 332 332 334 334
314 315 315 316 316 317 318 316 322 318 323 323 324 327 325 323 320 318 318 319 319 318 314 322 323 323 324 323 326 326 322 322 324 326 328 327 326 325 327 334 331 333 332 333
315 315 315 316 316 315 319 318 311 317 323 322 319 318 324 321 322 318 320 319 319 316 319 322 322 323 321 321 322 328 329 324 327 321 325 327 326 327 328 328 333 332 331 328
314 314 316 317 317 315 319 318 313 320 319 322 320 320 323 321 321 323 323 323 323 322 319 319 321 322 320 318 324 321 326 325 327 327 323 321 326 327 329 329 334 331 337 329
314 315 316 316 316 317 319 318 312 319 323 321 316 317 323 323 321 319 319 322 323 322 322 322 319 320 318 322 320 325 324 324 324 323 325 326 326 323 323 322 325 329 330 331
315 316 316 315 315 319 319 318 312 318 320 321 321 318 318 321 322 321 319 323 323 322 321 321 314 319 318 318 320 321 321 320 321 323 325 327 324 324 324 321 322 325 327 333
316 315 315 314 314 319 319 318 316 312 316 320 321 320 317 319 320 321 319 320 323 323 320 315 315 322 320 317 314 317 321 317 320 323 325 322 323 323 323 322 321 322 325 327
316 316 316 313 315 317 316 314 316 311 312 318 322 325 320 320 321 320 319 319 320 321 321 320 323 324 320 315 318 321 322 323 323 327 325 324 323 323 322 321 321 322 322 324
316 315 315 313 314 316 312 316 317 312 313 319 322 323 324 321 320 320 320 320 320 321 321 322 323 322 320 314 317 321 324 324 325 324 323 324 323 322 322 322 322 323 323 323
315 315 314 313 315 315 315 318 316 316 316 322 318 318 323 322 321 321 320 321 321 321 322 323 323 323 322 320 319 325 324 324 324 324 324 324 324 323 323 322 322 322 322 323
315 314 314 315 313 313 315 315 315 318 320 319 318 318 324 323 322 321 321 321 317 321 319 320 323 319 322 321 324 327 323 323 323 324 324 324 324 323 322 323 322 321 322 321
314 315 309 309 312 315 316 314 316 316 316 318 321 324 321 323 323 320 321 322 319 322 321 323 318 318 324 325 325 327 326 325 324 324 324 324 324 323 323 322 322 321 320 319
314 311 315 318 314 316 318 318 319 320 317 317 319 319 320 322 323 321 324 323 318 321 321 322 322 323 325 327 326 328 328 327 325 325 325 324 324 323 322 321 320 320 319 319
311 314 317 317 316 318 316 317 317 319 318 316 316 319 319 322 323 323 323 323 323 325 321 324 322 322 326 327 327 326 327 327 325 325 324 324 324 323 322 320 319 319 319 319
312 317 317 317 316 312 317 318 318 318 320 318 315 320 321 322 321 323 320 324 323 322 323 324 319 325 327 327 327 328 327 327 325 324 324 323 323 322 321 319 319 319 319 319
315 316 316 315 315 316 317 319 319 319 320 320 315 321 321 320 319 320 323 322 322 323 324 324 321 327 327 328 328 328 327 326 326 324 323 322 321 320 319 319 319 319 318 317
316 316 316 317 317 318 319 320 321 321 321 322 317 322 322 322 322 323 323 325 326 322 324 321 324 327 329 328 327 326 327 326 325 323 322 321 320 319 319 319 319 318 318 317
314 315 317 317 318 318 320 321 321 321 322 322 321 320 323 323 322 323 323 322 322 320 321 324 324 330 329 327 326 325 326 325 324 323 322 321 319 319 319 319 319 318 317 315
314 314 314 315 315 317 319 320 321 319 322 321 322 322 321 319 322 323 321 320 317 329 330 329 327 330 327 326 326 325 325 324 323 322 321 320 320 320 319 318 317 316 314 308

GFSNW_850_thetae_111.txt.gz
Theta_e
318 315 315 312 319 321 317 314 316 322 318 320 313 316 316 321 322 321 316 313 315 320 323 325 326 326 326 324 324 323 320 317 322 322 322 321 321 323 322 326 326 335 338 341
320 315 315 313 316 320 316 309 317 322 321 318 315 314 318 320 320 319 316 317 316 321 322 324 325 324 324 324 324 323 321 318 322 324 324 323 323 325 320 315 316 328 334 335
321 315 315 314 316 320 317 312 316 323 321 320 316 317 318 319 321 320 316 316 316 321 322 321 323 324 323 323 324 327 321 317 322 324 325 324 329 331 329 315 317 318 324 325
321 316 314 315 315 320 317 311 315 322 321 322 323 321 322 325 322 317 317 320 321 318 323 323 323 323 320 322 323 323 321 321 320 321 329 329 332 334 335 332 332 319 321 321
320 315 314 315 314 320 315 309 321 325 325 325 324 319 321 323 322 315 316 320 322 319 321 318 319 321 321 323 320 320 319 326 326 329 329 330 330 331 334 334 336 335 341 343
321 316 314 314 314 320 313 321 320 321 324 324 325 324 322 321 316 317 317 318 320 321 321 322 320 321 321 321 322 320 323 324 326 329 326 328 330 329 331 333 336 337 339 339
319 316 314 314 315 317 319 309 311 321 323 324 327 327 327 319 316 316 317 319 318 321 319 319 320 320 321 321 321 318 322 321 323 326 325 331 327 328 329 330 332 336 340 337
316 314 313 314 314 315 318 318 309 320 321 324 325 326 325 317 317 316 318 317 318 318 317 314 318 318 319 319 321 319 318 320 323 325 325 327 331 329 328 328 329 334 338 336
313 313 314 314 315 315 315 318 315 316 320 321 324 325 325 316 315 317 317 318 318 318 311 319 321 320 323 322 322 320 319 316 321 322 327 331 328 327 328 327 330 333 336 339
313 314 315 315 315 315 315 318 314 313 319 324 323 325 323 323 317 315 317 318 317 317 313 321 320 321 323 321 324 325 320 320 322 325 325 324 322 326 326 331 328 333 336 337
314 314 315 314 315 316 315 318 317 317 316 320 321 320 321 321 319 315 317 318 318 313 317 320 320 320 320 320 320 326 325 323 322 319 323 324 324 325 327 326 333 332 335 335
314 314 313 313 315 315 315 317 316 314 314 317 320 320 320 318 319 318 321 321 320 319 317 317 318 320 318 316 322 321 326 322 323 323 322 320 324 326 328 331 332 330 331 330
314 314 313 314 313 314 314 317 313 312 315 319 319 312 316 318 320 318 320 322 324 322 321 319 316 320 316 319 319 321 321 322 323 322 322 324 323 326 329 331 331 333 328 330
315 315 313 314 313 313 315 317 317 312 317 318 319 320 318 316 319 321 319 322 323 322 321 318 312 316 316 316 318 320 321 320 321 321 324 325 322 322 326 328 331 332 332 330
316 315 315 314 314 314 318 319 317 312 314 317 319 316 316 317 319 321 320 322 323 321 319 313 314 317 317 313 312 317 320 315 321 321 324 323 323 322 325 324 326 329 330 332
317 316 315 314 313 316 318 314 318 315 310 316 318 321 321 316 316 319 319 320 323 322 321 318 319 323 317 314 314 316 320 321 323 324 326 323 323 321 321 322 323 323 326 332
315 315 315 313 313 316 314 314 315 314 310 316 320 320 324 324 320 320 319 319 320 320 320 319 320 320 317 312 319 321 322 322 323 324 325 323 322 321 321 321 322 322 321 326
315 315 314 313 313 315 315 316 316 313 314 320 318 317 320 320 319 320 320 320 320 320 320 322 321 322 318 316 316 321 323 324 324 324 324 323 322 321 322 322 322 322 322 323
315 314 314 314 314 314 314 315 314 313 314 318 314 314 322 323 320 320 320 320 316 318 317 317 320 317 320 319 321 326 323 324 324 323 323 323 322 322 322 322 322 322 322 322
313 314 312 311 312 312 314 314 315 316 317 318 318 321 320 323 322 319 320 319 317 320 318 319 317 317 323 323 324 325 324 324 324 324 323 323 322 322 322 322 321 322 322 323
314 310 313 318 314 315 318 317 316 318 316 316 318 318 318 321 323 321 322 318 316 320 318 319 319 318 320 324 324 325 323 323 323 324 324 324 323 322 322 322 321 321 321 321
311 314 316 316 317 317 315 315 316 316 316 315 315 317 317 318 324 323 323 323 322 323 320 322 319 319 324 322 324 326 325 324 324 324 325 324 323 323 322 322 321 320 320 319
311 316 317 316 315 311 315 316 316 315 318 317 317 319 320 322 322 321 321 323 322 320 321 322 318 321 325 326 325 327 327 327 326 325 324 324 323 322 322 321 320 319 319 318
314 316 313 313 313 314 314 314 315 318 319 320 316 320 319 319 318 318 322 320 320 323 321 322 319 323 323 324 326 326 327 326 326 325 324 324 323 322 320 320 319 319 318 318
315 315 315 315 314 316 317 318 319 320 321 321 316 321 320 319 319 319 320 323 324 322 322 321 322 321 323 325 327 327 327 327 325 325 323 323 322 320 319 319 319 319 318 317
314 314 315 316 315 316 318 319 320 320 321 320 319 320 320 321 320 323 322 323 324 320 317 321 321 323 324 326 328 327 328 327 325 324 323 322 321 320 319 319 319 318 317 317
314 314 314 314 314 314 316 318 320 318 320 320 321 322 322 319 320 321 320 320 315 321 325 324 325 324 324 327 328 327 326 326 325 323 322 321 320 319 319 318 318 318 317 316

GFSNW_850_thetae_114.txt.gz
Theta_e
322 322 319 315 314 315 321 310 314 317 317 318 311 315 315 319 321 319 314 313 314 319 322 324 323 324 324 324 323 322 319 317 321 323 320 320 322 328 324 328 327 333 333 336
322 322 319 315 314 317 319 311 316 320 319 316 314 314 316 319 319 319 315 315 314 320 321 322 324 323 323 323 323 322 318 317 323 324 324 325 323 328 319 314 317 331 332 330
322 322 319 315 314 317 319 310 313 321 319 317 316 317 318 319 321 319 316 314 320 319 321 320 321 323 322 322 323 325 320 316 322 324 325 325 331 331 332 313 316 318 326 321
322 321 318 314 315 316 319 310 312 319 319 319 321 319 322 324 325 317 317 321 317 319 322 322 321 322 320 320 321 321 317 319 321 321 327 330 331 331 333 331 331 319 328 337
320 320 318 314 314 315 319 309 320 322 323 323 323 319 322 322 321 317 315 320 320 318 318 318 317 319 320 321 319 319 318 322 326 329 327 329 330 330 333 334 338 336 336 342
319 319 317 314 314 315 317 318 318 319 321 321 322 322 322 326 323 316 317 320 320 319 318 319 319 319 319 320 321 320 323 324 324 326 326 327 330 329 331 332 335 336 340 336
318 317 315 314 314 315 317 316 309 318 320 321 324 326 326 326 324 315 316 321 318 319 320 319 320 319 319 320 319 317 321 321 324 326 325 330 327 327 327 329 331 334 338 337
313 312 313 313 313 314 315 317 311 318 321 322 323 325 324 319 315 315 317 318 318 318 316 313 316 316 319 319 319 317 316 319 322 325 325 325 331 330 328 327 329 331 337 337
313 313 313 314 314 314 314 315 318 312 318 321 323 324 324 315 314 315 317 317 317 317 314 316 319 319 321 321 322 318 317 315 320 321 326 329 326 328 327 326 331 331 335 339
313 313 313 314 314 314 314 315 317 315 316 317 323 323 321 322 317 314 314 316 316 317 314 318 318 320 321 320 322 323 319 319 321 322 324 323 321 326 327 332 328 332 337 339
313 314 314 314 313 313 313 315 316 310 313 313 317 321 320 320 318 314 315 316 317 312 316 318 319 318 319 319 318 324 321 321 321 318 322 322 322 325 328 325 330 334 337 337
313 314 314 314 311 313 312 314 315 315 315 315 317 318 318 321 320 319 318 317 317 316 314 315 316 319 316 314 321 319 324 320 321 319 319 319 322 324 326 330 332 332 335 335
314 314 314 312 312 312 312 313 314 313 312 314 314 314 312 314 315 317 317 321 323 321 321 317 316 319 314 318 318 320 320 320 321 320 322 323 324 328 332 333 331 331 331 330
314 315 313 313 313 312 311 313 314 314 314 315 319 318 315 318 316 318 317 318 321 321 321 316 312 315 315 315 316 319 319 319 319 319 322 324 324 326 329 330 332 331 331 329
314 316 315 314 312 312 312 313 315 315 313 314 317 316 313 316 317 318 321 318 320 320 317 312 313 314 314 311 312 315 318 318 321 320 324 322 323 326 326 325 330 330 329 328
315 315 315 315 313 312 313 316 319 315 313 312 314 317 315 318 317 319 320 321 321 321 320 316 316 320 316 314 314 315 321 320 323 322 325 322 323 325 326 324 325 331 331 332
315 313 314 314 312 312 314 312 314 317 312 314 317 318 322 322 321 317 318 320 321 321 319 318 319 319 316 311 316 320 321 321 321 322 324 321 322 323 323 320 320 320 324 331
314 314 315 314 312 312 316 315 312 314 311 315 318 316 318 320 318 319 319 318 319 319 319 318 318 319 314 315 316 320 321 322 322 323 324 324 321 321 322 321 321 321 323 332
312 314 314 313 313 313 312 313 314 311 312 317 314 314 318 322 318 318 319 319 316 317 316 317 319 315 319 317 318 320 322 323 323 323 323 323 322 321 321 322 321 321 322 327
312 313 313 313 311 311 312 312 312 311 312 317 316 319 319 322 321 318 318 317 315 318 316 317 317 317 322 323 322 322 322 323 323 322 321 321 321 321 322 322 322 321 321 321
313 313 311 316 316 314 316 316 316 316 316 315 317 317 316 318 322 321 321 316 315 320 318 318 317 316 316 322 323 322 323 323 323 323 323 323 323 321 322 322 322 321 321 321
312 312 315 315 316 316 315 314 314 315 314 314 314 317 316 316 323 322 321 321 320 322 318 321 320 318 321 320 321 323 323 323 323 323 323 323 323 322 322 322 321 322 322 321
311 314 316 316 315 313 315 316 316 314 316 316 316 317 318 321 322 321 320 321 321 319 320 321 319 319 322 322 320 322 324 323 323 323 323 323 323 322 321 321 321 321 321 321
312 316 313 313 314 313 313 313 313 316 318 318 316 319 318 319 318 319 323 321 320 322 320 321 320 322 322 323 323 322 323 324 324 323 323 324 324 323 321 321 322 321 320 319
314 316 315 316 314 314 316 316 317 319 320 320 318 319 319 316 318 318 319 322 322 321 321 318 319 320 321 322 324 324 325 325 325 325 325 324 324 323 322 321 321 320 319 318
314 315 316 314 314 314 316 317 318 320 320 319 319 318 317 319 317 321 321 322 323 321 318 319 321 323 321 321 321 324 326 326 326 326 325 324 323 323 322 321 320 319 318 318
313 314 314 314 314 314 314 316 318 319 318 318 319 319 320 316 319 321 319 320 317 318 322 323 324 324 324 323 324 326 326 326 326 325 324 324 323 323 321 319 318 318 318 318

GFSNW_850_thetae_117.txt.gz
Theta_e
321 321 321 320 317 315 319 310 319 315 316 320 315 321 320 319 322 319 316 315 316 320 324 327 326 326 326 324 324 325 323 324 327 327 324 323 333 335 336 337 337 341 342 336
321 321 321 318 315 314 319 317 314 316 317 321 321 318 319 319 320 321 316 317 317 323 325 324 325 324 323 323 324 325 322 324 326 327 327 327 330 334 328 325 330 337 336 333
319 321 321 318 315 314 319 313 318 319 317 317 320 321 322 322 320 321 319 317 322 324 325 324 323 325 323 322 323 325 321 323 326 326 329 329 336 335 336 329 329 332 332 332
318 319 320 318 314 314 319 310 314 318 323 321 320 321 324 324 325 320 317 320 321 323 324 324 325 324 323 322 322 323 324 326 325 325 330 331 332 333 337 333 337 326 330 341
318 318 320 317 314 315 318 312 320 320 323 322 325 322 326 326 326 324 318 321 321 323 324 324 323 323 324 326 323 325 325 327 328 330 329 328 332 330 335 338 340 341 341 343
318 318 318 316 314 314 317 313 317 318 320 323 325 326 324 324 326 323 318 320 322 322 322 321 319 319 320 323 325 326 329 331 330 328 328 328 331 330 330 335 337 339 343 342
316 314 313 313 313 313 315 317 311 316 321 324 327 327 326 327 326 325 316 321 323 321 320 319 320 320 321 323 324 321 328 330 331 329 329 330 329 329 330 332 333 337 340 339
314 314 313 313 314 314 314 314 316 313 322 323 323 325 326 324 317 321 318 319 319 320 317 320 321 323 323 323 324 324 322 328 330 330 331 328 331 330 330 330 331 334 339 339
312 312 313 313 314 314 314 314 316 313 318 318 322 325 324 321 317 317 316 315 318 316 320 321 324 327 325 325 327 322 323 324 328 328 329 329 330 328 328 328 333 331 338 339
313 312 313 314 314 313 313 313 315 316 313 313 321 324 323 321 319 318 316 316 316 316 323 324 327 329 325 328 327 328 328 328 329 330 331 328 325 326 328 333 332 334 338 338
313 312 313 314 314 312 312 313 313 314 312 316 314 321 321 320 318 319 316 319 317 320 325 325 328 328 328 325 324 328 329 331 333 328 331 329 324 326 332 329 331 335 338 337
312 312 314 314 313 312 312 312 313 314 312 314 316 317 314 317 319 321 317 319 319 320 322 323 325 327 324 324 328 322 332 327 332 329 329 325 324 326 326 326 334 335 336 334
311 313 314 313 312 312 312 312 312 313 312 315 315 317 317 315 316 315 317 318 319 318 320 322 324 329 323 327 327 327 325 323 329 327 327 326 326 326 327 330 333 334 335 334
312 312 314 313 312 312 312 311 312 312 313 314 318 318 317 316 314 315 316 317 319 319 320 320 324 325 320 324 324 326 325 325 328 328 326 327 327 327 328 331 331 332 332 331
312 313 313 313 312 312 312 311 312 312 313 314 314 315 315 314 317 317 317 317 317 318 318 321 322 319 321 318 320 325 323 328 329 324 328 329 328 326 328 330 332 330 329 331
312 312 313 313 312 311 311 312 315 313 313 312 317 317 316 320 317 318 320 319 318 318 319 319 316 319 322 324 326 324 322 322 324 326 323 324 325 324 323 323 330 329 329 330
311 312 312 313 312 310 313 312 312 315 314 311 317 320 320 321 319 317 316 318 320 319 318 320 322 320 319 322 326 324 320 322 320 322 324 322 324 325 324 322 323 329 331 331
310 312 313 313 312 311 312 315 315 313 315 311 320 322 319 321 318 319 318 319 319 318 318 318 322 318 318 324 322 320 321 321 321 321 325 324 323 323 321 321 320 321 330 331
311 311 313 312 312 313 312 312 312 313 311 316 317 320 323 321 318 318 318 318 322 317 322 321 321 323 330 325 324 319 321 322 322 322 323 323 322 322 321 321 321 321 328 330
312 312 312 312 311 310 311 311 312 312 313 312 319 318 321 321 322 320 321 319 322 322 321 318 323 325 321 321 321 321 322 322 322 323 322 321 323 321 321 321 321 321 322 328
312 313 311 312 316 313 314 317 315 313 317 316 318 318 318 317 327 325 322 322 321 324 323 323 325 324 322 320 322 322 321 321 323 323 323 323 322 321 321 321 321 321 321 322
313 311 314 315 315 315 316 319 316 317 318 315 315 317 317 315 322 325 323 326 325 326 321 325 329 325 321 320 319 320 322 322 322 323 323 323 322 322 321 321 322 321 321 321
312 312 315 316 315 316 318 319 319 319 318 317 316 319 319 320 321 323 325 324 326 322 325 328 326 322 321 321 320 319 322 323 323 323 322 322 322 322 322 322 322 322 321 321
311 315 313 316 316 316 317 317 317 317 317 318 316 320 321 319 323 324 324 323 322 325 326 325 325 322 321 321 321 319 320 323 323 323 323 323 323 323 322 322 322 322 322 322
313 315 317 316 315 314 315 315 316 317 318 318 318 320 320 322 322 323 323 324 325 324 324 323 321 320 320 320 320 323 321 321 324 323 322 322 323 324 323 321 321 322 322 322
313 314 316 316 316 316 316 317 318 317 319 317 319 322 323 322 322 323 324 324 325 324 323 322 319 320 324 320 320 320 323 322 322 324 323 322 323 324 323 321 320 321 321 321
314 314 314 315 315 315 315 315 315 319 319 323 321 322 321 320 322 323 323 323 323 321 319 320 321 322 325 324 321 320 322 324 324 324 324 324 324 323 323 322 321 320 320 319

GFSNW_850_thetae_120.txt.gz
Theta_e
320 321 321 321 320 318 315 315 319 316 312 319 321 324 326 323 324 323 321 320 321 321 322 324 324 326 328 326 325 325 326 326 328 328 328 328 328 334 334 336 335 338 337 343
320 319 321 321 319 316 314 321 317 316 317 322 323 323 324 324 325 323 321 320 321 322 323 323 323 323 325 325 324 325 325 324 327 327 328 329 330 333 334 333 335 338 337 338
319 319 319 321 318 315 315 318 320 320 318 321 323 322 324 325 323 324 322 321 321 323 324 324 323 323 324 324 324 325 324 322 322 325 327 330 335 335 336 335 334 332 333 335
319 319 319 320 318 315 315 316 317 323 321 321 322 322 321 324 326 324 324 324 322 323 324 324 324 323 324 324 323 325 326 325 324 324 324 329 332 333 335 336 334 335 331 334
318 318 319 319 318 315 316 317 320 323 326 325 322 320 324 324 326 327 324 324 324 324 324 323 323 324 325 324 326 327 327 328 326 326 325 328 330 330 331 335 337 338 339 338
317 316 315 316 316 314 316 314 316 320 322 327 326 323 324 324 324 326 326 323 324 323 323 323 323 323 323 324 325 326 328 329 330 329 326 328 329 328 330 331 333 335 337 340
314 314 314 314 314 313 314 315 315 315 322 323 328 327 326 326 327 328 323 324 324 324 323 323 322 323 323 323 324 324 327 328 328 329 329 334 327 329 329 330 331 332 333 338
315 313 313 313 314 314 314 314 316 314 320 320 323 327 329 328 328 327 325 321 323 323 323 323 324 323 322 322 322 324 325 327 327 330 330 327 327 329 331 332 330 329 331 340
314 313 312 313 313 313 313 314 314 315 317 320 320 324 326 329 327 323 321 318 322 322 322 323 324 324 324 325 327 326 325 329 329 327 331 330 332 331 329 329 333 330 332 341
315 314 313 313 314 313 313 314 313 315 315 317 318 323 324 325 322 323 320 319 320 321 323 324 324 324 327 327 327 330 329 329 328 328 331 328 328 329 329 334 336 336 339 342
315 313 312 313 314 313 313 313 313 313 316 317 317 318 322 324 322 322 321 320 320 321 324 324 325 323 328 328 327 328 329 331 330 329 331 331 327 329 333 333 335 338 341 342
315 312 312 314 313 312 312 312 312 312 313 316 317 317 317 318 319 322 320 323 321 321 323 325 325 326 329 327 329 327 332 329 332 329 331 331 329 329 330 330 336 339 339 339
314 312 312 314 312 312 312 313 312 312 313 316 317 317 317 318 316 318 321 321 323 322 326 324 325 327 327 327 327 329 329 329 329 331 331 330 330 330 330 334 337 339 336 337
314 312 312 313 313 312 312 313 312 312 314 318 319 319 319 319 317 315 317 319 320 322 324 324 325 325 327 327 329 329 329 329 328 327 329 330 331 333 334 335 338 337 335 333
313 311 312 313 313 313 313 313 313 312 313 318 318 317 318 316 318 319 318 317 320 322 324 325 324 325 326 326 326 326 328 329 326 327 326 332 331 331 334 336 335 335 335 333
312 311 312 312 313 313 312 312 314 312 311 315 319 318 319 320 319 319 320 320 321 321 323 324 324 325 325 325 325 325 325 327 328 326 327 330 328 329 330 333 334 333 334 332
312 310 312 312 313 312 311 314 312 313 312 315 318 321 321 321 320 320 322 321 320 322 323 323 324 325 323 323 324 324 324 327 328 327 328 328 327 327 329 331 334 333 334 333
310 310 311 313 313 311 311 313 313 313 314 314 319 322 321 322 320 320 320 321 322 322 323 323 323 323 323 322 322 321 325 326 326 325 327 326 326 327 326 327 329 333 334 333
310 310 311 313 312 312 315 312 313 313 313 317 320 322 324 323 322 322 321 323 324 323 323 323 324 323 327 323 322 322 324 326 325 325 327 327 327 327 326 327 328 328 330 332
311 311 312 312 314 311 311 312 314 312 313 314 317 320 322 322 322 322 322 322 324 324 324 323 323 324 322 322 323 326 325 326 326 326 327 327 327 327 326 326 326 327 331 331
312 312 313 313 312 312 315 318 317 316 318 317 318 319 320 321 327 324 323 323 323 325 325 324 325 326 323 323 323 323 326 327 327 326 326 326 326 326 326 326 326 327 328 330
313 312 312 315 315 317 318 319 318 319 320 319 318 319 319 319 324 327 325 325 325 325 324 325 328 327 323 322 323 324 326 326 326 326 326 326 325 325 326 326 326 326 327 331
312 312 314 315 317 320 319 320 320 320 318 319 317 320 319 321 324 325 327 325 324 324 327 325 326 324 323 323 323 325 324 327 325 326 327 327 325 325 325 326 326 326 327 328
312 314 318 318 317 318 319 319 319 319 319 320 319 319 320 321 323 324 324 325 325 324 325 326 325 324 326 328 327 327 325 326 326 327 327 327 327 326 326 327 327 327 326 326
312 314 319 317 317 317 317 318 318 320 321 320 320 321 321 322 322 322 323 323 325 324 323 323 322 323 330 328 327 326 325 325 326 327 327 327 327 327 327 327 327 327 326 324
313 315 317 317 318 318 318 318 319 319 318 318 320 321 321 321 320 321 321 321 322 323 324 324 326 327 329 330 328 326 326 326 325 327 327 327 326 326 326 327 327 326 324 322
314 316 316 317 318 317 318 319 319 319 321 322 321 321 321 322 322 321 321 322 321 320 322 325 327 328 326 323 326 325 326 328 327 328 327 327 327 327 327 326 326 326 325 322

GFSNW_850_thetae_123.txt.gz
Theta_e
320 319 319 320 321 321 317 321 322 320 317 316 318 322 325 327 329 324 325 324 324 323 324 325 325 327 329 327 327 327 328 328 330 330 330 330 333 336 336 335 338 338 338 343
320 319 319 320 321 318 316 322 323 321 316 318 320 322 324 327 329 326 324 323 323 323 324 325 324 325 327 326 325 326 327 327 326 328 327 330 329 329 329 335 336 340 341 341
320 319 319 320 321 318 316 321 323 322 317 319 323 325 325 327 326 327 324 323 323 324 325 325 325 323 324 323 322 323 323 322 323 323 325 328 331 332 334 335 335 336 337 336
319 318 318 320 320 318 316 322 322 324 323 320 321 325 325 325 327 326 324 324 323 324 326 326 326 324 324 324 323 322 324 325 325 324 323 324 325 333 332 332 337 333 334 336
317 317 316 316 318 317 318 321 323 323 323 326 321 320 324 323 326 327 326 326 325 324 325 327 326 326 326 325 327 327 327 328 327 327 326 325 324 328 332 333 333 335 335 335
316 315 315 315 315 315 319 319 318 320 321 324 327 325 323 324 324 326 327 326 326 326 325 325 324 324 324 325 325 326 328 328 329 330 327 328 329 327 328 331 330 334 336 336
316 315 314 314 315 314 317 318 317 318 320 323 326 326 323 323 324 325 327 327 326 325 324 324 324 323 324 324 323 323 325 329 328 327 327 330 329 327 328 330 329 329 332 334
315 315 313 313 313 314 315 315 317 318 321 320 322 326 330 325 324 326 326 326 326 325 325 325 325 326 326 326 324 323 324 326 328 330 331 331 328 329 330 332 330 329 331 333
315 315 314 313 313 313 314 316 314 317 319 320 320 322 325 328 329 328 327 325 324 325 326 325 326 327 326 326 326 326 324 326 327 328 331 334 331 326 324 327 332 331 331 331
315 315 314 313 313 314 313 315 314 316 319 318 318 319 323 326 328 329 326 324 324 324 325 324 326 327 326 326 326 331 329 328 328 329 329 331 330 330 329 334 336 334 333 332
313 315 313 312 313 313 312 316 314 315 318 319 319 319 320 324 326 328 324 324 324 324 325 325 326 328 327 326 326 328 329 330 331 331 333 334 329 330 330 335 334 336 342 342
312 314 313 311 312 312 312 314 314 313 314 317 318 318 319 320 321 322 325 323 324 322 324 326 325 327 326 328 328 329 330 331 335 331 333 332 331 329 332 332 334 337 341 342
312 314 313 312 313 312 312 314 313 312 315 317 318 318 316 316 318 320 322 323 326 324 327 326 326 326 327 328 328 331 330 329 328 331 332 330 330 331 330 333 338 341 341 340
310 313 313 312 313 312 312 313 314 313 314 319 322 320 319 320 320 319 319 320 322 324 325 325 326 325 325 327 330 329 330 330 328 328 327 329 331 333 335 337 337 338 339 337
310 312 312 312 312 313 313 314 314 313 314 317 320 319 319 320 320 320 319 319 320 324 325 325 326 325 328 325 327 326 329 328 327 329 328 334 333 334 336 337 336 335 335 335
310 311 312 312 312 313 313 313 314 313 313 314 322 320 320 320 319 320 320 319 320 323 325 325 325 326 324 326 326 325 326 326 325 328 327 332 332 334 336 335 335 334 334 333
310 311 311 312 313 313 313 316 314 313 312 314 321 322 320 321 321 319 321 322 321 323 323 324 326 326 322 324 325 326 325 325 327 325 327 330 328 328 330 332 333 334 333 333
310 310 311 312 313 313 313 314 313 313 313 316 321 323 322 321 320 321 323 324 323 323 322 322 325 327 323 324 324 323 322 325 326 325 325 327 328 328 329 331 331 333 333 332
310 310 311 312 313 313 315 315 312 312 314 318 320 323 325 322 321 322 323 323 325 323 326 326 325 328 327 325 324 324 323 324 326 325 324 327 327 328 327 327 329 333 332 332
309 311 312 313 314 313 314 313 314 313 314 316 320 320 325 323 323 323 323 324 325 326 326 324 326 328 326 325 325 325 324 323 324 325 325 326 326 328 327 327 327 327 330 331
310 312 313 314 312 314 317 318 319 319 320 319 319 319 321 321 326 325 323 328 327 328 328 328 329 330 328 324 325 325 325 324 325 326 325 325 326 327 327 326 327 328 328 331
312 313 313 314 315 317 319 320 320 321 320 320 320 319 320 321 323 325 325 327 326 329 326 327 331 327 325 324 324 324 324 324 325 326 325 325 325 325 327 326 327 328 329 329
311 311 313 316 318 320 321 321 322 322 320 320 319 322 321 321 322 324 326 327 329 326 328 328 328 325 325 325 325 323 324 325 324 324 325 326 325 325 325 325 327 327 329 330
311 313 320 319 320 320 320 320 320 320 320 322 320 320 321 320 322 324 324 326 326 327 328 326 325 326 326 325 324 324 325 325 325 324 325 326 326 325 324 325 327 327 330 329
311 314 317 317 318 319 319 319 320 320 320 321 322 322 321 322 322 322 324 325 326 325 325 324 324 324 326 328 329 327 326 325 325 325 326 325 327 326 326 326 327 327 329 329
312 314 317 318 319 319 319 319 319 320 320 320 321 322 321 321 320 322 322 323 325 325 325 325 327 329 330 331 330 328 327 326 326 325 326 326 327 328 328 328 328 329 329 329
314 316 316 317 319 320 320 321 321 320 319 321 321 321 322 321 321 322 321 322 322 322 322 325 330 331 331 332 332 332 329 328 327 326 328 328 329 328 329 329 329 329 330 329

GFSNW_850_thetae_126.txt.gz
Theta_e
319 320 320 319 320 320 320 322 326 324 321 320 321 322 320 322 325 330 328 326 326 326 326 326 326 328 329 329 328 329 328 328 330 331 331 331 330 332 335 335 336 337 340 341
320 320 319 318 320 321 319 323 324 324 321 321 320 321 321 322 325 329 328 326 325 325 325 325 327 327 329 328 328 327 327 328 327 326 328 330 330 330 331 333 334 338 344 343
320 319 318 318 319 320 318 323 326 324 323 320 319 321 322 322 324 329 328 325 324 325 324 326 327 325 326 325 324 322 323 326 325 325 326 325 329 331 332 333 335 336 338 338
318 317 317 316 317 319 319 324 324 323 325 325 322 321 323 326 325 326 328 326 325 324 325 327 326 326 326 325 322 322 322 323 323 324 325 325 324 325 326 333 332 334 336 337
317 316 316 316 316 317 319 324 323 323 323 323 325 322 323 326 326 327 328 328 326 325 325 327 328 328 327 326 326 327 325 326 327 327 326 325 325 326 325 329 331 331 332 337
316 315 316 315 315 315 322 322 323 321 321 321 324 327 323 323 325 325 327 327 327 326 325 325 327 327 326 326 327 327 327 328 329 330 328 329 329 328 330 332 332 331 333 334
315 315 315 313 313 314 317 320 321 322 323 321 321 323 325 328 324 326 326 328 328 327 326 325 326 326 325 325 325 324 325 328 329 329 327 327 328 330 330 330 330 329 330 333
315 315 315 315 314 313 314 318 319 321 324 320 321 323 323 326 329 324 324 328 328 328 326 327 327 326 325 326 326 325 324 326 326 328 329 329 329 331 330 330 331 331 332 332
315 315 315 315 314 313 313 317 317 317 320 322 319 321 321 325 329 330 323 325 328 327 328 327 328 327 328 329 328 326 325 325 326 327 329 330 332 330 328 329 330 327 334 333
314 314 315 314 313 313 313 315 316 317 320 320 320 320 321 322 325 331 330 328 327 326 328 327 327 328 328 329 328 329 330 327 326 328 328 328 332 329 330 336 338 330 328 330
312 312 313 313 312 313 313 316 316 317 319 320 320 321 321 321 324 329 328 327 326 326 329 328 327 327 330 330 328 326 329 334 333 332 335 335 332 331 334 336 335 327 325 328
309 311 312 313 312 311 312 314 317 316 315 317 318 319 319 320 321 322 324 326 327 325 325 328 326 327 330 328 328 328 327 329 332 334 335 333 332 332 330 330 331 334 328 326
307 310 312 313 312 312 312 313 315 315 315 317 319 319 319 319 317 320 323 324 324 325 326 329 327 332 329 329 329 331 331 330 332 333 330 331 331 330 331 331 332 326 335 338
308 310 311 313 311 312 312 314 314 314 314 317 320 322 322 321 319 318 320 322 322 321 322 327 328 330 327 328 330 331 331 331 330 330 329 332 333 333 332 336 337 339 339 338
309 309 311 312 312 313 313 313 314 314 314 318 318 318 321 321 321 321 320 320 321 321 324 326 329 327 326 328 328 330 330 330 330 332 332 330 329 327 334 337 334 326 337 336
309 309 310 312 312 312 313 314 316 315 314 314 320 321 320 321 321 322 322 321 321 321 322 326 325 326 327 330 329 331 329 327 328 329 334 332 332 332 334 336 335 335 335 335
309 310 311 311 312 313 314 316 315 315 314 314 320 323 321 321 321 321 321 321 321 321 322 323 326 326 327 327 327 327 327 327 327 326 329 332 330 337 336 336 335 334 333 332
309 310 311 311 312 313 313 315 314 314 314 316 322 323 323 322 322 322 321 322 322 322 322 322 325 326 327 329 326 326 325 326 328 325 327 329 329 330 330 331 333 333 332 332
310 310 311 311 312 313 315 315 315 314 314 317 322 323 327 322 324 322 321 324 327 323 327 326 326 327 331 328 329 325 325 324 327 326 325 326 330 329 329 330 329 332 332 332
309 310 312 313 314 315 315 313 314 314 314 315 320 320 325 323 324 325 325 325 327 328 327 324 327 328 324 324 327 325 326 325 324 326 325 325 329 329 327 327 332 333 333 331
309 312 313 315 314 315 316 318 319 318 320 319 319 319 322 323 326 327 325 330 329 331 330 328 328 329 330 328 327 326 327 326 325 325 326 325 327 328 328 327 327 329 333 332
311 313 313 315 316 316 319 321 321 321 322 320 321 320 320 323 324 325 324 328 329 330 328 328 330 331 327 328 327 327 327 327 325 325 326 327 325 327 328 327 327 328 331 333
311 312 312 316 318 320 320 322 323 323 321 322 321 322 321 321 323 326 325 326 329 327 331 330 329 329 328 328 327 327 326 326 326 325 326 327 325 325 328 326 327 328 331 333
310 312 313 317 320 320 321 321 323 321 322 322 320 320 322 322 323 325 326 326 325 330 330 330 328 329 327 327 327 327 327 326 326 325 325 326 326 326 327 327 327 328 329 333
311 313 316 318 318 319 320 320 321 321 322 322 323 322 321 323 324 324 325 325 326 327 326 329 328 329 328 327 327 326 326 326 326 326 326 325 326 327 326 326 327 329 330 329
311 313 316 318 320 320 320 321 319 322 322 321 321 324 324 324 324 324 325 323 325 327 327 327 330 332 332 332 331 329 328 327 327 327 326 325 325 328 326 326 327 330 330 330
313 315 317 317 318 319 319 320 320 321 321 320 320 322 324 323 323 322 322 322 323 324 327 329 323 324 329 334 333 332 330 329 327 326 326 326 326 328 327 327 327 331 330 329

GFSNW_850_thetae_129.txt.gz
Theta_e
322 321 320 319 318 317 319 320 324 324 323 323 323 324 323 321 320 320 321 325 326 325 327 328 328 330 329 328 328 328 326 324 326 328 326 328 328 328 328 330 333 333 334 339
321 320 319 318 317 318 320 320 323 324 323 321 321 321 322 322 321 321 321 327 326 324 325 326 326 329 329 328 325 326 324 325 325 324 323 324 329 329 333 330 329 336 335 338
319 319 318 317 316 317 319 320 326 325 324 323 323 322 320 320 321 321 322 323 326 324 325 325 327 328 327 326 323 322 323 322 324 322 322 320 323 323 326 329 329 331 334 336
317 317 316 316 316 317 318 322 325 324 325 325 324 324 326 324 321 324 324 328 326 325 325 325 326 327 324 324 322 322 319 321 323 320 321 324 324 324 324 323 331 331 330 333
316 316 315 316 316 316 320 323 324 324 323 323 323 322 326 327 322 323 325 328 328 325 327 325 327 325 327 326 323 324 320 321 325 327 325 325 324 324 323 324 328 329 330 337
315 315 315 315 314 314 321 321 321 322 323 323 323 323 323 325 325 328 327 326 327 327 325 325 326 328 328 326 324 325 326 325 330 328 328 326 326 330 329 329 330 331 330 331
315 315 315 315 315 313 314 317 320 321 324 323 323 322 322 323 324 325 326 329 328 328 326 325 325 325 325 325 325 325 325 324 326 327 328 329 326 329 329 329 329 327 328 338
315 315 314 315 315 315 313 315 318 320 323 323 323 321 322 322 322 327 329 328 327 328 328 326 327 327 326 326 325 323 322 326 324 325 326 326 328 330 329 328 328 329 328 338
314 314 314 314 315 314 313 315 317 318 319 320 320 321 321 321 321 325 330 328 327 327 328 327 331 329 328 327 328 327 323 323 324 325 330 330 329 330 329 329 331 333 333 335
312 312 313 313 314 313 313 313 316 316 318 318 320 321 322 320 321 324 327 327 328 327 328 329 329 328 330 330 330 329 327 327 325 325 327 327 331 330 331 334 334 330 332 332
311 311 312 312 313 312 312 314 316 316 316 316 316 318 320 321 321 327 325 327 327 328 328 329 329 328 329 330 332 328 327 330 331 331 333 336 333 332 334 334 335 329 327 332
307 309 309 311 313 312 312 313 317 317 318 316 316 315 318 319 320 321 321 325 325 326 327 328 329 328 329 330 331 329 326 327 332 331 334 332 329 330 330 331 334 333 326 327
308 307 307 311 312 312 312 313 313 314 314 315 317 318 319 317 319 319 321 324 324 323 322 325 332 329 328 331 331 329 332 331 333 332 332 329 327 331 333 333 330 333 329 326
307 308 308 310 312 312 312 313 314 315 314 315 317 319 320 321 320 318 318 319 324 322 322 323 331 328 328 329 329 334 333 330 332 332 333 332 333 334 333 332 333 326 326 333
307 308 308 310 311 311 312 313 314 314 314 315 315 314 321 322 321 321 319 320 321 321 323 326 328 327 326 327 329 332 328 328 330 332 332 331 332 332 333 331 326 325 333 334
306 308 308 309 311 312 312 314 317 316 314 314 317 318 318 321 321 320 319 318 319 321 323 324 326 326 327 330 330 332 328 329 330 334 330 330 331 332 334 326 329 333 334 336
308 309 309 310 311 312 314 315 315 315 315 314 317 321 322 321 322 322 322 320 321 321 322 323 323 328 327 329 331 327 329 328 327 330 335 335 332 327 334 334 334 335 332 332
308 309 310 311 311 312 312 313 314 314 314 314 318 322 323 322 322 323 322 322 322 322 322 322 323 326 327 330 331 327 326 328 327 331 332 331 333 334 334 335 334 331 330 329
309 309 310 311 311 312 314 315 316 315 314 316 319 323 326 322 324 323 321 322 324 323 322 322 323 328 330 330 328 324 325 326 328 325 326 329 331 329 334 333 332 331 330 330
308 309 311 313 314 314 315 314 314 313 315 314 317 319 325 321 323 325 324 324 326 327 324 322 326 323 325 324 323 323 326 326 325 325 325 330 330 329 329 333 333 332 332 330
309 311 313 314 315 315 315 317 317 316 317 317 318 319 321 322 326 325 323 325 325 328 328 328 328 325 325 324 322 322 326 326 324 325 326 327 327 329 327 327 331 332 332 332
312 312 313 314 314 315 318 320 320 321 322 322 323 321 320 324 322 323 322 326 326 329 326 330 329 326 324 324 323 323 324 326 326 325 325 325 326 329 327 327 328 331 333 332
311 312 312 315 316 317 319 320 323 324 323 322 323 323 323 321 320 322 325 326 329 325 328 330 329 327 325 325 325 327 328 327 326 326 325 325 326 328 328 327 328 330 333 332
310 312 311 316 319 320 320 321 323 321 320 322 322 323 323 322 324 323 326 326 327 329 330 329 329 327 330 328 327 327 328 328 327 326 326 325 326 325 328 327 327 329 333 332
310 312 314 315 316 318 319 319 319 317 321 319 323 324 322 324 325 325 325 326 327 326 330 328 326 325 330 329 328 328 327 327 327 327 326 326 326 327 326 327 328 329 331 332
311 311 314 316 319 320 320 319 320 320 321 321 321 325 325 325 325 326 327 325 327 328 329 327 329 329 324 331 331 327 328 328 327 326 326 327 325 326 327 327 328 328 329 332
311 314 314 314 316 319 319 320 320 318 319 323 322 322 323 325 325 324 326 326 328 329 327 325 324 326 327 325 329 332 331 330 327 327 328 328 325 325 328 327 329 328 328 328

GFSNW_850_thetae_132.txt.gz
Theta_e
319 320 320 319 318 318 317 319 318 322 323 321 319 318 320 321 321 321 320 317 317 319 321 323 322 327 327 327 325 324 323 317 322 325 323 323 322 322 321 324 327 328 330 331
319 319 318 317 316 316 316 319 321 324 323 317 315 315 318 320 320 320 319 319 319 319 320 324 327 327 325 325 323 323 322 319 321 322 318 316 320 325 327 323 323 329 330 332
318 317 317 316 316 316 316 319 319 323 323 322 321 320 321 322 324 322 320 319 320 319 321 322 326 326 325 323 323 322 321 316 319 320 319 317 319 319 321 323 325 325 329 334
317 316 316 315 315 315 317 321 321 322 319 322 319 320 320 323 325 323 321 320 325 324 321 322 324 323 321 321 323 318 315 317 318 317 318 320 322 322 322 321 321 328 327 330
316 315 315 315 315 314 322 321 321 322 322 322 319 319 320 322 323 322 325 324 326 327 321 318 322 321 320 321 321 319 313 316 318 322 322 323 324 327 326 327 328 328 328 334
316 315 315 315 315 314 318 320 319 321 321 319 319 320 321 322 322 322 322 324 328 327 324 324 324 324 323 320 318 320 317 316 322 325 324 324 323 328 328 327 326 328 327 326
316 315 314 314 314 315 314 315 318 320 319 319 321 321 323 322 321 321 321 324 328 326 327 325 323 326 323 320 319 321 319 318 319 321 321 326 322 325 326 327 327 328 328 334
314 315 314 314 314 314 314 313 317 318 320 319 319 320 320 321 320 320 321 325 324 326 326 321 321 320 322 322 320 318 316 315 318 318 319 321 327 328 328 326 327 331 333 337
313 313 313 313 313 314 314 314 315 315 318 316 318 318 319 319 319 320 321 324 326 326 323 323 324 324 322 323 323 318 316 315 318 320 324 326 322 327 327 325 326 331 333 336
310 310 311 312 312 313 313 313 316 315 316 315 316 317 319 320 319 320 321 322 323 326 323 325 325 326 325 326 326 325 320 319 319 320 321 322 326 328 330 329 325 330 330 332
307 308 310 310 312 312 313 313 315 316 316 316 316 316 316 317 321 320 321 324 324 325 325 325 324 323 325 325 326 324 323 322 321 322 327 331 330 330 331 328 331 329 328 331
305 307 307 308 310 312 312 313 314 315 315 317 317 316 316 316 318 320 321 322 323 324 324 324 325 324 324 325 325 323 323 324 326 325 326 327 331 329 330 331 332 329 327 329
305 306 309 307 309 311 311 312 312 313 313 314 315 316 318 317 315 320 321 321 320 323 322 322 323 324 324 327 326 326 329 328 328 325 327 328 332 331 331 332 331 329 329 330
306 306 308 308 309 311 311 312 312 314 314 314 314 316 315 316 319 317 319 319 322 320 323 321 323 324 324 325 323 327 328 325 327 327 330 331 333 334 333 332 330 327 326 332
305 306 307 308 309 310 311 311 312 313 313 314 314 314 317 317 320 320 318 319 320 321 320 319 320 325 323 322 323 326 325 322 324 325 329 330 331 332 332 330 327 328 328 333
305 306 307 308 309 310 311 314 315 315 315 314 314 314 315 318 319 320 319 318 320 319 320 320 322 325 325 324 324 325 327 327 328 330 330 328 329 331 327 327 328 329 333 333
306 307 308 308 309 311 312 314 316 316 316 314 315 313 320 321 320 320 320 319 319 319 321 321 321 321 326 324 325 325 326 327 329 331 330 331 332 328 328 332 333 333 334 334
307 308 309 309 310 310 311 312 313 314 315 314 316 316 320 322 322 320 320 319 319 319 320 321 320 322 325 324 324 325 326 327 328 333 331 331 331 332 333 334 334 334 333 331
308 308 309 310 311 311 312 315 315 315 313 315 317 318 320 322 323 322 322 321 321 321 320 319 319 320 323 322 327 325 323 326 326 332 333 333 331 332 331 333 332 332 330 328
307 308 310 312 313 313 315 315 315 313 314 314 315 315 315 321 323 322 323 322 322 322 322 320 319 318 322 321 322 323 323 323 326 326 327 332 331 333 333 333 330 329 328 327
308 310 312 314 315 315 314 315 315 315 316 314 314 314 314 321 320 322 322 323 323 326 324 320 320 319 319 320 321 323 323 323 325 325 326 330 330 334 333 333 331 330 330 327
310 311 312 312 314 314 316 317 317 317 318 318 317 319 316 322 321 321 321 324 323 324 324 326 324 322 322 320 320 320 322 322 325 326 325 329 330 329 331 333 331 331 331 329
311 311 312 313 315 315 318 319 320 320 320 321 322 322 321 321 321 321 319 324 325 324 326 327 324 324 324 324 324 323 321 322 324 326 326 325 325 326 328 327 329 332 332 331
310 312 310 314 316 316 316 318 318 318 319 319 321 322 322 321 321 320 323 322 322 325 327 327 324 322 322 324 328 326 324 323 322 323 326 325 325 325 327 327 327 329 331 331
310 311 312 314 314 314 317 318 316 319 320 319 319 321 321 322 322 321 323 324 326 324 327 325 326 324 327 332 331 330 326 325 327 327 326 326 325 325 327 327 327 328 330 331
310 311 313 313 314 316 318 319 318 319 319 319 320 319 320 321 319 323 324 325 326 324 324 325 327 329 326 329 331 331 330 328 327 328 327 326 326 326 327 328 327 327 328 331
310 312 312 312 312 313 316 319 318 317 319 318 318 320 321 318 321 323 323 326 324 326 326 327 328 325 325 325 329 331 331 331 329 327 327 327 326 325 326 328 328 327 327 328